<?xml version="1.0" encoding="UTF-8" standalone="no" ?>
<gpx xmlns="http://www.topografix.com/GPX/1/1" xmlns:xsi="http://www.w3.org/2001/XMLSchema-instance" xsi:schemaLocation="http://www.topografix.com/GPX/1/1 http://www.topografix.com/GPX/1/1/gpx.xsd" version="1.1" creator="VisuGPX - https://www.visugpx.com">
  <metadata>
    <name>VTT collet de doizieux</name>
  </metadata>
  <trk>
    <name><![CDATA[VTT collet de doizieux]]></name>
    <trkseg>
      <trkpt lat="45.29396" lon="4.73187">
        <ele>288.39999389648</ele>
        <time>2020-07-04T06:00:36Z</time>
      </trkpt>
      <trkpt lat="45.29398" lon="4.73185">
        <ele>288.39999389648</ele>
        <time>2020-07-04T06:00:37Z</time>
      </trkpt>
      <trkpt lat="45.29408" lon="4.73162">
        <ele>288.79998779297</ele>
        <time>2020-07-04T06:00:44Z</time>
      </trkpt>
      <trkpt lat="45.29407" lon="4.73154">
        <ele>288.79998779297</ele>
        <time>2020-07-04T06:00:45Z</time>
      </trkpt>
      <trkpt lat="45.29397" lon="4.73095">
        <ele>289.79998779297</ele>
        <time>2020-07-04T06:00:59Z</time>
      </trkpt>
      <trkpt lat="45.29387" lon="4.73034">
        <ele>292.79998779297</ele>
        <time>2020-07-04T06:01:13Z</time>
      </trkpt>
      <trkpt lat="45.29386" lon="4.73029">
        <ele>293.20001220703</ele>
        <time>2020-07-04T06:01:14Z</time>
      </trkpt>
      <trkpt lat="45.29404" lon="4.73023">
        <ele>293.20001220703</ele>
        <time>2020-07-04T06:01:20Z</time>
      </trkpt>
      <trkpt lat="45.29466" lon="4.73017">
        <ele>293.20001220703</ele>
        <time>2020-07-04T06:01:32Z</time>
      </trkpt>
      <trkpt lat="45.29509" lon="4.73005">
        <ele>293.20001220703</ele>
        <time>2020-07-04T06:01:41Z</time>
      </trkpt>
      <trkpt lat="45.29514" lon="4.73005">
        <ele>293.20001220703</ele>
        <time>2020-07-04T06:01:42Z</time>
      </trkpt>
      <trkpt lat="45.29606" lon="4.72992">
        <ele>294.79998779297</ele>
        <time>2020-07-04T06:02:02Z</time>
      </trkpt>
      <trkpt lat="45.29648" lon="4.72972">
        <ele>295.20001220703</ele>
        <time>2020-07-04T06:02:12Z</time>
      </trkpt>
      <trkpt lat="45.29799" lon="4.7285">
        <ele>297.39999389648</ele>
        <time>2020-07-04T06:02:45Z</time>
      </trkpt>
      <trkpt lat="45.29905" lon="4.72814">
        <ele>297.39999389648</ele>
        <time>2020-07-04T06:03:02Z</time>
      </trkpt>
      <trkpt lat="45.2994" lon="4.72795">
        <ele>297.39999389648</ele>
        <time>2020-07-04T06:03:08Z</time>
      </trkpt>
      <trkpt lat="45.30105" lon="4.72701">
        <ele>297.39999389648</ele>
        <time>2020-07-04T06:03:38Z</time>
      </trkpt>
      <trkpt lat="45.30111" lon="4.72699">
        <ele>297.39999389648</ele>
        <time>2020-07-04T06:03:39Z</time>
      </trkpt>
      <trkpt lat="45.30203" lon="4.72689">
        <ele>299.39999389648</ele>
        <time>2020-07-04T06:03:57Z</time>
      </trkpt>
      <trkpt lat="45.30276" lon="4.72671">
        <ele>299.39999389648</ele>
        <time>2020-07-04T06:04:09Z</time>
      </trkpt>
      <trkpt lat="45.30332" lon="4.72686">
        <ele>297.20001220703</ele>
        <time>2020-07-04T06:04:19Z</time>
      </trkpt>
      <trkpt lat="45.30351" lon="4.72705">
        <ele>295</ele>
        <time>2020-07-04T06:04:27Z</time>
      </trkpt>
      <trkpt lat="45.30369" lon="4.72726">
        <ele>294.60000610352</ele>
        <time>2020-07-04T06:04:31Z</time>
      </trkpt>
      <trkpt lat="45.30398" lon="4.72723">
        <ele>292.20001220703</ele>
        <time>2020-07-04T06:04:35Z</time>
      </trkpt>
      <trkpt lat="45.30435" lon="4.7271">
        <ele>289</ele>
        <time>2020-07-04T06:04:39Z</time>
      </trkpt>
      <trkpt lat="45.30445" lon="4.72708">
        <ele>288</ele>
        <time>2020-07-04T06:04:40Z</time>
      </trkpt>
      <trkpt lat="45.30476" lon="4.72708">
        <ele>284.79998779297</ele>
        <time>2020-07-04T06:04:43Z</time>
      </trkpt>
      <trkpt lat="45.30526" lon="4.72716">
        <ele>282</ele>
        <time>2020-07-04T06:04:48Z</time>
      </trkpt>
      <trkpt lat="45.30555" lon="4.72725">
        <ele>280.79998779297</ele>
        <time>2020-07-04T06:04:51Z</time>
      </trkpt>
      <trkpt lat="45.30609" lon="4.72721">
        <ele>277.39999389648</ele>
        <time>2020-07-04T06:04:56Z</time>
      </trkpt>
      <trkpt lat="45.30633" lon="4.72713">
        <ele>276.20001220703</ele>
        <time>2020-07-04T06:04:59Z</time>
      </trkpt>
      <trkpt lat="45.30659" lon="4.72698">
        <ele>279.20001220703</ele>
        <time>2020-07-04T06:05:05Z</time>
      </trkpt>
      <trkpt lat="45.30666" lon="4.72701">
        <ele>280.20001220703</ele>
        <time>2020-07-04T06:05:07Z</time>
      </trkpt>
      <trkpt lat="45.30691" lon="4.72712">
        <ele>281.79998779297</ele>
        <time>2020-07-04T06:05:12Z</time>
      </trkpt>
      <trkpt lat="45.30723" lon="4.72715">
        <ele>283.60000610352</ele>
        <time>2020-07-04T06:05:22Z</time>
      </trkpt>
      <trkpt lat="45.30771" lon="4.72708">
        <ele>286.60000610352</ele>
        <time>2020-07-04T06:05:42Z</time>
      </trkpt>
      <trkpt lat="45.30803" lon="4.72699">
        <ele>289.60000610352</ele>
        <time>2020-07-04T06:05:55Z</time>
      </trkpt>
      <trkpt lat="45.30831" lon="4.72698">
        <ele>290.39999389648</ele>
        <time>2020-07-04T06:06:03Z</time>
      </trkpt>
      <trkpt lat="45.3084" lon="4.72702">
        <ele>290.39999389648</ele>
        <time>2020-07-04T06:06:05Z</time>
      </trkpt>
      <trkpt lat="45.30892" lon="4.72723">
        <ele>290.39999389648</ele>
        <time>2020-07-04T06:06:15Z</time>
      </trkpt>
      <trkpt lat="45.30957" lon="4.72738">
        <ele>287.79998779297</ele>
        <time>2020-07-04T06:06:26Z</time>
      </trkpt>
      <trkpt lat="45.31004" lon="4.72744">
        <ele>284.79998779297</ele>
        <time>2020-07-04T06:06:31Z</time>
      </trkpt>
      <trkpt lat="45.31041" lon="4.72742">
        <ele>281.79998779297</ele>
        <time>2020-07-04T06:06:35Z</time>
      </trkpt>
      <trkpt lat="45.31057" lon="4.72745">
        <ele>280.39999389648</ele>
        <time>2020-07-04T06:06:37Z</time>
      </trkpt>
      <trkpt lat="45.31065" lon="4.72748">
        <ele>279.60000610352</ele>
        <time>2020-07-04T06:06:38Z</time>
      </trkpt>
      <trkpt lat="45.31091" lon="4.7276">
        <ele>279.60000610352</ele>
        <time>2020-07-04T06:06:42Z</time>
      </trkpt>
      <trkpt lat="45.31136" lon="4.72771">
        <ele>279.60000610352</ele>
        <time>2020-07-04T06:06:50Z</time>
      </trkpt>
      <trkpt lat="45.31232" lon="4.72781">
        <ele>281.60000610352</ele>
        <time>2020-07-04T06:07:10Z</time>
      </trkpt>
      <trkpt lat="45.31439" lon="4.72807">
        <ele>282.20001220703</ele>
        <time>2020-07-04T06:07:48Z</time>
      </trkpt>
      <trkpt lat="45.31486" lon="4.72812">
        <ele>285.20001220703</ele>
        <time>2020-07-04T06:08:00Z</time>
      </trkpt>
      <trkpt lat="45.31553" lon="4.72821">
        <ele>288</ele>
        <time>2020-07-04T06:08:21Z</time>
      </trkpt>
      <trkpt lat="45.31611" lon="4.72831">
        <ele>290.60000610352</ele>
        <time>2020-07-04T06:08:38Z</time>
      </trkpt>
      <trkpt lat="45.31654" lon="4.72832">
        <ele>292.79998779297</ele>
        <time>2020-07-04T06:08:53Z</time>
      </trkpt>
      <trkpt lat="45.31689" lon="4.72853">
        <ele>294.39999389648</ele>
        <time>2020-07-04T06:09:05Z</time>
      </trkpt>
      <trkpt lat="45.31701" lon="4.72868">
        <ele>294.39999389648</ele>
        <time>2020-07-04T06:09:13Z</time>
      </trkpt>
      <trkpt lat="45.31713" lon="4.72851">
        <ele>296</ele>
        <time>2020-07-04T06:09:20Z</time>
      </trkpt>
      <trkpt lat="45.31715" lon="4.72844">
        <ele>296.39999389648</ele>
        <time>2020-07-04T06:09:22Z</time>
      </trkpt>
      <trkpt lat="45.31723" lon="4.72823">
        <ele>297</ele>
        <time>2020-07-04T06:09:29Z</time>
      </trkpt>
      <trkpt lat="45.31736" lon="4.72814">
        <ele>298.60000610352</ele>
        <time>2020-07-04T06:09:35Z</time>
      </trkpt>
      <trkpt lat="45.3175" lon="4.72812">
        <ele>300</ele>
        <time>2020-07-04T06:09:42Z</time>
      </trkpt>
      <trkpt lat="45.31755" lon="4.72811">
        <ele>300.79998779297</ele>
        <time>2020-07-04T06:09:45Z</time>
      </trkpt>
      <trkpt lat="45.31776" lon="4.72783">
        <ele>302.39999389648</ele>
        <time>2020-07-04T06:09:54Z</time>
      </trkpt>
      <trkpt lat="45.31782" lon="4.72773">
        <ele>302.79998779297</ele>
        <time>2020-07-04T06:09:56Z</time>
      </trkpt>
      <trkpt lat="45.31834" lon="4.72692">
        <ele>302.79998779297</ele>
        <time>2020-07-04T06:10:10Z</time>
      </trkpt>
      <trkpt lat="45.31855" lon="4.72658">
        <ele>302.79998779297</ele>
        <time>2020-07-04T06:10:15Z</time>
      </trkpt>
      <trkpt lat="45.31876" lon="4.72634">
        <ele>302.79998779297</ele>
        <time>2020-07-04T06:10:19Z</time>
      </trkpt>
      <trkpt lat="45.319" lon="4.72604">
        <ele>300.79998779297</ele>
        <time>2020-07-04T06:10:24Z</time>
      </trkpt>
      <trkpt lat="45.31945" lon="4.72574">
        <ele>300.79998779297</ele>
        <time>2020-07-04T06:10:33Z</time>
      </trkpt>
      <trkpt lat="45.31987" lon="4.72548">
        <ele>304.20001220703</ele>
        <time>2020-07-04T06:10:44Z</time>
      </trkpt>
      <trkpt lat="45.32011" lon="4.72534">
        <ele>307.20001220703</ele>
        <time>2020-07-04T06:10:53Z</time>
      </trkpt>
      <trkpt lat="45.32039" lon="4.72514">
        <ele>310.20001220703</ele>
        <time>2020-07-04T06:11:07Z</time>
      </trkpt>
      <trkpt lat="45.32072" lon="4.72488">
        <ele>313.39999389648</ele>
        <time>2020-07-04T06:11:22Z</time>
      </trkpt>
      <trkpt lat="45.32149" lon="4.72404">
        <ele>312.60000610352</ele>
        <time>2020-07-04T06:11:43Z</time>
      </trkpt>
      <trkpt lat="45.32183" lon="4.72371">
        <ele>309.60000610352</ele>
        <time>2020-07-04T06:11:49Z</time>
      </trkpt>
      <trkpt lat="45.32194" lon="4.72358">
        <ele>308.20001220703</ele>
        <time>2020-07-04T06:11:51Z</time>
      </trkpt>
      <trkpt lat="45.32219" lon="4.72335">
        <ele>305.20001220703</ele>
        <time>2020-07-04T06:11:55Z</time>
      </trkpt>
      <trkpt lat="45.32247" lon="4.72303">
        <ele>301.60000610352</ele>
        <time>2020-07-04T06:11:59Z</time>
      </trkpt>
      <trkpt lat="45.3227" lon="4.72272">
        <ele>297.39999389648</ele>
        <time>2020-07-04T06:12:02Z</time>
      </trkpt>
      <trkpt lat="45.32287" lon="4.72251">
        <ele>294.39999389648</ele>
        <time>2020-07-04T06:12:04Z</time>
      </trkpt>
      <trkpt lat="45.32313" lon="4.7222">
        <ele>290.39999389648</ele>
        <time>2020-07-04T06:12:07Z</time>
      </trkpt>
      <trkpt lat="45.32329" lon="4.72203">
        <ele>288.60000610352</ele>
        <time>2020-07-04T06:12:09Z</time>
      </trkpt>
      <trkpt lat="45.3236" lon="4.72183">
        <ele>285.39999389648</ele>
        <time>2020-07-04T06:12:14Z</time>
      </trkpt>
      <trkpt lat="45.32371" lon="4.72176">
        <ele>284</ele>
        <time>2020-07-04T06:12:16Z</time>
      </trkpt>
      <trkpt lat="45.32377" lon="4.72152">
        <ele>280.60000610352</ele>
        <time>2020-07-04T06:12:20Z</time>
      </trkpt>
      <trkpt lat="45.32388" lon="4.72129">
        <ele>277.20001220703</ele>
        <time>2020-07-04T06:12:24Z</time>
      </trkpt>
      <trkpt lat="45.32392" lon="4.72123">
        <ele>276.39999389648</ele>
        <time>2020-07-04T06:12:25Z</time>
      </trkpt>
      <trkpt lat="45.32422" lon="4.72087">
        <ele>273.20001220703</ele>
        <time>2020-07-04T06:12:30Z</time>
      </trkpt>
      <trkpt lat="45.32441" lon="4.72059">
        <ele>270.39999389648</ele>
        <time>2020-07-04T06:12:33Z</time>
      </trkpt>
      <trkpt lat="45.32465" lon="4.7205">
        <ele>266.79998779297</ele>
        <time>2020-07-04T06:12:37Z</time>
      </trkpt>
      <trkpt lat="45.32474" lon="4.7205">
        <ele>266.79998779297</ele>
        <time>2020-07-04T06:12:39Z</time>
      </trkpt>
      <trkpt lat="45.32505" lon="4.72018">
        <ele>267.20001220703</ele>
        <time>2020-07-04T06:12:49Z</time>
      </trkpt>
      <trkpt lat="45.3251" lon="4.72011">
        <ele>268.20001220703</ele>
        <time>2020-07-04T06:12:51Z</time>
      </trkpt>
      <trkpt lat="45.32585" lon="4.71938">
        <ele>269</ele>
        <time>2020-07-04T06:13:13Z</time>
      </trkpt>
      <trkpt lat="45.32632" lon="4.71877">
        <ele>270.39999389648</ele>
        <time>2020-07-04T06:13:28Z</time>
      </trkpt>
      <trkpt lat="45.32705" lon="4.71804">
        <ele>273.79998779297</ele>
        <time>2020-07-04T06:13:54Z</time>
      </trkpt>
      <trkpt lat="45.32735" lon="4.71773">
        <ele>277</ele>
        <time>2020-07-04T06:14:06Z</time>
      </trkpt>
      <trkpt lat="45.32796" lon="4.7169">
        <ele>279.39999389648</ele>
        <time>2020-07-04T06:14:30Z</time>
      </trkpt>
      <trkpt lat="45.32839" lon="4.71639">
        <ele>281.79998779297</ele>
        <time>2020-07-04T06:14:43Z</time>
      </trkpt>
      <trkpt lat="45.32862" lon="4.71576">
        <ele>278.20001220703</ele>
        <time>2020-07-04T06:14:53Z</time>
      </trkpt>
      <trkpt lat="45.32868" lon="4.71555">
        <ele>275</ele>
        <time>2020-07-04T06:14:57Z</time>
      </trkpt>
      <trkpt lat="45.32869" lon="4.71551">
        <ele>273.39999389648</ele>
        <time>2020-07-04T06:14:59Z</time>
      </trkpt>
      <trkpt lat="45.32879" lon="4.71554">
        <ele>270</ele>
        <time>2020-07-04T06:15:03Z</time>
      </trkpt>
      <trkpt lat="45.32893" lon="4.71566">
        <ele>268.79998779297</ele>
        <time>2020-07-04T06:15:07Z</time>
      </trkpt>
      <trkpt lat="45.32913" lon="4.71543">
        <ele>268.79998779297</ele>
        <time>2020-07-04T06:15:13Z</time>
      </trkpt>
      <trkpt lat="45.32919" lon="4.71523">
        <ele>268.79998779297</ele>
        <time>2020-07-04T06:15:16Z</time>
      </trkpt>
      <trkpt lat="45.32942" lon="4.71472">
        <ele>269.20001220703</ele>
        <time>2020-07-04T06:15:29Z</time>
      </trkpt>
      <trkpt lat="45.32947" lon="4.71467">
        <ele>270</ele>
        <time>2020-07-04T06:15:31Z</time>
      </trkpt>
      <trkpt lat="45.32975" lon="4.71443">
        <ele>273</ele>
        <time>2020-07-04T06:15:42Z</time>
      </trkpt>
      <trkpt lat="45.33032" lon="4.71397">
        <ele>275.20001220703</ele>
        <time>2020-07-04T06:16:02Z</time>
      </trkpt>
      <trkpt lat="45.33091" lon="4.71357">
        <ele>277.20001220703</ele>
        <time>2020-07-04T06:16:21Z</time>
      </trkpt>
      <trkpt lat="45.33157" lon="4.71325">
        <ele>279.39999389648</ele>
        <time>2020-07-04T06:16:39Z</time>
      </trkpt>
      <trkpt lat="45.33179" lon="4.71299">
        <ele>279.39999389648</ele>
        <time>2020-07-04T06:16:46Z</time>
      </trkpt>
      <trkpt lat="45.33229" lon="4.71231">
        <ele>281.79998779297</ele>
        <time>2020-07-04T06:17:04Z</time>
      </trkpt>
      <trkpt lat="45.33241" lon="4.71219">
        <ele>283.39999389648</ele>
        <time>2020-07-04T06:17:08Z</time>
      </trkpt>
      <trkpt lat="45.33253" lon="4.71229">
        <ele>283.39999389648</ele>
        <time>2020-07-04T06:17:12Z</time>
      </trkpt>
      <trkpt lat="45.33338" lon="4.71351">
        <ele>283</ele>
        <time>2020-07-04T06:17:34Z</time>
      </trkpt>
      <trkpt lat="45.33396" lon="4.71426">
        <ele>281</ele>
        <time>2020-07-04T06:17:45Z</time>
      </trkpt>
      <trkpt lat="45.33439" lon="4.71512">
        <ele>278</ele>
        <time>2020-07-04T06:17:55Z</time>
      </trkpt>
      <trkpt lat="45.33491" lon="4.71622">
        <ele>274.79998779297</ele>
        <time>2020-07-04T06:18:08Z</time>
      </trkpt>
      <trkpt lat="45.33504" lon="4.71646">
        <ele>274.79998779297</ele>
        <time>2020-07-04T06:18:11Z</time>
      </trkpt>
      <trkpt lat="45.33547" lon="4.71701">
        <ele>272.79998779297</ele>
        <time>2020-07-04T06:18:19Z</time>
      </trkpt>
      <trkpt lat="45.33565" lon="4.71693">
        <ele>270.39999389648</ele>
        <time>2020-07-04T06:18:24Z</time>
      </trkpt>
      <trkpt lat="45.33564" lon="4.7168">
        <ele>270.39999389648</ele>
        <time>2020-07-04T06:18:26Z</time>
      </trkpt>
      <trkpt lat="45.33565" lon="4.71642">
        <ele>270.39999389648</ele>
        <time>2020-07-04T06:18:32Z</time>
      </trkpt>
      <trkpt lat="45.33564" lon="4.71571">
        <ele>270.39999389648</ele>
        <time>2020-07-04T06:18:43Z</time>
      </trkpt>
      <trkpt lat="45.33566" lon="4.715">
        <ele>273.60000610352</ele>
        <time>2020-07-04T06:18:56Z</time>
      </trkpt>
      <trkpt lat="45.33572" lon="4.71434">
        <ele>276.60000610352</ele>
        <time>2020-07-04T06:19:11Z</time>
      </trkpt>
      <trkpt lat="45.33594" lon="4.714">
        <ele>276.60000610352</ele>
        <time>2020-07-04T06:19:21Z</time>
      </trkpt>
      <trkpt lat="45.33611" lon="4.71368">
        <ele>277.39999389648</ele>
        <time>2020-07-04T06:19:28Z</time>
      </trkpt>
      <trkpt lat="45.33631" lon="4.71332">
        <ele>280.60000610352</ele>
        <time>2020-07-04T06:19:38Z</time>
      </trkpt>
      <trkpt lat="45.33645" lon="4.71261">
        <ele>284</ele>
        <time>2020-07-04T06:19:57Z</time>
      </trkpt>
      <trkpt lat="45.33653" lon="4.71206">
        <ele>287</ele>
        <time>2020-07-04T06:20:11Z</time>
      </trkpt>
      <trkpt lat="45.33658" lon="4.71176">
        <ele>288.20001220703</ele>
        <time>2020-07-04T06:20:20Z</time>
      </trkpt>
      <trkpt lat="45.33663" lon="4.71175">
        <ele>289.39999389648</ele>
        <time>2020-07-04T06:20:23Z</time>
      </trkpt>
      <trkpt lat="45.33693" lon="4.71187">
        <ele>289.39999389648</ele>
        <time>2020-07-04T06:20:34Z</time>
      </trkpt>
      <trkpt lat="45.33785" lon="4.71199">
        <ele>289.39999389648</ele>
        <time>2020-07-04T06:20:53Z</time>
      </trkpt>
      <trkpt lat="45.33811" lon="4.71198">
        <ele>289.39999389648</ele>
        <time>2020-07-04T06:21:00Z</time>
      </trkpt>
      <trkpt lat="45.33869" lon="4.71189">
        <ele>292</ele>
        <time>2020-07-04T06:21:19Z</time>
      </trkpt>
      <trkpt lat="45.33902" lon="4.71195">
        <ele>295</ele>
        <time>2020-07-04T06:21:32Z</time>
      </trkpt>
      <trkpt lat="45.33961" lon="4.71231">
        <ele>297.79998779297</ele>
        <time>2020-07-04T06:21:53Z</time>
      </trkpt>
      <trkpt lat="45.33994" lon="4.71239">
        <ele>297.79998779297</ele>
        <time>2020-07-04T06:22:01Z</time>
      </trkpt>
      <trkpt lat="45.34034" lon="4.71246">
        <ele>297.79998779297</ele>
        <time>2020-07-04T06:22:10Z</time>
      </trkpt>
      <trkpt lat="45.34072" lon="4.71247">
        <ele>297.79998779297</ele>
        <time>2020-07-04T06:22:18Z</time>
      </trkpt>
      <trkpt lat="45.34116" lon="4.71248">
        <ele>297.79998779297</ele>
        <time>2020-07-04T06:22:27Z</time>
      </trkpt>
      <trkpt lat="45.34206" lon="4.71267">
        <ele>299.79998779297</ele>
        <time>2020-07-04T06:22:45Z</time>
      </trkpt>
      <trkpt lat="45.34345" lon="4.7123">
        <ele>299.79998779297</ele>
        <time>2020-07-04T06:23:11Z</time>
      </trkpt>
      <trkpt lat="45.34387" lon="4.71209">
        <ele>299.79998779297</ele>
        <time>2020-07-04T06:23:19Z</time>
      </trkpt>
      <trkpt lat="45.34417" lon="4.71189">
        <ele>299.79998779297</ele>
        <time>2020-07-04T06:23:25Z</time>
      </trkpt>
      <trkpt lat="45.34499" lon="4.71122">
        <ele>299.79998779297</ele>
        <time>2020-07-04T06:23:41Z</time>
      </trkpt>
      <trkpt lat="45.34517" lon="4.7109">
        <ele>298.39999389648</ele>
        <time>2020-07-04T06:23:45Z</time>
      </trkpt>
      <trkpt lat="45.34539" lon="4.71064">
        <ele>295.60000610352</ele>
        <time>2020-07-04T06:23:49Z</time>
      </trkpt>
      <trkpt lat="45.34584" lon="4.71023">
        <ele>293.20001220703</ele>
        <time>2020-07-04T06:23:56Z</time>
      </trkpt>
      <trkpt lat="45.34604" lon="4.71011">
        <ele>290.79998779297</ele>
        <time>2020-07-04T06:24:02Z</time>
      </trkpt>
      <trkpt lat="45.3461" lon="4.70998">
        <ele>289.20001220703</ele>
        <time>2020-07-04T06:24:07Z</time>
      </trkpt>
      <trkpt lat="45.34617" lon="4.70976">
        <ele>288.20001220703</ele>
        <time>2020-07-04T06:24:12Z</time>
      </trkpt>
      <trkpt lat="45.34629" lon="4.70953">
        <ele>288.20001220703</ele>
        <time>2020-07-04T06:24:16Z</time>
      </trkpt>
      <trkpt lat="45.34643" lon="4.70904">
        <ele>287.79998779297</ele>
        <time>2020-07-04T06:24:22Z</time>
      </trkpt>
      <trkpt lat="45.34652" lon="4.70827">
        <ele>284.20001220703</ele>
        <time>2020-07-04T06:24:29Z</time>
      </trkpt>
      <trkpt lat="45.34656" lon="4.70801">
        <ele>282.79998779297</ele>
        <time>2020-07-04T06:24:31Z</time>
      </trkpt>
      <trkpt lat="45.34669" lon="4.70772">
        <ele>279.39999389648</ele>
        <time>2020-07-04T06:24:35Z</time>
      </trkpt>
      <trkpt lat="45.34684" lon="4.70759">
        <ele>277.60000610352</ele>
        <time>2020-07-04T06:24:38Z</time>
      </trkpt>
      <trkpt lat="45.34718" lon="4.70734">
        <ele>274</ele>
        <time>2020-07-04T06:24:43Z</time>
      </trkpt>
      <trkpt lat="45.34726" lon="4.70728">
        <ele>273.20001220703</ele>
        <time>2020-07-04T06:24:44Z</time>
      </trkpt>
      <trkpt lat="45.34756" lon="4.70696">
        <ele>270</ele>
        <time>2020-07-04T06:24:48Z</time>
      </trkpt>
      <trkpt lat="45.34778" lon="4.70673">
        <ele>267.60000610352</ele>
        <time>2020-07-04T06:24:51Z</time>
      </trkpt>
      <trkpt lat="45.34797" lon="4.7065">
        <ele>264.39999389648</ele>
        <time>2020-07-04T06:24:54Z</time>
      </trkpt>
      <trkpt lat="45.34804" lon="4.70644">
        <ele>263.79998779297</ele>
        <time>2020-07-04T06:24:55Z</time>
      </trkpt>
      <trkpt lat="45.34839" lon="4.70609">
        <ele>260.20001220703</ele>
        <time>2020-07-04T06:25:00Z</time>
      </trkpt>
      <trkpt lat="45.34861" lon="4.7059">
        <ele>257</ele>
        <time>2020-07-04T06:25:03Z</time>
      </trkpt>
      <trkpt lat="45.34869" lon="4.70582">
        <ele>256</ele>
        <time>2020-07-04T06:25:04Z</time>
      </trkpt>
      <trkpt lat="45.34884" lon="4.70565">
        <ele>254</ele>
        <time>2020-07-04T06:25:06Z</time>
      </trkpt>
      <trkpt lat="45.34915" lon="4.70535">
        <ele>250.80000305176</ele>
        <time>2020-07-04T06:25:10Z</time>
      </trkpt>
      <trkpt lat="45.34939" lon="4.70508">
        <ele>248</ele>
        <time>2020-07-04T06:25:14Z</time>
      </trkpt>
      <trkpt lat="45.34959" lon="4.70509">
        <ele>244.19999694824</ele>
        <time>2020-07-04T06:25:18Z</time>
      </trkpt>
      <trkpt lat="45.34972" lon="4.70544">
        <ele>241.60000610352</ele>
        <time>2020-07-04T06:25:25Z</time>
      </trkpt>
      <trkpt lat="45.34972" lon="4.70532">
        <ele>240.39999389648</ele>
        <time>2020-07-04T06:25:28Z</time>
      </trkpt>
      <trkpt lat="45.3497" lon="4.70503">
        <ele>239.19999694824</ele>
        <time>2020-07-04T06:25:32Z</time>
      </trkpt>
      <trkpt lat="45.34957" lon="4.70457">
        <ele>235.80000305176</ele>
        <time>2020-07-04T06:25:38Z</time>
      </trkpt>
      <trkpt lat="45.34972" lon="4.70459">
        <ele>231.60000610352</ele>
        <time>2020-07-04T06:25:43Z</time>
      </trkpt>
      <trkpt lat="45.3499" lon="4.70467">
        <ele>228.19999694824</ele>
        <time>2020-07-04T06:25:49Z</time>
      </trkpt>
      <trkpt lat="45.34988" lon="4.70448">
        <ele>227</ele>
        <time>2020-07-04T06:25:51Z</time>
      </trkpt>
      <trkpt lat="45.34984" lon="4.70384">
        <ele>223.39999389648</ele>
        <time>2020-07-04T06:25:56Z</time>
      </trkpt>
      <trkpt lat="45.34983" lon="4.70369">
        <ele>222.39999389648</ele>
        <time>2020-07-04T06:25:57Z</time>
      </trkpt>
      <trkpt lat="45.34989" lon="4.70331">
        <ele>219.60000610352</ele>
        <time>2020-07-04T06:26:00Z</time>
      </trkpt>
      <trkpt lat="45.3499" lon="4.70319">
        <ele>219.60000610352</ele>
        <time>2020-07-04T06:26:01Z</time>
      </trkpt>
      <trkpt lat="45.34987" lon="4.70288">
        <ele>219.60000610352</ele>
        <time>2020-07-04T06:26:07Z</time>
      </trkpt>
      <trkpt lat="45.34998" lon="4.70285">
        <ele>222.60000610352</ele>
        <time>2020-07-04T06:26:17Z</time>
      </trkpt>
      <trkpt lat="45.35019" lon="4.70311">
        <ele>225.60000610352</ele>
        <time>2020-07-04T06:26:31Z</time>
      </trkpt>
      <trkpt lat="45.35021" lon="4.70312">
        <ele>226</ele>
        <time>2020-07-04T06:26:32Z</time>
      </trkpt>
      <trkpt lat="45.35027" lon="4.70296">
        <ele>227.39999389648</ele>
        <time>2020-07-04T06:26:40Z</time>
      </trkpt>
      <trkpt lat="45.3503" lon="4.70233">
        <ele>230.60000610352</ele>
        <time>2020-07-04T06:27:03Z</time>
      </trkpt>
      <trkpt lat="45.35038" lon="4.70201">
        <ele>233.60000610352</ele>
        <time>2020-07-04T06:27:15Z</time>
      </trkpt>
      <trkpt lat="45.3505" lon="4.70177">
        <ele>236.60000610352</ele>
        <time>2020-07-04T06:27:27Z</time>
      </trkpt>
      <trkpt lat="45.35117" lon="4.70097">
        <ele>316.39999389648</ele>
        <time>2020-07-04T06:29:28Z</time>
      </trkpt>
      <trkpt lat="45.35117" lon="4.70097">
        <ele>319.79998779297</ele>
        <time>2020-07-04T06:29:31Z</time>
      </trkpt>
      <trkpt lat="45.35117" lon="4.70097">
        <ele>322.79998779297</ele>
        <time>2020-07-04T06:29:34Z</time>
      </trkpt>
      <trkpt lat="45.35117" lon="4.70097">
        <ele>326.60000610352</ele>
        <time>2020-07-04T06:29:38Z</time>
      </trkpt>
      <trkpt lat="45.35118" lon="4.70097">
        <ele>330</ele>
        <time>2020-07-04T06:29:43Z</time>
      </trkpt>
      <trkpt lat="45.35117" lon="4.70095">
        <ele>333.39999389648</ele>
        <time>2020-07-04T06:29:48Z</time>
      </trkpt>
      <trkpt lat="45.35117" lon="4.70095">
        <ele>336.60000610352</ele>
        <time>2020-07-04T06:29:52Z</time>
      </trkpt>
      <trkpt lat="45.35124" lon="4.70083">
        <ele>340</ele>
        <time>2020-07-04T06:29:58Z</time>
      </trkpt>
      <trkpt lat="45.35129" lon="4.70066">
        <ele>343.20001220703</ele>
        <time>2020-07-04T06:30:04Z</time>
      </trkpt>
      <trkpt lat="45.3513" lon="4.70051">
        <ele>346.20001220703</ele>
        <time>2020-07-04T06:30:09Z</time>
      </trkpt>
      <trkpt lat="45.35134" lon="4.70038">
        <ele>349.20001220703</ele>
        <time>2020-07-04T06:30:14Z</time>
      </trkpt>
      <trkpt lat="45.35137" lon="4.70025">
        <ele>352.39999389648</ele>
        <time>2020-07-04T06:30:19Z</time>
      </trkpt>
      <trkpt lat="45.35142" lon="4.70007">
        <ele>355.79998779297</ele>
        <time>2020-07-04T06:30:26Z</time>
      </trkpt>
      <trkpt lat="45.35151" lon="4.69986">
        <ele>359</ele>
        <time>2020-07-04T06:30:35Z</time>
      </trkpt>
      <trkpt lat="45.3516" lon="4.69971">
        <ele>362</ele>
        <time>2020-07-04T06:30:43Z</time>
      </trkpt>
      <trkpt lat="45.35171" lon="4.69953">
        <ele>366.39999389648</ele>
        <time>2020-07-04T06:30:52Z</time>
      </trkpt>
      <trkpt lat="45.35172" lon="4.6995">
        <ele>366.60000610352</ele>
        <time>2020-07-04T06:30:53Z</time>
      </trkpt>
      <trkpt lat="45.35194" lon="4.69899">
        <ele>369.60000610352</ele>
        <time>2020-07-04T06:31:15Z</time>
      </trkpt>
      <trkpt lat="45.35206" lon="4.6987">
        <ele>372.79998779297</ele>
        <time>2020-07-04T06:31:28Z</time>
      </trkpt>
      <trkpt lat="45.35225" lon="4.69832">
        <ele>376.20001220703</ele>
        <time>2020-07-04T06:31:47Z</time>
      </trkpt>
      <trkpt lat="45.35236" lon="4.69816">
        <ele>379.60000610352</ele>
        <time>2020-07-04T06:31:56Z</time>
      </trkpt>
      <trkpt lat="45.35253" lon="4.69797">
        <ele>382.60000610352</ele>
        <time>2020-07-04T06:32:10Z</time>
      </trkpt>
      <trkpt lat="45.35264" lon="4.69777">
        <ele>385.60000610352</ele>
        <time>2020-07-04T06:32:21Z</time>
      </trkpt>
      <trkpt lat="45.35271" lon="4.69708">
        <ele>388.20001220703</ele>
        <time>2020-07-04T06:32:46Z</time>
      </trkpt>
      <trkpt lat="45.35257" lon="4.69684">
        <ele>388.20001220703</ele>
        <time>2020-07-04T06:32:53Z</time>
      </trkpt>
      <trkpt lat="45.3522" lon="4.69619">
        <ele>391</ele>
        <time>2020-07-04T06:33:15Z</time>
      </trkpt>
      <trkpt lat="45.35199" lon="4.69618">
        <ele>394</ele>
        <time>2020-07-04T06:33:24Z</time>
      </trkpt>
      <trkpt lat="45.35185" lon="4.69624">
        <ele>395.60000610352</ele>
        <time>2020-07-04T06:33:31Z</time>
      </trkpt>
      <trkpt lat="45.35171" lon="4.69612">
        <ele>397</ele>
        <time>2020-07-04T06:33:39Z</time>
      </trkpt>
      <trkpt lat="45.3515" lon="4.69602">
        <ele>399.60000610352</ele>
        <time>2020-07-04T06:33:50Z</time>
      </trkpt>
      <trkpt lat="45.35154" lon="4.69583">
        <ele>400.79998779297</ele>
        <time>2020-07-04T06:33:58Z</time>
      </trkpt>
      <trkpt lat="45.35174" lon="4.69536">
        <ele>403.79998779297</ele>
        <time>2020-07-04T06:34:14Z</time>
      </trkpt>
      <trkpt lat="45.35196" lon="4.69505">
        <ele>406.79998779297</ele>
        <time>2020-07-04T06:34:26Z</time>
      </trkpt>
      <trkpt lat="45.35246" lon="4.69395">
        <ele>407.20001220703</ele>
        <time>2020-07-04T06:34:50Z</time>
      </trkpt>
      <trkpt lat="45.35297" lon="4.69291">
        <ele>407.20001220703</ele>
        <time>2020-07-04T06:35:07Z</time>
      </trkpt>
      <trkpt lat="45.35327" lon="4.69197">
        <ele>407.20001220703</ele>
        <time>2020-07-04T06:35:20Z</time>
      </trkpt>
      <trkpt lat="45.35339" lon="4.69145">
        <ele>407.20001220703</ele>
        <time>2020-07-04T06:35:27Z</time>
      </trkpt>
      <trkpt lat="45.35343" lon="4.6911">
        <ele>407.20001220703</ele>
        <time>2020-07-04T06:35:32Z</time>
      </trkpt>
      <trkpt lat="45.35354" lon="4.69074">
        <ele>407.20001220703</ele>
        <time>2020-07-04T06:35:38Z</time>
      </trkpt>
      <trkpt lat="45.35369" lon="4.69041">
        <ele>407.20001220703</ele>
        <time>2020-07-04T06:35:43Z</time>
      </trkpt>
      <trkpt lat="45.35433" lon="4.68952">
        <ele>404.60000610352</ele>
        <time>2020-07-04T06:35:58Z</time>
      </trkpt>
      <trkpt lat="45.35467" lon="4.68915">
        <ele>401.20001220703</ele>
        <time>2020-07-04T06:36:04Z</time>
      </trkpt>
      <trkpt lat="45.35493" lon="4.68885">
        <ele>398</ele>
        <time>2020-07-04T06:36:11Z</time>
      </trkpt>
      <trkpt lat="45.35499" lon="4.68855">
        <ele>396</ele>
        <time>2020-07-04T06:36:17Z</time>
      </trkpt>
      <trkpt lat="45.35506" lon="4.68819">
        <ele>396</ele>
        <time>2020-07-04T06:36:23Z</time>
      </trkpt>
      <trkpt lat="45.3552" lon="4.68728">
        <ele>398</ele>
        <time>2020-07-04T06:36:36Z</time>
      </trkpt>
      <trkpt lat="45.3553" lon="4.68692">
        <ele>398</ele>
        <time>2020-07-04T06:36:41Z</time>
      </trkpt>
      <trkpt lat="45.35558" lon="4.68623">
        <ele>398</ele>
        <time>2020-07-04T06:36:51Z</time>
      </trkpt>
      <trkpt lat="45.35567" lon="4.68524">
        <ele>398</ele>
        <time>2020-07-04T06:37:05Z</time>
      </trkpt>
      <trkpt lat="45.35564" lon="4.68503">
        <ele>398</ele>
        <time>2020-07-04T06:37:10Z</time>
      </trkpt>
      <trkpt lat="45.35561" lon="4.68472">
        <ele>398</ele>
        <time>2020-07-04T06:37:16Z</time>
      </trkpt>
      <trkpt lat="45.35567" lon="4.68414">
        <ele>399.60000610352</ele>
        <time>2020-07-04T06:37:26Z</time>
      </trkpt>
      <trkpt lat="45.35569" lon="4.68408">
        <ele>400</ele>
        <time>2020-07-04T06:37:27Z</time>
      </trkpt>
      <trkpt lat="45.35595" lon="4.68268">
        <ele>402.60000610352</ele>
        <time>2020-07-04T06:37:55Z</time>
      </trkpt>
      <trkpt lat="45.35615" lon="4.68202">
        <ele>404.20001220703</ele>
        <time>2020-07-04T06:38:10Z</time>
      </trkpt>
      <trkpt lat="45.35635" lon="4.68146">
        <ele>407.20001220703</ele>
        <time>2020-07-04T06:38:23Z</time>
      </trkpt>
      <trkpt lat="45.35657" lon="4.68082">
        <ele>410.20001220703</ele>
        <time>2020-07-04T06:38:39Z</time>
      </trkpt>
      <trkpt lat="45.35676" lon="4.6801">
        <ele>413</ele>
        <time>2020-07-04T06:39:00Z</time>
      </trkpt>
      <trkpt lat="45.35687" lon="4.67967">
        <ele>416</ele>
        <time>2020-07-04T06:39:13Z</time>
      </trkpt>
      <trkpt lat="45.35697" lon="4.67923">
        <ele>419.20001220703</ele>
        <time>2020-07-04T06:39:26Z</time>
      </trkpt>
      <trkpt lat="45.35736" lon="4.67835">
        <ele>421.20001220703</ele>
        <time>2020-07-04T06:39:51Z</time>
      </trkpt>
      <trkpt lat="45.35769" lon="4.67718">
        <ele>423.39999389648</ele>
        <time>2020-07-04T06:40:20Z</time>
      </trkpt>
      <trkpt lat="45.35779" lon="4.67687">
        <ele>425.79998779297</ele>
        <time>2020-07-04T06:40:33Z</time>
      </trkpt>
      <trkpt lat="45.35794" lon="4.67638">
        <ele>428.20001220703</ele>
        <time>2020-07-04T06:40:48Z</time>
      </trkpt>
      <trkpt lat="45.35806" lon="4.676">
        <ele>431.20001220703</ele>
        <time>2020-07-04T06:41:00Z</time>
      </trkpt>
      <trkpt lat="45.35819" lon="4.67566">
        <ele>434.20001220703</ele>
        <time>2020-07-04T06:41:11Z</time>
      </trkpt>
      <trkpt lat="45.35833" lon="4.67489">
        <ele>437.20001220703</ele>
        <time>2020-07-04T06:41:33Z</time>
      </trkpt>
      <trkpt lat="45.3585" lon="4.67434">
        <ele>440.20001220703</ele>
        <time>2020-07-04T06:41:49Z</time>
      </trkpt>
      <trkpt lat="45.35893" lon="4.67383">
        <ele>442.60000610352</ele>
        <time>2020-07-04T06:42:10Z</time>
      </trkpt>
      <trkpt lat="45.35907" lon="4.67393">
        <ele>444.39999389648</ele>
        <time>2020-07-04T06:42:14Z</time>
      </trkpt>
      <trkpt lat="45.35983" lon="4.67483">
        <ele>442.39999389648</ele>
        <time>2020-07-04T06:42:31Z</time>
      </trkpt>
      <trkpt lat="45.3605" lon="4.67539">
        <ele>439.39999389648</ele>
        <time>2020-07-04T06:42:45Z</time>
      </trkpt>
      <trkpt lat="45.36055" lon="4.67542">
        <ele>439</ele>
        <time>2020-07-04T06:42:46Z</time>
      </trkpt>
      <trkpt lat="45.3606" lon="4.67543">
        <ele>438.60000610352</ele>
        <time>2020-07-04T06:42:47Z</time>
      </trkpt>
      <trkpt lat="45.36087" lon="4.67551">
        <ele>438.60000610352</ele>
        <time>2020-07-04T06:42:52Z</time>
      </trkpt>
      <trkpt lat="45.36156" lon="4.67545">
        <ele>438.60000610352</ele>
        <time>2020-07-04T06:43:04Z</time>
      </trkpt>
      <trkpt lat="45.36162" lon="4.67547">
        <ele>438.60000610352</ele>
        <time>2020-07-04T06:43:05Z</time>
      </trkpt>
      <trkpt lat="45.3623" lon="4.67567">
        <ele>438.60000610352</ele>
        <time>2020-07-04T06:43:17Z</time>
      </trkpt>
      <trkpt lat="45.36235" lon="4.67571">
        <ele>438.60000610352</ele>
        <time>2020-07-04T06:43:18Z</time>
      </trkpt>
      <trkpt lat="45.36264" lon="4.67591">
        <ele>438.60000610352</ele>
        <time>2020-07-04T06:43:23Z</time>
      </trkpt>
      <trkpt lat="45.36316" lon="4.6764">
        <ele>436</ele>
        <time>2020-07-04T06:43:35Z</time>
      </trkpt>
      <trkpt lat="45.36347" lon="4.67635">
        <ele>434.39999389648</ele>
        <time>2020-07-04T06:43:41Z</time>
      </trkpt>
      <trkpt lat="45.36432" lon="4.67567">
        <ele>434.39999389648</ele>
        <time>2020-07-04T06:44:02Z</time>
      </trkpt>
      <trkpt lat="45.3649" lon="4.67542">
        <ele>437</ele>
        <time>2020-07-04T06:44:20Z</time>
      </trkpt>
      <trkpt lat="45.36551" lon="4.67534">
        <ele>439.39999389648</ele>
        <time>2020-07-04T06:44:39Z</time>
      </trkpt>
      <trkpt lat="45.36613" lon="4.67526">
        <ele>441.79998779297</ele>
        <time>2020-07-04T06:44:58Z</time>
      </trkpt>
      <trkpt lat="45.36651" lon="4.6752">
        <ele>443</ele>
        <time>2020-07-04T06:45:10Z</time>
      </trkpt>
      <trkpt lat="45.36684" lon="4.67545">
        <ele>445.20001220703</ele>
        <time>2020-07-04T06:45:23Z</time>
      </trkpt>
      <trkpt lat="45.36693" lon="4.67553">
        <ele>446.79998779297</ele>
        <time>2020-07-04T06:45:27Z</time>
      </trkpt>
      <trkpt lat="45.36713" lon="4.67552">
        <ele>447.79998779297</ele>
        <time>2020-07-04T06:45:37Z</time>
      </trkpt>
      <trkpt lat="45.36741" lon="4.67522">
        <ele>450.79998779297</ele>
        <time>2020-07-04T06:45:53Z</time>
      </trkpt>
      <trkpt lat="45.36785" lon="4.67497">
        <ele>453.60000610352</ele>
        <time>2020-07-04T06:46:14Z</time>
      </trkpt>
      <trkpt lat="45.36811" lon="4.6749">
        <ele>456.60000610352</ele>
        <time>2020-07-04T06:46:27Z</time>
      </trkpt>
      <trkpt lat="45.36834" lon="4.67479">
        <ele>459.60000610352</ele>
        <time>2020-07-04T06:46:39Z</time>
      </trkpt>
      <trkpt lat="45.36857" lon="4.67472">
        <ele>462.79998779297</ele>
        <time>2020-07-04T06:46:52Z</time>
      </trkpt>
      <trkpt lat="45.36871" lon="4.67465">
        <ele>464.79998779297</ele>
        <time>2020-07-04T06:47:00Z</time>
      </trkpt>
      <trkpt lat="45.36887" lon="4.67474">
        <ele>466.39999389648</ele>
        <time>2020-07-04T06:47:10Z</time>
      </trkpt>
      <trkpt lat="45.36907" lon="4.67565">
        <ele>466.39999389648</ele>
        <time>2020-07-04T06:47:27Z</time>
      </trkpt>
      <trkpt lat="45.36992" lon="4.67736">
        <ele>404.79998779297</ele>
        <time>2020-07-04T06:49:08Z</time>
      </trkpt>
      <trkpt lat="45.36992" lon="4.67736">
        <ele>407</ele>
        <time>2020-07-04T06:49:09Z</time>
      </trkpt>
      <trkpt lat="45.36992" lon="4.67736">
        <ele>411.39999389648</ele>
        <time>2020-07-04T06:49:11Z</time>
      </trkpt>
      <trkpt lat="45.36992" lon="4.67736">
        <ele>415.39999389648</ele>
        <time>2020-07-04T06:49:13Z</time>
      </trkpt>
      <trkpt lat="45.36992" lon="4.67736">
        <ele>419.39999389648</ele>
        <time>2020-07-04T06:49:15Z</time>
      </trkpt>
      <trkpt lat="45.36991" lon="4.67735">
        <ele>422.60000610352</ele>
        <time>2020-07-04T06:49:17Z</time>
      </trkpt>
      <trkpt lat="45.36992" lon="4.67735">
        <ele>425.60000610352</ele>
        <time>2020-07-04T06:49:19Z</time>
      </trkpt>
      <trkpt lat="45.36992" lon="4.67735">
        <ele>427</ele>
        <time>2020-07-04T06:49:20Z</time>
      </trkpt>
      <trkpt lat="45.36998" lon="4.67737">
        <ele>431.20001220703</ele>
        <time>2020-07-04T06:49:23Z</time>
      </trkpt>
      <trkpt lat="45.37" lon="4.67737">
        <ele>432.60000610352</ele>
        <time>2020-07-04T06:49:24Z</time>
      </trkpt>
      <trkpt lat="45.37007" lon="4.6774">
        <ele>436.39999389648</ele>
        <time>2020-07-04T06:49:26Z</time>
      </trkpt>
      <trkpt lat="45.3702" lon="4.67746">
        <ele>439.79998779297</ele>
        <time>2020-07-04T06:49:29Z</time>
      </trkpt>
      <trkpt lat="45.37036" lon="4.67752">
        <ele>443</ele>
        <time>2020-07-04T06:49:32Z</time>
      </trkpt>
      <trkpt lat="45.37062" lon="4.67765">
        <ele>446.20001220703</ele>
        <time>2020-07-04T06:49:36Z</time>
      </trkpt>
      <trkpt lat="45.37078" lon="4.6777">
        <ele>447</ele>
        <time>2020-07-04T06:49:38Z</time>
      </trkpt>
      <trkpt lat="45.37165" lon="4.67762">
        <ele>448</ele>
        <time>2020-07-04T06:49:47Z</time>
      </trkpt>
      <trkpt lat="45.37293" lon="4.67756">
        <ele>448</ele>
        <time>2020-07-04T06:50:01Z</time>
      </trkpt>
      <trkpt lat="45.37343" lon="4.67742">
        <ele>448</ele>
        <time>2020-07-04T06:50:09Z</time>
      </trkpt>
      <trkpt lat="45.37391" lon="4.67723">
        <ele>451</ele>
        <time>2020-07-04T06:50:18Z</time>
      </trkpt>
      <trkpt lat="45.37414" lon="4.67719">
        <ele>454</ele>
        <time>2020-07-04T06:50:24Z</time>
      </trkpt>
      <trkpt lat="45.37431" lon="4.67717">
        <ele>456.79998779297</ele>
        <time>2020-07-04T06:50:29Z</time>
      </trkpt>
      <trkpt lat="45.37483" lon="4.67717">
        <ele>459.79998779297</ele>
        <time>2020-07-04T06:50:43Z</time>
      </trkpt>
      <trkpt lat="45.37506" lon="4.6772">
        <ele>464.39999389648</ele>
        <time>2020-07-04T06:50:51Z</time>
      </trkpt>
      <trkpt lat="45.37554" lon="4.67716">
        <ele>466</ele>
        <time>2020-07-04T06:51:10Z</time>
      </trkpt>
      <trkpt lat="45.37567" lon="4.67735">
        <ele>466</ele>
        <time>2020-07-04T06:51:15Z</time>
      </trkpt>
      <trkpt lat="45.37612" lon="4.678">
        <ele>466</ele>
        <time>2020-07-04T06:51:28Z</time>
      </trkpt>
      <trkpt lat="45.37644" lon="4.67815">
        <ele>466</ele>
        <time>2020-07-04T06:51:35Z</time>
      </trkpt>
      <trkpt lat="45.37689" lon="4.67826">
        <ele>466</ele>
        <time>2020-07-04T06:51:43Z</time>
      </trkpt>
      <trkpt lat="45.37712" lon="4.67837">
        <ele>466</ele>
        <time>2020-07-04T06:51:47Z</time>
      </trkpt>
      <trkpt lat="45.37743" lon="4.6784">
        <ele>466</ele>
        <time>2020-07-04T06:51:53Z</time>
      </trkpt>
      <trkpt lat="45.37796" lon="4.67847">
        <ele>466</ele>
        <time>2020-07-04T06:52:03Z</time>
      </trkpt>
      <trkpt lat="45.37847" lon="4.67853">
        <ele>466</ele>
        <time>2020-07-04T06:52:14Z</time>
      </trkpt>
      <trkpt lat="45.37882" lon="4.67863">
        <ele>466</ele>
        <time>2020-07-04T06:52:21Z</time>
      </trkpt>
      <trkpt lat="45.37921" lon="4.67882">
        <ele>466</ele>
        <time>2020-07-04T06:52:28Z</time>
      </trkpt>
      <trkpt lat="45.37947" lon="4.67879">
        <ele>466</ele>
        <time>2020-07-04T06:52:32Z</time>
      </trkpt>
      <trkpt lat="45.37996" lon="4.67867">
        <ele>466</ele>
        <time>2020-07-04T06:52:41Z</time>
      </trkpt>
      <trkpt lat="45.38004" lon="4.67862">
        <ele>466</ele>
        <time>2020-07-04T06:52:43Z</time>
      </trkpt>
      <trkpt lat="45.38018" lon="4.67852">
        <ele>466</ele>
        <time>2020-07-04T06:52:46Z</time>
      </trkpt>
      <trkpt lat="45.38043" lon="4.6784">
        <ele>465.60000610352</ele>
        <time>2020-07-04T06:52:51Z</time>
      </trkpt>
      <trkpt lat="45.38079" lon="4.67827">
        <ele>462.39999389648</ele>
        <time>2020-07-04T06:52:58Z</time>
      </trkpt>
      <trkpt lat="45.38109" lon="4.67831">
        <ele>460</ele>
        <time>2020-07-04T06:53:04Z</time>
      </trkpt>
      <trkpt lat="45.38112" lon="4.67828">
        <ele>459.60000610352</ele>
        <time>2020-07-04T06:53:05Z</time>
      </trkpt>
      <trkpt lat="45.3814" lon="4.67787">
        <ele>462.79998779297</ele>
        <time>2020-07-04T06:53:19Z</time>
      </trkpt>
      <trkpt lat="45.38149" lon="4.6776">
        <ele>465.79998779297</ele>
        <time>2020-07-04T06:53:28Z</time>
      </trkpt>
      <trkpt lat="45.38151" lon="4.67754">
        <ele>466.79998779297</ele>
        <time>2020-07-04T06:53:30Z</time>
      </trkpt>
      <trkpt lat="45.38169" lon="4.67741">
        <ele>469.79998779297</ele>
        <time>2020-07-04T06:53:40Z</time>
      </trkpt>
      <trkpt lat="45.38184" lon="4.67725">
        <ele>472.79998779297</ele>
        <time>2020-07-04T06:53:52Z</time>
      </trkpt>
      <trkpt lat="45.38202" lon="4.67705">
        <ele>475.79998779297</ele>
        <time>2020-07-04T06:54:05Z</time>
      </trkpt>
      <trkpt lat="45.38219" lon="4.67694">
        <ele>477.60000610352</ele>
        <time>2020-07-04T06:54:13Z</time>
      </trkpt>
      <trkpt lat="45.38246" lon="4.67722">
        <ele>477.60000610352</ele>
        <time>2020-07-04T06:54:22Z</time>
      </trkpt>
      <trkpt lat="45.38284" lon="4.67742">
        <ele>477.60000610352</ele>
        <time>2020-07-04T06:54:33Z</time>
      </trkpt>
      <trkpt lat="45.38352" lon="4.67764">
        <ele>477.60000610352</ele>
        <time>2020-07-04T06:54:53Z</time>
      </trkpt>
      <trkpt lat="45.38398" lon="4.67806">
        <ele>477.60000610352</ele>
        <time>2020-07-04T06:55:07Z</time>
      </trkpt>
      <trkpt lat="45.38423" lon="4.67835">
        <ele>477.60000610352</ele>
        <time>2020-07-04T06:55:15Z</time>
      </trkpt>
      <trkpt lat="45.38439" lon="4.67851">
        <ele>477.60000610352</ele>
        <time>2020-07-04T06:55:19Z</time>
      </trkpt>
      <trkpt lat="45.38469" lon="4.67883">
        <ele>475</ele>
        <time>2020-07-04T06:55:25Z</time>
      </trkpt>
      <trkpt lat="45.38498" lon="4.67891">
        <ele>473</ele>
        <time>2020-07-04T06:55:30Z</time>
      </trkpt>
      <trkpt lat="45.38503" lon="4.67891">
        <ele>473</ele>
        <time>2020-07-04T06:55:31Z</time>
      </trkpt>
      <trkpt lat="45.3855" lon="4.67922">
        <ele>472.39999389648</ele>
        <time>2020-07-04T06:55:43Z</time>
      </trkpt>
      <trkpt lat="45.38589" lon="4.67953">
        <ele>470.60000610352</ele>
        <time>2020-07-04T06:55:51Z</time>
      </trkpt>
      <trkpt lat="45.3864" lon="4.67972">
        <ele>468.60000610352</ele>
        <time>2020-07-04T06:55:59Z</time>
      </trkpt>
      <trkpt lat="45.38656" lon="4.67983">
        <ele>468.60000610352</ele>
        <time>2020-07-04T06:56:02Z</time>
      </trkpt>
      <trkpt lat="45.38682" lon="4.6799">
        <ele>468.60000610352</ele>
        <time>2020-07-04T06:56:10Z</time>
      </trkpt>
      <trkpt lat="45.38696" lon="4.6799">
        <ele>468.60000610352</ele>
        <time>2020-07-04T06:56:14Z</time>
      </trkpt>
      <trkpt lat="45.38725" lon="4.68018">
        <ele>468.60000610352</ele>
        <time>2020-07-04T06:56:22Z</time>
      </trkpt>
      <trkpt lat="45.38757" lon="4.68004">
        <ele>468.60000610352</ele>
        <time>2020-07-04T06:56:31Z</time>
      </trkpt>
      <trkpt lat="45.3877" lon="4.68014">
        <ele>468.60000610352</ele>
        <time>2020-07-04T06:56:35Z</time>
      </trkpt>
      <trkpt lat="45.38774" lon="4.68018">
        <ele>468.60000610352</ele>
        <time>2020-07-04T06:56:36Z</time>
      </trkpt>
      <trkpt lat="45.38783" lon="4.68031">
        <ele>468.60000610352</ele>
        <time>2020-07-04T06:56:39Z</time>
      </trkpt>
      <trkpt lat="45.38789" lon="4.68041">
        <ele>468.60000610352</ele>
        <time>2020-07-04T06:56:41Z</time>
      </trkpt>
      <trkpt lat="45.38809" lon="4.68089">
        <ele>467.20001220703</ele>
        <time>2020-07-04T06:56:50Z</time>
      </trkpt>
      <trkpt lat="45.38809" lon="4.68098">
        <ele>466.79998779297</ele>
        <time>2020-07-04T06:56:51Z</time>
      </trkpt>
      <trkpt lat="45.38831" lon="4.68146">
        <ele>463.79998779297</ele>
        <time>2020-07-04T06:56:56Z</time>
      </trkpt>
      <trkpt lat="45.3884" lon="4.68152">
        <ele>463.20001220703</ele>
        <time>2020-07-04T06:56:57Z</time>
      </trkpt>
      <trkpt lat="45.38855" lon="4.68163">
        <ele>461.39999389648</ele>
        <time>2020-07-04T06:56:59Z</time>
      </trkpt>
      <trkpt lat="45.38873" lon="4.68181">
        <ele>458.20001220703</ele>
        <time>2020-07-04T06:57:03Z</time>
      </trkpt>
      <trkpt lat="45.38883" lon="4.68185">
        <ele>455.79998779297</ele>
        <time>2020-07-04T06:57:06Z</time>
      </trkpt>
      <trkpt lat="45.38914" lon="4.68176">
        <ele>454.20001220703</ele>
        <time>2020-07-04T06:57:14Z</time>
      </trkpt>
      <trkpt lat="45.38921" lon="4.68144">
        <ele>454.20001220703</ele>
        <time>2020-07-04T06:57:21Z</time>
      </trkpt>
      <trkpt lat="45.38924" lon="4.68112">
        <ele>454.20001220703</ele>
        <time>2020-07-04T06:57:29Z</time>
      </trkpt>
      <trkpt lat="45.3892" lon="4.68099">
        <ele>456</ele>
        <time>2020-07-04T06:57:35Z</time>
      </trkpt>
      <trkpt lat="45.38919" lon="4.68092">
        <ele>457</ele>
        <time>2020-07-04T06:57:38Z</time>
      </trkpt>
      <trkpt lat="45.38907" lon="4.6807">
        <ele>460.39999389648</ele>
        <time>2020-07-04T06:57:50Z</time>
      </trkpt>
      <trkpt lat="45.389" lon="4.6805">
        <ele>462.79998779297</ele>
        <time>2020-07-04T06:58:01Z</time>
      </trkpt>
      <trkpt lat="45.38886" lon="4.68038">
        <ele>465.79998779297</ele>
        <time>2020-07-04T06:58:11Z</time>
      </trkpt>
      <trkpt lat="45.38885" lon="4.68037">
        <ele>466.20001220703</ele>
        <time>2020-07-04T06:58:12Z</time>
      </trkpt>
      <trkpt lat="45.38879" lon="4.68019">
        <ele>469</ele>
        <time>2020-07-04T06:58:21Z</time>
      </trkpt>
      <trkpt lat="45.38874" lon="4.67991">
        <ele>471.20001220703</ele>
        <time>2020-07-04T06:58:34Z</time>
      </trkpt>
      <trkpt lat="45.38875" lon="4.67979">
        <ele>472</ele>
        <time>2020-07-04T06:58:40Z</time>
      </trkpt>
      <trkpt lat="45.38871" lon="4.67947">
        <ele>473.20001220703</ele>
        <time>2020-07-04T06:58:55Z</time>
      </trkpt>
      <trkpt lat="45.38866" lon="4.67913">
        <ele>475.39999389648</ele>
        <time>2020-07-04T06:59:10Z</time>
      </trkpt>
      <trkpt lat="45.3886" lon="4.67874">
        <ele>478</ele>
        <time>2020-07-04T06:59:26Z</time>
      </trkpt>
      <trkpt lat="45.38853" lon="4.67837">
        <ele>481.20001220703</ele>
        <time>2020-07-04T06:59:41Z</time>
      </trkpt>
      <trkpt lat="45.3885" lon="4.67815">
        <ele>484.20001220703</ele>
        <time>2020-07-04T06:59:50Z</time>
      </trkpt>
      <trkpt lat="45.38848" lon="4.67808">
        <ele>485</ele>
        <time>2020-07-04T06:59:53Z</time>
      </trkpt>
      <trkpt lat="45.38847" lon="4.67793">
        <ele>487</ele>
        <time>2020-07-04T06:59:59Z</time>
      </trkpt>
      <trkpt lat="45.38849" lon="4.67753">
        <ele>489.79998779297</ele>
        <time>2020-07-04T07:00:13Z</time>
      </trkpt>
      <trkpt lat="45.38853" lon="4.67657">
        <ele>492.20001220703</ele>
        <time>2020-07-04T07:00:39Z</time>
      </trkpt>
      <trkpt lat="45.38827" lon="4.67567">
        <ele>494.60000610352</ele>
        <time>2020-07-04T07:01:01Z</time>
      </trkpt>
      <trkpt lat="45.38808" lon="4.67513">
        <ele>497.60000610352</ele>
        <time>2020-07-04T07:01:14Z</time>
      </trkpt>
      <trkpt lat="45.38752" lon="4.6738">
        <ele>498.39999389648</ele>
        <time>2020-07-04T07:01:41Z</time>
      </trkpt>
      <trkpt lat="45.38727" lon="4.67337">
        <ele>501</ele>
        <time>2020-07-04T07:01:53Z</time>
      </trkpt>
      <trkpt lat="45.38717" lon="4.67284">
        <ele>502.60000610352</ele>
        <time>2020-07-04T07:02:03Z</time>
      </trkpt>
      <trkpt lat="45.3871" lon="4.67249">
        <ele>502.60000610352</ele>
        <time>2020-07-04T07:02:09Z</time>
      </trkpt>
      <trkpt lat="45.38734" lon="4.67203">
        <ele>502.60000610352</ele>
        <time>2020-07-04T07:02:18Z</time>
      </trkpt>
      <trkpt lat="45.38763" lon="4.67191">
        <ele>502.60000610352</ele>
        <time>2020-07-04T07:02:25Z</time>
      </trkpt>
      <trkpt lat="45.38787" lon="4.6718">
        <ele>502.60000610352</ele>
        <time>2020-07-04T07:02:31Z</time>
      </trkpt>
      <trkpt lat="45.38846" lon="4.67187">
        <ele>502.60000610352</ele>
        <time>2020-07-04T07:02:41Z</time>
      </trkpt>
      <trkpt lat="45.38878" lon="4.67175">
        <ele>502.20001220703</ele>
        <time>2020-07-04T07:02:45Z</time>
      </trkpt>
      <trkpt lat="45.38931" lon="4.67155">
        <ele>498.79998779297</ele>
        <time>2020-07-04T07:02:51Z</time>
      </trkpt>
      <trkpt lat="45.3894" lon="4.67151">
        <ele>498.39999389648</ele>
        <time>2020-07-04T07:02:52Z</time>
      </trkpt>
      <trkpt lat="45.38987" lon="4.67157">
        <ele>496.20001220703</ele>
        <time>2020-07-04T07:02:57Z</time>
      </trkpt>
      <trkpt lat="45.39018" lon="4.67174">
        <ele>494.79998779297</ele>
        <time>2020-07-04T07:03:01Z</time>
      </trkpt>
      <trkpt lat="45.39059" lon="4.6723">
        <ele>492.39999389648</ele>
        <time>2020-07-04T07:03:08Z</time>
      </trkpt>
      <trkpt lat="45.39081" lon="4.67218">
        <ele>491</ele>
        <time>2020-07-04T07:03:13Z</time>
      </trkpt>
      <trkpt lat="45.39098" lon="4.67219">
        <ele>491</ele>
        <time>2020-07-04T07:03:17Z</time>
      </trkpt>
      <trkpt lat="45.39106" lon="4.67222">
        <ele>491</ele>
        <time>2020-07-04T07:03:19Z</time>
      </trkpt>
      <trkpt lat="45.39127" lon="4.67236">
        <ele>493.20001220703</ele>
        <time>2020-07-04T07:03:24Z</time>
      </trkpt>
      <trkpt lat="45.39173" lon="4.67271">
        <ele>493.60000610352</ele>
        <time>2020-07-04T07:03:39Z</time>
      </trkpt>
      <trkpt lat="45.39184" lon="4.67274">
        <ele>495</ele>
        <time>2020-07-04T07:03:42Z</time>
      </trkpt>
      <trkpt lat="45.39245" lon="4.67299">
        <ele>495.39999389648</ele>
        <time>2020-07-04T07:03:55Z</time>
      </trkpt>
      <trkpt lat="45.39311" lon="4.67323">
        <ele>495.39999389648</ele>
        <time>2020-07-04T07:04:08Z</time>
      </trkpt>
      <trkpt lat="45.39317" lon="4.67311">
        <ele>495.39999389648</ele>
        <time>2020-07-04T07:04:12Z</time>
      </trkpt>
      <trkpt lat="45.39376" lon="4.67236">
        <ele>497.39999389648</ele>
        <time>2020-07-04T07:04:42Z</time>
      </trkpt>
      <trkpt lat="45.39414" lon="4.67203">
        <ele>500.39999389648</ele>
        <time>2020-07-04T07:04:57Z</time>
      </trkpt>
      <trkpt lat="45.39455" lon="4.67154">
        <ele>502.60000610352</ele>
        <time>2020-07-04T07:05:13Z</time>
      </trkpt>
      <trkpt lat="45.39487" lon="4.67152">
        <ele>504.20001220703</ele>
        <time>2020-07-04T07:05:26Z</time>
      </trkpt>
      <trkpt lat="45.39495" lon="4.67153">
        <ele>505.39999389648</ele>
        <time>2020-07-04T07:05:29Z</time>
      </trkpt>
      <trkpt lat="45.395" lon="4.67157">
        <ele>505.79998779297</ele>
        <time>2020-07-04T07:05:32Z</time>
      </trkpt>
      <trkpt lat="45.39507" lon="4.67161">
        <ele>506.79998779297</ele>
        <time>2020-07-04T07:05:36Z</time>
      </trkpt>
      <trkpt lat="45.39522" lon="4.67179">
        <ele>509.79998779297</ele>
        <time>2020-07-04T07:05:47Z</time>
      </trkpt>
      <trkpt lat="45.39531" lon="4.67189">
        <ele>510.20001220703</ele>
        <time>2020-07-04T07:05:52Z</time>
      </trkpt>
      <trkpt lat="45.3956" lon="4.67216">
        <ele>512.20001220703</ele>
        <time>2020-07-04T07:06:10Z</time>
      </trkpt>
      <trkpt lat="45.39578" lon="4.67241">
        <ele>515.20001220703</ele>
        <time>2020-07-04T07:06:23Z</time>
      </trkpt>
      <trkpt lat="45.39581" lon="4.67247">
        <ele>516.59997558594</ele>
        <time>2020-07-04T07:06:26Z</time>
      </trkpt>
      <trkpt lat="45.39586" lon="4.67253">
        <ele>516.59997558594</ele>
        <time>2020-07-04T07:06:30Z</time>
      </trkpt>
      <trkpt lat="45.39594" lon="4.67261">
        <ele>517</ele>
        <time>2020-07-04T07:06:35Z</time>
      </trkpt>
      <trkpt lat="45.39612" lon="4.67272">
        <ele>518.59997558594</ele>
        <time>2020-07-04T07:06:46Z</time>
      </trkpt>
      <trkpt lat="45.39614" lon="4.67273">
        <ele>519</ele>
        <time>2020-07-04T07:06:47Z</time>
      </trkpt>
      <trkpt lat="45.39637" lon="4.67284">
        <ele>522.20001220703</ele>
        <time>2020-07-04T07:07:01Z</time>
      </trkpt>
      <trkpt lat="45.39667" lon="4.673">
        <ele>524.79998779297</ele>
        <time>2020-07-04T07:07:19Z</time>
      </trkpt>
      <trkpt lat="45.39705" lon="4.67346">
        <ele>527.40002441406</ele>
        <time>2020-07-04T07:07:42Z</time>
      </trkpt>
      <trkpt lat="45.39706" lon="4.67348">
        <ele>527.79998779297</ele>
        <time>2020-07-04T07:07:43Z</time>
      </trkpt>
      <trkpt lat="45.39724" lon="4.6737">
        <ele>529</ele>
        <time>2020-07-04T07:07:54Z</time>
      </trkpt>
      <trkpt lat="45.39754" lon="4.67412">
        <ele>532.20001220703</ele>
        <time>2020-07-04T07:08:13Z</time>
      </trkpt>
      <trkpt lat="45.39773" lon="4.67436">
        <ele>533.79998779297</ele>
        <time>2020-07-04T07:08:24Z</time>
      </trkpt>
      <trkpt lat="45.39787" lon="4.67462">
        <ele>535.59997558594</ele>
        <time>2020-07-04T07:08:34Z</time>
      </trkpt>
      <trkpt lat="45.39805" lon="4.67485">
        <ele>537.20001220703</ele>
        <time>2020-07-04T07:08:42Z</time>
      </trkpt>
      <trkpt lat="45.39834" lon="4.67519">
        <ele>537.20001220703</ele>
        <time>2020-07-04T07:08:53Z</time>
      </trkpt>
      <trkpt lat="45.39852" lon="4.67511">
        <ele>539.79998779297</ele>
        <time>2020-07-04T07:09:04Z</time>
      </trkpt>
      <trkpt lat="45.39862" lon="4.67513">
        <ele>542</ele>
        <time>2020-07-04T07:09:11Z</time>
      </trkpt>
      <trkpt lat="45.39876" lon="4.67515">
        <ele>545</ele>
        <time>2020-07-04T07:09:19Z</time>
      </trkpt>
      <trkpt lat="45.39878" lon="4.67515">
        <ele>545.40002441406</ele>
        <time>2020-07-04T07:09:20Z</time>
      </trkpt>
      <trkpt lat="45.39896" lon="4.67494">
        <ele>548.40002441406</ele>
        <time>2020-07-04T07:09:35Z</time>
      </trkpt>
      <trkpt lat="45.39895" lon="4.67478">
        <ele>551.40002441406</ele>
        <time>2020-07-04T07:09:45Z</time>
      </trkpt>
      <trkpt lat="45.39895" lon="4.67477">
        <ele>551.79998779297</ele>
        <time>2020-07-04T07:09:46Z</time>
      </trkpt>
      <trkpt lat="45.39891" lon="4.67464">
        <ele>553.79998779297</ele>
        <time>2020-07-04T07:09:53Z</time>
      </trkpt>
      <trkpt lat="45.39887" lon="4.67451">
        <ele>556</ele>
        <time>2020-07-04T07:10:01Z</time>
      </trkpt>
      <trkpt lat="45.39885" lon="4.67443">
        <ele>556.40002441406</ele>
        <time>2020-07-04T07:10:06Z</time>
      </trkpt>
      <trkpt lat="45.39884" lon="4.6744">
        <ele>557.20001220703</ele>
        <time>2020-07-04T07:10:08Z</time>
      </trkpt>
      <trkpt lat="45.39875" lon="4.67428">
        <ele>558.79998779297</ele>
        <time>2020-07-04T07:10:18Z</time>
      </trkpt>
      <trkpt lat="45.39868" lon="4.67413">
        <ele>561.20001220703</ele>
        <time>2020-07-04T07:10:27Z</time>
      </trkpt>
      <trkpt lat="45.39858" lon="4.67397">
        <ele>564.20001220703</ele>
        <time>2020-07-04T07:10:37Z</time>
      </trkpt>
      <trkpt lat="45.39847" lon="4.67355">
        <ele>566.79998779297</ele>
        <time>2020-07-04T07:10:55Z</time>
      </trkpt>
      <trkpt lat="45.39849" lon="4.67318">
        <ele>568.79998779297</ele>
        <time>2020-07-04T07:11:10Z</time>
      </trkpt>
      <trkpt lat="45.39852" lon="4.67293">
        <ele>570.79998779297</ele>
        <time>2020-07-04T07:11:21Z</time>
      </trkpt>
      <trkpt lat="45.39865" lon="4.67277">
        <ele>573.79998779297</ele>
        <time>2020-07-04T07:11:32Z</time>
      </trkpt>
      <trkpt lat="45.3987" lon="4.67274">
        <ele>575.20001220703</ele>
        <time>2020-07-04T07:11:36Z</time>
      </trkpt>
      <trkpt lat="45.39886" lon="4.67289">
        <ele>575.59997558594</ele>
        <time>2020-07-04T07:11:46Z</time>
      </trkpt>
      <trkpt lat="45.39917" lon="4.67312">
        <ele>577.20001220703</ele>
        <time>2020-07-04T07:12:00Z</time>
      </trkpt>
      <trkpt lat="45.39958" lon="4.67327">
        <ele>579.40002441406</ele>
        <time>2020-07-04T07:12:17Z</time>
      </trkpt>
      <trkpt lat="45.39997" lon="4.67337">
        <ele>581.40002441406</ele>
        <time>2020-07-04T07:12:32Z</time>
      </trkpt>
      <trkpt lat="45.40029" lon="4.67339">
        <ele>584.59997558594</ele>
        <time>2020-07-04T07:12:46Z</time>
      </trkpt>
      <trkpt lat="45.40064" lon="4.67337">
        <ele>587.59997558594</ele>
        <time>2020-07-04T07:13:01Z</time>
      </trkpt>
      <trkpt lat="45.40077" lon="4.67335">
        <ele>589.79998779297</ele>
        <time>2020-07-04T07:13:08Z</time>
      </trkpt>
      <trkpt lat="45.40098" lon="4.67327">
        <ele>589.79998779297</ele>
        <time>2020-07-04T07:13:17Z</time>
      </trkpt>
      <trkpt lat="45.40133" lon="4.6731">
        <ele>591.79998779297</ele>
        <time>2020-07-04T07:13:28Z</time>
      </trkpt>
      <trkpt lat="45.4018" lon="4.6726">
        <ele>591.79998779297</ele>
        <time>2020-07-04T07:13:40Z</time>
      </trkpt>
      <trkpt lat="45.40216" lon="4.67201">
        <ele>589.79998779297</ele>
        <time>2020-07-04T07:13:52Z</time>
      </trkpt>
      <trkpt lat="45.40246" lon="4.67156">
        <ele>588.79998779297</ele>
        <time>2020-07-04T07:13:59Z</time>
      </trkpt>
      <trkpt lat="45.40265" lon="4.67104">
        <ele>585.79998779297</ele>
        <time>2020-07-04T07:14:04Z</time>
      </trkpt>
      <trkpt lat="45.4027" lon="4.67045">
        <ele>585.59997558594</ele>
        <time>2020-07-04T07:14:15Z</time>
      </trkpt>
      <trkpt lat="45.4027" lon="4.67013">
        <ele>587.79998779297</ele>
        <time>2020-07-04T07:14:24Z</time>
      </trkpt>
      <trkpt lat="45.40267" lon="4.67007">
        <ele>588.59997558594</ele>
        <time>2020-07-04T07:14:26Z</time>
      </trkpt>
      <trkpt lat="45.40268" lon="4.66998">
        <ele>589.59997558594</ele>
        <time>2020-07-04T07:14:30Z</time>
      </trkpt>
      <trkpt lat="45.40269" lon="4.66979">
        <ele>592.59997558594</ele>
        <time>2020-07-04T07:14:39Z</time>
      </trkpt>
      <trkpt lat="45.40267" lon="4.66951">
        <ele>595.79998779297</ele>
        <time>2020-07-04T07:14:51Z</time>
      </trkpt>
      <trkpt lat="45.40261" lon="4.66934">
        <ele>598.40002441406</ele>
        <time>2020-07-04T07:14:59Z</time>
      </trkpt>
      <trkpt lat="45.4026" lon="4.66929">
        <ele>599.59997558594</ele>
        <time>2020-07-04T07:15:02Z</time>
      </trkpt>
      <trkpt lat="45.40277" lon="4.66907">
        <ele>600.79998779297</ele>
        <time>2020-07-04T07:15:13Z</time>
      </trkpt>
      <trkpt lat="45.40314" lon="4.66866">
        <ele>602.59997558594</ele>
        <time>2020-07-04T07:15:34Z</time>
      </trkpt>
      <trkpt lat="45.40337" lon="4.66841">
        <ele>604.20001220703</ele>
        <time>2020-07-04T07:15:46Z</time>
      </trkpt>
      <trkpt lat="45.40364" lon="4.66809">
        <ele>606.40002441406</ele>
        <time>2020-07-04T07:15:58Z</time>
      </trkpt>
      <trkpt lat="45.40385" lon="4.6678">
        <ele>606.40002441406</ele>
        <time>2020-07-04T07:16:04Z</time>
      </trkpt>
      <trkpt lat="45.40422" lon="4.66731">
        <ele>605.40002441406</ele>
        <time>2020-07-04T07:16:16Z</time>
      </trkpt>
      <trkpt lat="45.40454" lon="4.66685">
        <ele>603.20001220703</ele>
        <time>2020-07-04T07:16:22Z</time>
      </trkpt>
      <trkpt lat="45.40474" lon="4.66648">
        <ele>602</ele>
        <time>2020-07-04T07:16:26Z</time>
      </trkpt>
      <trkpt lat="45.40486" lon="4.66568">
        <ele>602</ele>
        <time>2020-07-04T07:16:35Z</time>
      </trkpt>
      <trkpt lat="45.40486" lon="4.6655">
        <ele>601.59997558594</ele>
        <time>2020-07-04T07:16:37Z</time>
      </trkpt>
      <trkpt lat="45.40491" lon="4.66424">
        <ele>599.79998779297</ele>
        <time>2020-07-04T07:16:52Z</time>
      </trkpt>
      <trkpt lat="45.40504" lon="4.66285">
        <ele>599.79998779297</ele>
        <time>2020-07-04T07:17:13Z</time>
      </trkpt>
      <trkpt lat="45.40517" lon="4.66251">
        <ele>599.79998779297</ele>
        <time>2020-07-04T07:17:18Z</time>
      </trkpt>
      <trkpt lat="45.40529" lon="4.66225">
        <ele>598.79998779297</ele>
        <time>2020-07-04T07:17:21Z</time>
      </trkpt>
      <trkpt lat="45.40543" lon="4.66178">
        <ele>595.59997558594</ele>
        <time>2020-07-04T07:17:26Z</time>
      </trkpt>
      <trkpt lat="45.40553" lon="4.66128">
        <ele>594.79998779297</ele>
        <time>2020-07-04T07:17:31Z</time>
      </trkpt>
      <trkpt lat="45.40553" lon="4.66102">
        <ele>593.59997558594</ele>
        <time>2020-07-04T07:17:34Z</time>
      </trkpt>
      <trkpt lat="45.40556" lon="4.66044">
        <ele>593.20001220703</ele>
        <time>2020-07-04T07:17:42Z</time>
      </trkpt>
      <trkpt lat="45.40561" lon="4.65973">
        <ele>593.59997558594</ele>
        <time>2020-07-04T07:17:52Z</time>
      </trkpt>
      <trkpt lat="45.40561" lon="4.65929">
        <ele>596.79998779297</ele>
        <time>2020-07-04T07:18:02Z</time>
      </trkpt>
      <trkpt lat="45.40586" lon="4.65899">
        <ele>599</ele>
        <time>2020-07-04T07:18:14Z</time>
      </trkpt>
      <trkpt lat="45.40587" lon="4.65894">
        <ele>599.40002441406</ele>
        <time>2020-07-04T07:18:17Z</time>
      </trkpt>
      <trkpt lat="45.40569" lon="4.65893">
        <ele>601</ele>
        <time>2020-07-04T07:18:28Z</time>
      </trkpt>
      <trkpt lat="45.40552" lon="4.65908">
        <ele>603.20001220703</ele>
        <time>2020-07-04T07:18:39Z</time>
      </trkpt>
      <trkpt lat="45.40545" lon="4.65927">
        <ele>603.59997558594</ele>
        <time>2020-07-04T07:18:46Z</time>
      </trkpt>
      <trkpt lat="45.40515" lon="4.65939">
        <ele>605.79998779297</ele>
        <time>2020-07-04T07:18:54Z</time>
      </trkpt>
      <trkpt lat="45.40508" lon="4.65914">
        <ele>607.79998779297</ele>
        <time>2020-07-04T07:19:04Z</time>
      </trkpt>
      <trkpt lat="45.40511" lon="4.659">
        <ele>609.59997558594</ele>
        <time>2020-07-04T07:19:10Z</time>
      </trkpt>
      <trkpt lat="45.40523" lon="4.65871">
        <ele>610</ele>
        <time>2020-07-04T07:19:22Z</time>
      </trkpt>
      <trkpt lat="45.40552" lon="4.65826">
        <ele>613</ele>
        <time>2020-07-04T07:19:40Z</time>
      </trkpt>
      <trkpt lat="45.40573" lon="4.65804">
        <ele>616</ele>
        <time>2020-07-04T07:19:53Z</time>
      </trkpt>
      <trkpt lat="45.40603" lon="4.65787">
        <ele>619</ele>
        <time>2020-07-04T07:20:07Z</time>
      </trkpt>
      <trkpt lat="45.40643" lon="4.65764">
        <ele>622</ele>
        <time>2020-07-04T07:20:22Z</time>
      </trkpt>
      <trkpt lat="45.40693" lon="4.65741">
        <ele>624.40002441406</ele>
        <time>2020-07-04T07:20:40Z</time>
      </trkpt>
      <trkpt lat="45.40723" lon="4.6571">
        <ele>626.79998779297</ele>
        <time>2020-07-04T07:20:55Z</time>
      </trkpt>
      <trkpt lat="45.40719" lon="4.6565">
        <ele>629.40002441406</ele>
        <time>2020-07-04T07:21:16Z</time>
      </trkpt>
      <trkpt lat="45.40703" lon="4.65615">
        <ele>632.40002441406</ele>
        <time>2020-07-04T07:21:31Z</time>
      </trkpt>
      <trkpt lat="45.40685" lon="4.65561">
        <ele>635.20001220703</ele>
        <time>2020-07-04T07:21:50Z</time>
      </trkpt>
      <trkpt lat="45.4067" lon="4.65501">
        <ele>637.59997558594</ele>
        <time>2020-07-04T07:22:10Z</time>
      </trkpt>
      <trkpt lat="45.40658" lon="4.65463">
        <ele>640.59997558594</ele>
        <time>2020-07-04T07:22:23Z</time>
      </trkpt>
      <trkpt lat="45.40638" lon="4.65409">
        <ele>643.40002441406</ele>
        <time>2020-07-04T07:22:44Z</time>
      </trkpt>
      <trkpt lat="45.40625" lon="4.65383">
        <ele>646.40002441406</ele>
        <time>2020-07-04T07:22:59Z</time>
      </trkpt>
      <trkpt lat="45.40594" lon="4.65331">
        <ele>648</ele>
        <time>2020-07-04T07:23:23Z</time>
      </trkpt>
      <trkpt lat="45.40579" lon="4.65297">
        <ele>650.79998779297</ele>
        <time>2020-07-04T07:23:39Z</time>
      </trkpt>
      <trkpt lat="45.40565" lon="4.65246">
        <ele>651.79998779297</ele>
        <time>2020-07-04T07:23:58Z</time>
      </trkpt>
      <trkpt lat="45.4057" lon="4.65232">
        <ele>653</ele>
        <time>2020-07-04T07:24:01Z</time>
      </trkpt>
      <trkpt lat="45.40569" lon="4.65216">
        <ele>653.79998779297</ele>
        <time>2020-07-04T07:24:04Z</time>
      </trkpt>
      <trkpt lat="45.40567" lon="4.65163">
        <ele>655.79998779297</ele>
        <time>2020-07-04T07:24:20Z</time>
      </trkpt>
      <trkpt lat="45.40567" lon="4.65131">
        <ele>656.20001220703</ele>
        <time>2020-07-04T07:24:31Z</time>
      </trkpt>
      <trkpt lat="45.40559" lon="4.65103">
        <ele>657.79998779297</ele>
        <time>2020-07-04T07:24:41Z</time>
      </trkpt>
      <trkpt lat="45.40558" lon="4.65099">
        <ele>658.20001220703</ele>
        <time>2020-07-04T07:24:42Z</time>
      </trkpt>
      <trkpt lat="45.40551" lon="4.65077">
        <ele>659.79998779297</ele>
        <time>2020-07-04T07:24:50Z</time>
      </trkpt>
      <trkpt lat="45.40549" lon="4.65066">
        <ele>660.59997558594</ele>
        <time>2020-07-04T07:24:55Z</time>
      </trkpt>
      <trkpt lat="45.40547" lon="4.65064">
        <ele>661</ele>
        <time>2020-07-04T07:24:56Z</time>
      </trkpt>
      <trkpt lat="45.4054" lon="4.6502">
        <ele>662.40002441406</ele>
        <time>2020-07-04T07:25:11Z</time>
      </trkpt>
      <trkpt lat="45.40536" lon="4.65013">
        <ele>663.20001220703</ele>
        <time>2020-07-04T07:25:13Z</time>
      </trkpt>
      <trkpt lat="45.40516" lon="4.64969">
        <ele>666</ele>
        <time>2020-07-04T07:25:28Z</time>
      </trkpt>
      <trkpt lat="45.40507" lon="4.64956">
        <ele>667.40002441406</ele>
        <time>2020-07-04T07:25:33Z</time>
      </trkpt>
      <trkpt lat="45.40496" lon="4.64938">
        <ele>669</ele>
        <time>2020-07-04T07:25:42Z</time>
      </trkpt>
      <trkpt lat="45.40493" lon="4.64933">
        <ele>669.79998779297</ele>
        <time>2020-07-04T07:25:44Z</time>
      </trkpt>
      <trkpt lat="45.40473" lon="4.64896">
        <ele>672.59997558594</ele>
        <time>2020-07-04T07:25:59Z</time>
      </trkpt>
      <trkpt lat="45.40456" lon="4.64859">
        <ele>674.20001220703</ele>
        <time>2020-07-04T07:26:14Z</time>
      </trkpt>
      <trkpt lat="45.40421" lon="4.64799">
        <ele>676.40002441406</ele>
        <time>2020-07-04T07:26:33Z</time>
      </trkpt>
      <trkpt lat="45.40414" lon="4.64783">
        <ele>678.20001220703</ele>
        <time>2020-07-04T07:26:38Z</time>
      </trkpt>
      <trkpt lat="45.40391" lon="4.64744">
        <ele>679.40002441406</ele>
        <time>2020-07-04T07:26:50Z</time>
      </trkpt>
      <trkpt lat="45.40385" lon="4.64735">
        <ele>680.59997558594</ele>
        <time>2020-07-04T07:26:53Z</time>
      </trkpt>
      <trkpt lat="45.40355" lon="4.6469">
        <ele>683.20001220703</ele>
        <time>2020-07-04T07:27:13Z</time>
      </trkpt>
      <trkpt lat="45.40343" lon="4.64657">
        <ele>686.20001220703</ele>
        <time>2020-07-04T07:27:26Z</time>
      </trkpt>
      <trkpt lat="45.40335" lon="4.64631">
        <ele>689.20001220703</ele>
        <time>2020-07-04T07:27:37Z</time>
      </trkpt>
      <trkpt lat="45.40326" lon="4.64606">
        <ele>691.20001220703</ele>
        <time>2020-07-04T07:27:49Z</time>
      </trkpt>
      <trkpt lat="45.40319" lon="4.64582">
        <ele>693</ele>
        <time>2020-07-04T07:27:59Z</time>
      </trkpt>
      <trkpt lat="45.40301" lon="4.64549">
        <ele>695.40002441406</ele>
        <time>2020-07-04T07:28:15Z</time>
      </trkpt>
      <trkpt lat="45.40281" lon="4.64519">
        <ele>697.59997558594</ele>
        <time>2020-07-04T07:28:29Z</time>
      </trkpt>
      <trkpt lat="45.40263" lon="4.64491">
        <ele>700.20001220703</ele>
        <time>2020-07-04T07:28:44Z</time>
      </trkpt>
      <trkpt lat="45.4026" lon="4.64487">
        <ele>701</ele>
        <time>2020-07-04T07:28:46Z</time>
      </trkpt>
      <trkpt lat="45.40245" lon="4.64465">
        <ele>703.79998779297</ele>
        <time>2020-07-04T07:28:58Z</time>
      </trkpt>
      <trkpt lat="45.40227" lon="4.64446">
        <ele>705.20001220703</ele>
        <time>2020-07-04T07:29:07Z</time>
      </trkpt>
      <trkpt lat="45.40218" lon="4.64423">
        <ele>707.20001220703</ele>
        <time>2020-07-04T07:29:17Z</time>
      </trkpt>
      <trkpt lat="45.40197" lon="4.64396">
        <ele>710.20001220703</ele>
        <time>2020-07-04T07:29:31Z</time>
      </trkpt>
      <trkpt lat="45.40172" lon="4.64356">
        <ele>712.40002441406</ele>
        <time>2020-07-04T07:29:53Z</time>
      </trkpt>
      <trkpt lat="45.4017" lon="4.64352">
        <ele>712.79998779297</ele>
        <time>2020-07-04T07:29:55Z</time>
      </trkpt>
      <trkpt lat="45.40159" lon="4.64335">
        <ele>714.40002441406</ele>
        <time>2020-07-04T07:30:05Z</time>
      </trkpt>
      <trkpt lat="45.40135" lon="4.64309">
        <ele>717</ele>
        <time>2020-07-04T07:30:18Z</time>
      </trkpt>
      <trkpt lat="45.40131" lon="4.64305">
        <ele>717.79998779297</ele>
        <time>2020-07-04T07:30:20Z</time>
      </trkpt>
      <trkpt lat="45.40119" lon="4.64282">
        <ele>719.40002441406</ele>
        <time>2020-07-04T07:30:29Z</time>
      </trkpt>
      <trkpt lat="45.40117" lon="4.64278">
        <ele>720.20001220703</ele>
        <time>2020-07-04T07:30:31Z</time>
      </trkpt>
      <trkpt lat="45.40106" lon="4.64251">
        <ele>722.79998779297</ele>
        <time>2020-07-04T07:30:45Z</time>
      </trkpt>
      <trkpt lat="45.40097" lon="4.6423">
        <ele>724.40002441406</ele>
        <time>2020-07-04T07:30:54Z</time>
      </trkpt>
      <trkpt lat="45.40091" lon="4.64203">
        <ele>726.20001220703</ele>
        <time>2020-07-04T07:31:05Z</time>
      </trkpt>
      <trkpt lat="45.40086" lon="4.64172">
        <ele>728.59997558594</ele>
        <time>2020-07-04T07:31:17Z</time>
      </trkpt>
      <trkpt lat="45.40084" lon="4.64149">
        <ele>730.79998779297</ele>
        <time>2020-07-04T07:31:27Z</time>
      </trkpt>
      <trkpt lat="45.40083" lon="4.64129">
        <ele>731.20001220703</ele>
        <time>2020-07-04T07:31:35Z</time>
      </trkpt>
      <trkpt lat="45.40082" lon="4.6412">
        <ele>733</ele>
        <time>2020-07-04T07:31:39Z</time>
      </trkpt>
      <trkpt lat="45.40073" lon="4.64092">
        <ele>735.20001220703</ele>
        <time>2020-07-04T07:31:51Z</time>
      </trkpt>
      <trkpt lat="45.4006" lon="4.64057">
        <ele>737.59997558594</ele>
        <time>2020-07-04T07:32:07Z</time>
      </trkpt>
      <trkpt lat="45.40045" lon="4.64013">
        <ele>739.79998779297</ele>
        <time>2020-07-04T07:32:26Z</time>
      </trkpt>
      <trkpt lat="45.40047" lon="4.63968">
        <ele>743</ele>
        <time>2020-07-04T07:32:44Z</time>
      </trkpt>
      <trkpt lat="45.40048" lon="4.63931">
        <ele>746</ele>
        <time>2020-07-04T07:32:59Z</time>
      </trkpt>
      <trkpt lat="45.40047" lon="4.63929">
        <ele>746</ele>
        <time>2020-07-04T07:33:00Z</time>
      </trkpt>
      <trkpt lat="45.40046" lon="4.6391">
        <ele>747.20001220703</ele>
        <time>2020-07-04T07:33:07Z</time>
      </trkpt>
      <trkpt lat="45.40043" lon="4.63894">
        <ele>748</ele>
        <time>2020-07-04T07:33:13Z</time>
      </trkpt>
      <trkpt lat="45.40035" lon="4.63854">
        <ele>751</ele>
        <time>2020-07-04T07:33:28Z</time>
      </trkpt>
      <trkpt lat="45.40025" lon="4.63823">
        <ele>754.20001220703</ele>
        <time>2020-07-04T07:33:42Z</time>
      </trkpt>
      <trkpt lat="45.40015" lon="4.63781">
        <ele>756.40002441406</ele>
        <time>2020-07-04T07:34:01Z</time>
      </trkpt>
      <trkpt lat="45.4" lon="4.63747">
        <ele>759</ele>
        <time>2020-07-04T07:34:18Z</time>
      </trkpt>
      <trkpt lat="45.39997" lon="4.63742">
        <ele>760.20001220703</ele>
        <time>2020-07-04T07:34:21Z</time>
      </trkpt>
      <trkpt lat="45.39991" lon="4.6372">
        <ele>760.79998779297</ele>
        <time>2020-07-04T07:34:31Z</time>
      </trkpt>
      <trkpt lat="45.39981" lon="4.63701">
        <ele>762.79998779297</ele>
        <time>2020-07-04T07:34:41Z</time>
      </trkpt>
      <trkpt lat="45.39981" lon="4.63687">
        <ele>763.20001220703</ele>
        <time>2020-07-04T07:34:47Z</time>
      </trkpt>
      <trkpt lat="45.39977" lon="4.63676">
        <ele>764.79998779297</ele>
        <time>2020-07-04T07:34:51Z</time>
      </trkpt>
      <trkpt lat="45.3997" lon="4.63635">
        <ele>767.40002441406</ele>
        <time>2020-07-04T07:35:08Z</time>
      </trkpt>
      <trkpt lat="45.39969" lon="4.63632">
        <ele>767.79998779297</ele>
        <time>2020-07-04T07:35:09Z</time>
      </trkpt>
      <trkpt lat="45.39957" lon="4.63602">
        <ele>770</ele>
        <time>2020-07-04T07:35:22Z</time>
      </trkpt>
      <trkpt lat="45.39956" lon="4.63596">
        <ele>771.20001220703</ele>
        <time>2020-07-04T07:35:25Z</time>
      </trkpt>
      <trkpt lat="45.39943" lon="4.63549">
        <ele>773.79998779297</ele>
        <time>2020-07-04T07:35:46Z</time>
      </trkpt>
      <trkpt lat="45.39931" lon="4.63521">
        <ele>775.40002441406</ele>
        <time>2020-07-04T07:36:00Z</time>
      </trkpt>
      <trkpt lat="45.39922" lon="4.63497">
        <ele>778</ele>
        <time>2020-07-04T07:36:13Z</time>
      </trkpt>
      <trkpt lat="45.39909" lon="4.63479">
        <ele>780.20001220703</ele>
        <time>2020-07-04T07:36:24Z</time>
      </trkpt>
      <trkpt lat="45.39888" lon="4.63464">
        <ele>783</ele>
        <time>2020-07-04T07:36:37Z</time>
      </trkpt>
      <trkpt lat="45.39864" lon="4.63448">
        <ele>785</ele>
        <time>2020-07-04T07:36:52Z</time>
      </trkpt>
      <trkpt lat="45.39843" lon="4.63434">
        <ele>788</ele>
        <time>2020-07-04T07:37:05Z</time>
      </trkpt>
      <trkpt lat="45.39815" lon="4.63403">
        <ele>790</ele>
        <time>2020-07-04T07:37:25Z</time>
      </trkpt>
      <trkpt lat="45.39801" lon="4.63371">
        <ele>792.59997558594</ele>
        <time>2020-07-04T07:37:39Z</time>
      </trkpt>
      <trkpt lat="45.398" lon="4.63366">
        <ele>793.40002441406</ele>
        <time>2020-07-04T07:37:41Z</time>
      </trkpt>
      <trkpt lat="45.39806" lon="4.6332">
        <ele>794.20001220703</ele>
        <time>2020-07-04T07:37:55Z</time>
      </trkpt>
      <trkpt lat="45.39814" lon="4.63271">
        <ele>795.59997558594</ele>
        <time>2020-07-04T07:38:10Z</time>
      </trkpt>
      <trkpt lat="45.39798" lon="4.63245">
        <ele>796.40002441406</ele>
        <time>2020-07-04T07:38:20Z</time>
      </trkpt>
      <trkpt lat="45.39785" lon="4.63235">
        <ele>796.40002441406</ele>
        <time>2020-07-04T07:38:23Z</time>
      </trkpt>
      <trkpt lat="45.39767" lon="4.63215">
        <ele>798.40002441406</ele>
        <time>2020-07-04T07:38:32Z</time>
      </trkpt>
      <trkpt lat="45.39727" lon="4.63187">
        <ele>799</ele>
        <time>2020-07-04T07:38:42Z</time>
      </trkpt>
      <trkpt lat="45.39726" lon="4.63185">
        <ele>799.40002441406</ele>
        <time>2020-07-04T07:38:43Z</time>
      </trkpt>
      <trkpt lat="45.39718" lon="4.63163">
        <ele>801</ele>
        <time>2020-07-04T07:38:55Z</time>
      </trkpt>
      <trkpt lat="45.39705" lon="4.63132">
        <ele>804.20001220703</ele>
        <time>2020-07-04T07:39:09Z</time>
      </trkpt>
      <trkpt lat="45.39697" lon="4.63109">
        <ele>806</ele>
        <time>2020-07-04T07:39:21Z</time>
      </trkpt>
      <trkpt lat="45.3969" lon="4.63079">
        <ele>807.20001220703</ele>
        <time>2020-07-04T07:39:35Z</time>
      </trkpt>
      <trkpt lat="45.39687" lon="4.63071">
        <ele>808.79998779297</ele>
        <time>2020-07-04T07:39:39Z</time>
      </trkpt>
      <trkpt lat="45.39687" lon="4.63041">
        <ele>809.79998779297</ele>
        <time>2020-07-04T07:39:49Z</time>
      </trkpt>
      <trkpt lat="45.39689" lon="4.6303">
        <ele>811</ele>
        <time>2020-07-04T07:39:54Z</time>
      </trkpt>
      <trkpt lat="45.39684" lon="4.63002">
        <ele>811.40002441406</ele>
        <time>2020-07-04T07:40:03Z</time>
      </trkpt>
      <trkpt lat="45.39684" lon="4.63">
        <ele>811.79998779297</ele>
        <time>2020-07-04T07:40:04Z</time>
      </trkpt>
      <trkpt lat="45.39687" lon="4.62989">
        <ele>813</ele>
        <time>2020-07-04T07:40:07Z</time>
      </trkpt>
      <trkpt lat="45.39683" lon="4.62946">
        <ele>814.79998779297</ele>
        <time>2020-07-04T07:40:21Z</time>
      </trkpt>
      <trkpt lat="45.3968" lon="4.62913">
        <ele>817.40002441406</ele>
        <time>2020-07-04T07:40:33Z</time>
      </trkpt>
      <trkpt lat="45.39674" lon="4.62874">
        <ele>819</ele>
        <time>2020-07-04T07:40:47Z</time>
      </trkpt>
      <trkpt lat="45.39682" lon="4.62824">
        <ele>821.59997558594</ele>
        <time>2020-07-04T07:41:03Z</time>
      </trkpt>
      <trkpt lat="45.39686" lon="4.62806">
        <ele>821.59997558594</ele>
        <time>2020-07-04T07:41:11Z</time>
      </trkpt>
      <trkpt lat="45.39691" lon="4.628">
        <ele>823.59997558594</ele>
        <time>2020-07-04T07:41:25Z</time>
      </trkpt>
      <trkpt lat="45.3969" lon="4.62799">
        <ele>823.59997558594</ele>
        <time>2020-07-04T07:42:35Z</time>
      </trkpt>
      <trkpt lat="45.39692" lon="4.628">
        <ele>823.59997558594</ele>
        <time>2020-07-04T07:42:43Z</time>
      </trkpt>
      <trkpt lat="45.39724" lon="4.62841">
        <ele>824</ele>
        <time>2020-07-04T07:43:01Z</time>
      </trkpt>
      <trkpt lat="45.39756" lon="4.62878">
        <ele>827</ele>
        <time>2020-07-04T07:43:15Z</time>
      </trkpt>
      <trkpt lat="45.39792" lon="4.62915">
        <ele>830</ele>
        <time>2020-07-04T07:43:33Z</time>
      </trkpt>
      <trkpt lat="45.39872" lon="4.62959">
        <ele>830</ele>
        <time>2020-07-04T07:43:56Z</time>
      </trkpt>
      <trkpt lat="45.39898" lon="4.62972">
        <ele>830</ele>
        <time>2020-07-04T07:44:02Z</time>
      </trkpt>
      <trkpt lat="45.39922" lon="4.62992">
        <ele>830</ele>
        <time>2020-07-04T07:44:07Z</time>
      </trkpt>
      <trkpt lat="45.3995" lon="4.63015">
        <ele>830</ele>
        <time>2020-07-04T07:44:12Z</time>
      </trkpt>
      <trkpt lat="45.39972" lon="4.63052">
        <ele>827</ele>
        <time>2020-07-04T07:44:17Z</time>
      </trkpt>
      <trkpt lat="45.39979" lon="4.63071">
        <ele>824.79998779297</ele>
        <time>2020-07-04T07:44:20Z</time>
      </trkpt>
      <trkpt lat="45.39994" lon="4.63097">
        <ele>821.20001220703</ele>
        <time>2020-07-04T07:44:24Z</time>
      </trkpt>
      <trkpt lat="45.40003" lon="4.63106">
        <ele>820</ele>
        <time>2020-07-04T07:44:26Z</time>
      </trkpt>
      <trkpt lat="45.40023" lon="4.63124">
        <ele>820</ele>
        <time>2020-07-04T07:44:31Z</time>
      </trkpt>
      <trkpt lat="45.40031" lon="4.63129">
        <ele>820</ele>
        <time>2020-07-04T07:44:33Z</time>
      </trkpt>
      <trkpt lat="45.40073" lon="4.63172">
        <ele>820</ele>
        <time>2020-07-04T07:44:42Z</time>
      </trkpt>
      <trkpt lat="45.40123" lon="4.63214">
        <ele>817</ele>
        <time>2020-07-04T07:44:50Z</time>
      </trkpt>
      <trkpt lat="45.40171" lon="4.63276">
        <ele>814</ele>
        <time>2020-07-04T07:44:58Z</time>
      </trkpt>
      <trkpt lat="45.40247" lon="4.63381">
        <ele>810.79998779297</ele>
        <time>2020-07-04T07:45:12Z</time>
      </trkpt>
      <trkpt lat="45.40281" lon="4.63458">
        <ele>809</ele>
        <time>2020-07-04T07:45:22Z</time>
      </trkpt>
      <trkpt lat="45.40297" lon="4.63483">
        <ele>809</ele>
        <time>2020-07-04T07:45:26Z</time>
      </trkpt>
      <trkpt lat="45.4045" lon="4.63678">
        <ele>780.40002441406</ele>
        <time>2020-07-04T07:47:07Z</time>
      </trkpt>
      <trkpt lat="45.40451" lon="4.63679">
        <ele>782.40002441406</ele>
        <time>2020-07-04T07:47:08Z</time>
      </trkpt>
      <trkpt lat="45.40454" lon="4.63684">
        <ele>785.40002441406</ele>
        <time>2020-07-04T07:47:11Z</time>
      </trkpt>
      <trkpt lat="45.4046" lon="4.63696">
        <ele>788.79998779297</ele>
        <time>2020-07-04T07:47:16Z</time>
      </trkpt>
      <trkpt lat="45.40474" lon="4.63719">
        <ele>792.40002441406</ele>
        <time>2020-07-04T07:47:21Z</time>
      </trkpt>
      <trkpt lat="45.40484" lon="4.63733">
        <ele>795.40002441406</ele>
        <time>2020-07-04T07:47:25Z</time>
      </trkpt>
      <trkpt lat="45.40494" lon="4.63747">
        <ele>798.79998779297</ele>
        <time>2020-07-04T07:47:30Z</time>
      </trkpt>
      <trkpt lat="45.40505" lon="4.63761">
        <ele>801.79998779297</ele>
        <time>2020-07-04T07:47:35Z</time>
      </trkpt>
      <trkpt lat="45.40521" lon="4.6378">
        <ele>805</ele>
        <time>2020-07-04T07:47:42Z</time>
      </trkpt>
      <trkpt lat="45.40534" lon="4.63794">
        <ele>808.40002441406</ele>
        <time>2020-07-04T07:47:48Z</time>
      </trkpt>
      <trkpt lat="45.40548" lon="4.63812">
        <ele>811.40002441406</ele>
        <time>2020-07-04T07:47:55Z</time>
      </trkpt>
      <trkpt lat="45.40563" lon="4.63829">
        <ele>814.40002441406</ele>
        <time>2020-07-04T07:48:03Z</time>
      </trkpt>
      <trkpt lat="45.40575" lon="4.63844">
        <ele>817.79998779297</ele>
        <time>2020-07-04T07:48:11Z</time>
      </trkpt>
      <trkpt lat="45.40593" lon="4.63852">
        <ele>821</ele>
        <time>2020-07-04T07:48:19Z</time>
      </trkpt>
      <trkpt lat="45.40606" lon="4.63863">
        <ele>823.20001220703</ele>
        <time>2020-07-04T07:48:27Z</time>
      </trkpt>
      <trkpt lat="45.40647" lon="4.63887">
        <ele>826.20001220703</ele>
        <time>2020-07-04T07:48:48Z</time>
      </trkpt>
      <trkpt lat="45.40673" lon="4.63898">
        <ele>829</ele>
        <time>2020-07-04T07:49:04Z</time>
      </trkpt>
      <trkpt lat="45.40697" lon="4.63907">
        <ele>831.20001220703</ele>
        <time>2020-07-04T07:49:18Z</time>
      </trkpt>
      <trkpt lat="45.40727" lon="4.63911">
        <ele>834</ele>
        <time>2020-07-04T07:49:33Z</time>
      </trkpt>
      <trkpt lat="45.40734" lon="4.63909">
        <ele>835.20001220703</ele>
        <time>2020-07-04T07:49:36Z</time>
      </trkpt>
      <trkpt lat="45.40756" lon="4.63862">
        <ele>838</ele>
        <time>2020-07-04T07:49:53Z</time>
      </trkpt>
      <trkpt lat="45.40771" lon="4.63812">
        <ele>841.20001220703</ele>
        <time>2020-07-04T07:50:11Z</time>
      </trkpt>
      <trkpt lat="45.40796" lon="4.63775">
        <ele>844</ele>
        <time>2020-07-04T07:50:29Z</time>
      </trkpt>
      <trkpt lat="45.40815" lon="4.63749">
        <ele>847</ele>
        <time>2020-07-04T07:50:42Z</time>
      </trkpt>
      <trkpt lat="45.40826" lon="4.63716">
        <ele>850</ele>
        <time>2020-07-04T07:50:55Z</time>
      </trkpt>
      <trkpt lat="45.40818" lon="4.63656">
        <ele>852.59997558594</ele>
        <time>2020-07-04T07:51:17Z</time>
      </trkpt>
      <trkpt lat="45.40802" lon="4.63609">
        <ele>854.20001220703</ele>
        <time>2020-07-04T07:51:32Z</time>
      </trkpt>
      <trkpt lat="45.40787" lon="4.63546">
        <ele>856.20001220703</ele>
        <time>2020-07-04T07:51:50Z</time>
      </trkpt>
      <trkpt lat="45.40765" lon="4.63479">
        <ele>858.20001220703</ele>
        <time>2020-07-04T07:52:05Z</time>
      </trkpt>
      <trkpt lat="45.40752" lon="4.63392">
        <ele>860.40002441406</ele>
        <time>2020-07-04T07:52:25Z</time>
      </trkpt>
      <trkpt lat="45.40745" lon="4.6334">
        <ele>863.40002441406</ele>
        <time>2020-07-04T07:52:42Z</time>
      </trkpt>
      <trkpt lat="45.40736" lon="4.633">
        <ele>865</ele>
        <time>2020-07-04T07:52:55Z</time>
      </trkpt>
      <trkpt lat="45.40736" lon="4.63293">
        <ele>866</ele>
        <time>2020-07-04T07:52:57Z</time>
      </trkpt>
      <trkpt lat="45.40727" lon="4.63257">
        <ele>867.20001220703</ele>
        <time>2020-07-04T07:53:09Z</time>
      </trkpt>
      <trkpt lat="45.40727" lon="4.63254">
        <ele>867.59997558594</ele>
        <time>2020-07-04T07:53:10Z</time>
      </trkpt>
      <trkpt lat="45.40726" lon="4.63182">
        <ele>869</ele>
        <time>2020-07-04T07:53:30Z</time>
      </trkpt>
      <trkpt lat="45.40723" lon="4.63166">
        <ele>870.20001220703</ele>
        <time>2020-07-04T07:53:34Z</time>
      </trkpt>
      <trkpt lat="45.40727" lon="4.63155">
        <ele>871</ele>
        <time>2020-07-04T07:53:36Z</time>
      </trkpt>
      <trkpt lat="45.40731" lon="4.63093">
        <ele>871</ele>
        <time>2020-07-04T07:53:45Z</time>
      </trkpt>
      <trkpt lat="45.40731" lon="4.63029">
        <ele>869.40002441406</ele>
        <time>2020-07-04T07:53:55Z</time>
      </trkpt>
      <trkpt lat="45.40728" lon="4.63001">
        <ele>869</ele>
        <time>2020-07-04T07:53:59Z</time>
      </trkpt>
      <trkpt lat="45.40729" lon="4.62957">
        <ele>868.59997558594</ele>
        <time>2020-07-04T07:54:05Z</time>
      </trkpt>
      <trkpt lat="45.40734" lon="4.6287">
        <ele>865.59997558594</ele>
        <time>2020-07-04T07:54:15Z</time>
      </trkpt>
      <trkpt lat="45.40734" lon="4.62805">
        <ele>862.40002441406</ele>
        <time>2020-07-04T07:54:21Z</time>
      </trkpt>
      <trkpt lat="45.40734" lon="4.62782">
        <ele>859.79998779297</ele>
        <time>2020-07-04T07:54:25Z</time>
      </trkpt>
      <trkpt lat="45.40739" lon="4.62779">
        <ele>859.79998779297</ele>
        <time>2020-07-04T07:54:35Z</time>
      </trkpt>
      <trkpt lat="45.40756" lon="4.62786">
        <ele>861.40002441406</ele>
        <time>2020-07-04T07:54:46Z</time>
      </trkpt>
      <trkpt lat="45.4076" lon="4.62787">
        <ele>861.79998779297</ele>
        <time>2020-07-04T07:54:47Z</time>
      </trkpt>
      <trkpt lat="45.40782" lon="4.62792">
        <ele>862.20001220703</ele>
        <time>2020-07-04T07:54:58Z</time>
      </trkpt>
      <trkpt lat="45.408" lon="4.62793">
        <ele>865.20001220703</ele>
        <time>2020-07-04T07:55:08Z</time>
      </trkpt>
      <trkpt lat="45.40814" lon="4.62794">
        <ele>868.20001220703</ele>
        <time>2020-07-04T07:55:16Z</time>
      </trkpt>
      <trkpt lat="45.40844" lon="4.62796">
        <ele>870.40002441406</ele>
        <time>2020-07-04T07:55:30Z</time>
      </trkpt>
      <trkpt lat="45.40855" lon="4.62794">
        <ele>873.59997558594</ele>
        <time>2020-07-04T07:55:39Z</time>
      </trkpt>
      <trkpt lat="45.4087" lon="4.62795">
        <ele>875.59997558594</ele>
        <time>2020-07-04T07:55:48Z</time>
      </trkpt>
      <trkpt lat="45.40881" lon="4.62798">
        <ele>879</ele>
        <time>2020-07-04T07:55:59Z</time>
      </trkpt>
      <trkpt lat="45.40884" lon="4.62802">
        <ele>879</ele>
        <time>2020-07-04T07:56:02Z</time>
      </trkpt>
      <trkpt lat="45.40901" lon="4.62811">
        <ele>881</ele>
        <time>2020-07-04T07:56:17Z</time>
      </trkpt>
      <trkpt lat="45.40905" lon="4.62813">
        <ele>882.59997558594</ele>
        <time>2020-07-04T07:56:22Z</time>
      </trkpt>
      <trkpt lat="45.40908" lon="4.62818">
        <ele>883</ele>
        <time>2020-07-04T07:56:24Z</time>
      </trkpt>
      <trkpt lat="45.40956" lon="4.62876">
        <ele>883</ele>
        <time>2020-07-04T07:56:47Z</time>
      </trkpt>
      <trkpt lat="45.40998" lon="4.62917">
        <ele>885</ele>
        <time>2020-07-04T07:57:06Z</time>
      </trkpt>
      <trkpt lat="45.41009" lon="4.62935">
        <ele>886.79998779297</ele>
        <time>2020-07-04T07:57:11Z</time>
      </trkpt>
      <trkpt lat="45.41023" lon="4.62946">
        <ele>887.20001220703</ele>
        <time>2020-07-04T07:57:15Z</time>
      </trkpt>
      <trkpt lat="45.41036" lon="4.62954">
        <ele>887.20001220703</ele>
        <time>2020-07-04T07:57:19Z</time>
      </trkpt>
      <trkpt lat="45.41052" lon="4.62988">
        <ele>885.59997558594</ele>
        <time>2020-07-04T07:57:29Z</time>
      </trkpt>
      <trkpt lat="45.41058" lon="4.63006">
        <ele>883.59997558594</ele>
        <time>2020-07-04T07:57:33Z</time>
      </trkpt>
      <trkpt lat="45.41077" lon="4.63024">
        <ele>881</ele>
        <time>2020-07-04T07:57:38Z</time>
      </trkpt>
      <trkpt lat="45.41093" lon="4.63046">
        <ele>880</ele>
        <time>2020-07-04T07:57:43Z</time>
      </trkpt>
      <trkpt lat="45.41106" lon="4.63065">
        <ele>878.20001220703</ele>
        <time>2020-07-04T07:57:47Z</time>
      </trkpt>
      <trkpt lat="45.41145" lon="4.63094">
        <ele>875.79998779297</ele>
        <time>2020-07-04T07:57:53Z</time>
      </trkpt>
      <trkpt lat="45.41157" lon="4.63104">
        <ele>874.79998779297</ele>
        <time>2020-07-04T07:57:55Z</time>
      </trkpt>
      <trkpt lat="45.41169" lon="4.63114">
        <ele>873.59997558594</ele>
        <time>2020-07-04T07:57:57Z</time>
      </trkpt>
      <trkpt lat="45.41189" lon="4.63139">
        <ele>871</ele>
        <time>2020-07-04T07:58:01Z</time>
      </trkpt>
      <trkpt lat="45.41193" lon="4.63144">
        <ele>869.59997558594</ele>
        <time>2020-07-04T07:58:02Z</time>
      </trkpt>
      <trkpt lat="45.41205" lon="4.63151">
        <ele>866.59997558594</ele>
        <time>2020-07-04T07:58:06Z</time>
      </trkpt>
      <trkpt lat="45.41217" lon="4.63176">
        <ele>864</ele>
        <time>2020-07-04T07:58:12Z</time>
      </trkpt>
      <trkpt lat="45.41222" lon="4.63182">
        <ele>863.40002441406</ele>
        <time>2020-07-04T07:58:13Z</time>
      </trkpt>
      <trkpt lat="45.41248" lon="4.63201">
        <ele>860.79998779297</ele>
        <time>2020-07-04T07:58:18Z</time>
      </trkpt>
      <trkpt lat="45.41253" lon="4.63204">
        <ele>860.20001220703</ele>
        <time>2020-07-04T07:58:19Z</time>
      </trkpt>
      <trkpt lat="45.41289" lon="4.63223">
        <ele>857.59997558594</ele>
        <time>2020-07-04T07:58:25Z</time>
      </trkpt>
      <trkpt lat="45.41307" lon="4.63233">
        <ele>854.59997558594</ele>
        <time>2020-07-04T07:58:29Z</time>
      </trkpt>
      <trkpt lat="45.4135" lon="4.63233">
        <ele>854</ele>
        <time>2020-07-04T07:58:40Z</time>
      </trkpt>
      <trkpt lat="45.41364" lon="4.63234">
        <ele>854</ele>
        <time>2020-07-04T07:58:44Z</time>
      </trkpt>
      <trkpt lat="45.41402" lon="4.63226">
        <ele>856</ele>
        <time>2020-07-04T07:58:57Z</time>
      </trkpt>
      <trkpt lat="45.41412" lon="4.63225">
        <ele>856</ele>
        <time>2020-07-04T07:59:02Z</time>
      </trkpt>
      <trkpt lat="45.41457" lon="4.6322">
        <ele>858.40002441406</ele>
        <time>2020-07-04T07:59:18Z</time>
      </trkpt>
      <trkpt lat="45.41499" lon="4.63226">
        <ele>860</ele>
        <time>2020-07-04T07:59:33Z</time>
      </trkpt>
      <trkpt lat="45.41535" lon="4.63231">
        <ele>860</ele>
        <time>2020-07-04T07:59:43Z</time>
      </trkpt>
      <trkpt lat="45.41575" lon="4.63241">
        <ele>860</ele>
        <time>2020-07-04T07:59:52Z</time>
      </trkpt>
      <trkpt lat="45.41605" lon="4.63252">
        <ele>860</ele>
        <time>2020-07-04T07:59:59Z</time>
      </trkpt>
      <trkpt lat="45.41669" lon="4.6328">
        <ele>860</ele>
        <time>2020-07-04T08:00:15Z</time>
      </trkpt>
      <trkpt lat="45.41682" lon="4.63287">
        <ele>860</ele>
        <time>2020-07-04T08:00:18Z</time>
      </trkpt>
      <trkpt lat="45.41705" lon="4.63303">
        <ele>858.40002441406</ele>
        <time>2020-07-04T08:00:24Z</time>
      </trkpt>
      <trkpt lat="45.41735" lon="4.63323">
        <ele>858</ele>
        <time>2020-07-04T08:00:32Z</time>
      </trkpt>
      <trkpt lat="45.4176" lon="4.63312">
        <ele>858</ele>
        <time>2020-07-04T08:00:41Z</time>
      </trkpt>
      <trkpt lat="45.41785" lon="4.63268">
        <ele>860.79998779297</ele>
        <time>2020-07-04T08:01:00Z</time>
      </trkpt>
      <trkpt lat="45.41788" lon="4.63236">
        <ele>864</ele>
        <time>2020-07-04T08:01:12Z</time>
      </trkpt>
      <trkpt lat="45.41789" lon="4.6322">
        <ele>865.20001220703</ele>
        <time>2020-07-04T08:01:19Z</time>
      </trkpt>
      <trkpt lat="45.41792" lon="4.63185">
        <ele>868.59997558594</ele>
        <time>2020-07-04T08:01:35Z</time>
      </trkpt>
      <trkpt lat="45.41787" lon="4.63157">
        <ele>869.79998779297</ele>
        <time>2020-07-04T08:01:50Z</time>
      </trkpt>
      <trkpt lat="45.41788" lon="4.63131">
        <ele>872.59997558594</ele>
        <time>2020-07-04T08:02:04Z</time>
      </trkpt>
      <trkpt lat="45.41792" lon="4.63062">
        <ele>875.20001220703</ele>
        <time>2020-07-04T08:02:34Z</time>
      </trkpt>
      <trkpt lat="45.4179" lon="4.63009">
        <ele>878.40002441406</ele>
        <time>2020-07-04T08:02:54Z</time>
      </trkpt>
      <trkpt lat="45.41796" lon="4.62957">
        <ele>881.40002441406</ele>
        <time>2020-07-04T08:03:13Z</time>
      </trkpt>
      <trkpt lat="45.41795" lon="4.62884">
        <ele>883.40002441406</ele>
        <time>2020-07-04T08:03:42Z</time>
      </trkpt>
      <trkpt lat="45.41795" lon="4.62875">
        <ele>884.20001220703</ele>
        <time>2020-07-04T08:03:45Z</time>
      </trkpt>
      <trkpt lat="45.41793" lon="4.62844">
        <ele>887.40002441406</ele>
        <time>2020-07-04T08:03:56Z</time>
      </trkpt>
      <trkpt lat="45.41792" lon="4.62842">
        <ele>887.79998779297</ele>
        <time>2020-07-04T08:03:57Z</time>
      </trkpt>
      <trkpt lat="45.41784" lon="4.62813">
        <ele>890.79998779297</ele>
        <time>2020-07-04T08:04:12Z</time>
      </trkpt>
      <trkpt lat="45.41779" lon="4.62763">
        <ele>892</ele>
        <time>2020-07-04T08:04:29Z</time>
      </trkpt>
      <trkpt lat="45.41774" lon="4.6272">
        <ele>893.20001220703</ele>
        <time>2020-07-04T08:04:43Z</time>
      </trkpt>
      <trkpt lat="45.41768" lon="4.62626">
        <ele>894.40002441406</ele>
        <time>2020-07-04T08:05:09Z</time>
      </trkpt>
      <trkpt lat="45.41766" lon="4.62544">
        <ele>896.20001220703</ele>
        <time>2020-07-04T08:05:31Z</time>
      </trkpt>
      <trkpt lat="45.41789" lon="4.62508">
        <ele>898.20001220703</ele>
        <time>2020-07-04T08:05:43Z</time>
      </trkpt>
      <trkpt lat="45.41814" lon="4.62459">
        <ele>900.20001220703</ele>
        <time>2020-07-04T08:05:55Z</time>
      </trkpt>
      <trkpt lat="45.41829" lon="4.62447">
        <ele>900.20001220703</ele>
        <time>2020-07-04T08:06:01Z</time>
      </trkpt>
      <trkpt lat="45.41862" lon="4.62422">
        <ele>900.20001220703</ele>
        <time>2020-07-04T08:06:12Z</time>
      </trkpt>
      <trkpt lat="45.41899" lon="4.62416">
        <ele>900.20001220703</ele>
        <time>2020-07-04T08:06:19Z</time>
      </trkpt>
      <trkpt lat="45.41904" lon="4.62418">
        <ele>900.20001220703</ele>
        <time>2020-07-04T08:06:20Z</time>
      </trkpt>
      <trkpt lat="45.41931" lon="4.62435">
        <ele>898</ele>
        <time>2020-07-04T08:06:26Z</time>
      </trkpt>
      <trkpt lat="45.41962" lon="4.62451">
        <ele>898</ele>
        <time>2020-07-04T08:06:32Z</time>
      </trkpt>
      <trkpt lat="45.41976" lon="4.62463">
        <ele>897.59997558594</ele>
        <time>2020-07-04T08:06:35Z</time>
      </trkpt>
      <trkpt lat="45.42007" lon="4.62453">
        <ele>894.79998779297</ele>
        <time>2020-07-04T08:06:41Z</time>
      </trkpt>
      <trkpt lat="45.42039" lon="4.62426">
        <ele>893.20001220703</ele>
        <time>2020-07-04T08:06:51Z</time>
      </trkpt>
      <trkpt lat="45.42052" lon="4.62408">
        <ele>893.20001220703</ele>
        <time>2020-07-04T08:06:58Z</time>
      </trkpt>
      <trkpt lat="45.42075" lon="4.62376">
        <ele>896.20001220703</ele>
        <time>2020-07-04T08:07:13Z</time>
      </trkpt>
      <trkpt lat="45.42096" lon="4.62344">
        <ele>899.20001220703</ele>
        <time>2020-07-04T08:07:24Z</time>
      </trkpt>
      <trkpt lat="45.42138" lon="4.62283">
        <ele>902.20001220703</ele>
        <time>2020-07-04T08:07:45Z</time>
      </trkpt>
      <trkpt lat="45.42155" lon="4.62249">
        <ele>905.20001220703</ele>
        <time>2020-07-04T08:07:56Z</time>
      </trkpt>
      <trkpt lat="45.42173" lon="4.62214">
        <ele>908.20001220703</ele>
        <time>2020-07-04T08:08:09Z</time>
      </trkpt>
      <trkpt lat="45.42179" lon="4.62197">
        <ele>909.79998779297</ele>
        <time>2020-07-04T08:08:16Z</time>
      </trkpt>
      <trkpt lat="45.42198" lon="4.62167">
        <ele>910.79998779297</ele>
        <time>2020-07-04T08:08:25Z</time>
      </trkpt>
      <trkpt lat="45.42201" lon="4.62161">
        <ele>911.59997558594</ele>
        <time>2020-07-04T08:08:28Z</time>
      </trkpt>
      <trkpt lat="45.42213" lon="4.62138">
        <ele>912.40002441406</ele>
        <time>2020-07-04T08:08:35Z</time>
      </trkpt>
      <trkpt lat="45.42235" lon="4.62102">
        <ele>915.59997558594</ele>
        <time>2020-07-04T08:08:49Z</time>
      </trkpt>
      <trkpt lat="45.42253" lon="4.6206">
        <ele>918.59997558594</ele>
        <time>2020-07-04T08:09:03Z</time>
      </trkpt>
      <trkpt lat="45.42289" lon="4.62017">
        <ele>921.59997558594</ele>
        <time>2020-07-04T08:09:23Z</time>
      </trkpt>
      <trkpt lat="45.42318" lon="4.61984">
        <ele>925</ele>
        <time>2020-07-04T08:09:37Z</time>
      </trkpt>
      <trkpt lat="45.42351" lon="4.61946">
        <ele>928.20001220703</ele>
        <time>2020-07-04T08:09:54Z</time>
      </trkpt>
      <trkpt lat="45.42388" lon="4.61898">
        <ele>931.40002441406</ele>
        <time>2020-07-04T08:10:13Z</time>
      </trkpt>
      <trkpt lat="45.42411" lon="4.61873">
        <ele>934.40002441406</ele>
        <time>2020-07-04T08:10:25Z</time>
      </trkpt>
      <trkpt lat="45.4244" lon="4.61842">
        <ele>937.40002441406</ele>
        <time>2020-07-04T08:10:40Z</time>
      </trkpt>
      <trkpt lat="45.42472" lon="4.6181">
        <ele>940</ele>
        <time>2020-07-04T08:10:58Z</time>
      </trkpt>
      <trkpt lat="45.42496" lon="4.61819">
        <ele>941.59997558594</ele>
        <time>2020-07-04T08:11:10Z</time>
      </trkpt>
      <trkpt lat="45.42516" lon="4.61801">
        <ele>942</ele>
        <time>2020-07-04T08:11:28Z</time>
      </trkpt>
      <trkpt lat="45.42516" lon="4.618">
        <ele>945.20001220703</ele>
        <time>2020-07-04T08:11:33Z</time>
      </trkpt>
      <trkpt lat="45.42519" lon="4.61796">
        <ele>945.79998779297</ele>
        <time>2020-07-04T08:11:42Z</time>
      </trkpt>
      <trkpt lat="45.42533" lon="4.61754">
        <ele>945.79998779297</ele>
        <time>2020-07-04T08:11:58Z</time>
      </trkpt>
      <trkpt lat="45.4256" lon="4.61722">
        <ele>947.79998779297</ele>
        <time>2020-07-04T08:12:14Z</time>
      </trkpt>
      <trkpt lat="45.42607" lon="4.6172">
        <ele>949.79998779297</ele>
        <time>2020-07-04T08:12:34Z</time>
      </trkpt>
      <trkpt lat="45.42662" lon="4.61714">
        <ele>952.40002441406</ele>
        <time>2020-07-04T08:12:54Z</time>
      </trkpt>
      <trkpt lat="45.42691" lon="4.61704">
        <ele>954.20001220703</ele>
        <time>2020-07-04T08:13:06Z</time>
      </trkpt>
      <trkpt lat="45.4273" lon="4.61694">
        <ele>957</ele>
        <time>2020-07-04T08:13:21Z</time>
      </trkpt>
      <trkpt lat="45.4276" lon="4.61685">
        <ele>959.79998779297</ele>
        <time>2020-07-04T08:13:32Z</time>
      </trkpt>
      <trkpt lat="45.42833" lon="4.61657">
        <ele>962.40002441406</ele>
        <time>2020-07-04T08:13:59Z</time>
      </trkpt>
      <trkpt lat="45.42893" lon="4.61614">
        <ele>964.59997558594</ele>
        <time>2020-07-04T08:14:23Z</time>
      </trkpt>
      <trkpt lat="45.42934" lon="4.61545">
        <ele>967.20001220703</ele>
        <time>2020-07-04T08:14:44Z</time>
      </trkpt>
      <trkpt lat="45.42949" lon="4.61514">
        <ele>969.79998779297</ele>
        <time>2020-07-04T08:14:56Z</time>
      </trkpt>
      <trkpt lat="45.42986" lon="4.61464">
        <ele>971.40002441406</ele>
        <time>2020-07-04T08:15:15Z</time>
      </trkpt>
      <trkpt lat="45.43015" lon="4.61438">
        <ele>973</ele>
        <time>2020-07-04T08:15:27Z</time>
      </trkpt>
      <trkpt lat="45.43053" lon="4.61408">
        <ele>973</ele>
        <time>2020-07-04T08:15:38Z</time>
      </trkpt>
      <trkpt lat="45.43098" lon="4.6136">
        <ele>975.59997558594</ele>
        <time>2020-07-04T08:15:56Z</time>
      </trkpt>
      <trkpt lat="45.43116" lon="4.6135">
        <ele>977.20001220703</ele>
        <time>2020-07-04T08:16:03Z</time>
      </trkpt>
      <trkpt lat="45.43172" lon="4.61347">
        <ele>977.20001220703</ele>
        <time>2020-07-04T08:16:14Z</time>
      </trkpt>
      <trkpt lat="45.43201" lon="4.61381">
        <ele>974</ele>
        <time>2020-07-04T08:16:22Z</time>
      </trkpt>
      <trkpt lat="45.43204" lon="4.61388">
        <ele>973.40002441406</ele>
        <time>2020-07-04T08:16:23Z</time>
      </trkpt>
      <trkpt lat="45.43215" lon="4.61426">
        <ele>970</ele>
        <time>2020-07-04T08:16:28Z</time>
      </trkpt>
      <trkpt lat="45.43227" lon="4.6146">
        <ele>967</ele>
        <time>2020-07-04T08:16:32Z</time>
      </trkpt>
      <trkpt lat="45.43236" lon="4.61487">
        <ele>963.79998779297</ele>
        <time>2020-07-04T08:16:36Z</time>
      </trkpt>
      <trkpt lat="45.43258" lon="4.61522">
        <ele>960.59997558594</ele>
        <time>2020-07-04T08:16:42Z</time>
      </trkpt>
      <trkpt lat="45.43276" lon="4.61561">
        <ele>957.40002441406</ele>
        <time>2020-07-04T08:16:47Z</time>
      </trkpt>
      <trkpt lat="45.43298" lon="4.61598">
        <ele>954.20001220703</ele>
        <time>2020-07-04T08:16:52Z</time>
      </trkpt>
      <trkpt lat="45.43302" lon="4.61606">
        <ele>953.40002441406</ele>
        <time>2020-07-04T08:16:53Z</time>
      </trkpt>
      <trkpt lat="45.43318" lon="4.61641">
        <ele>950</ele>
        <time>2020-07-04T08:16:57Z</time>
      </trkpt>
      <trkpt lat="45.43331" lon="4.61678">
        <ele>946.79998779297</ele>
        <time>2020-07-04T08:17:01Z</time>
      </trkpt>
      <trkpt lat="45.4334" lon="4.61701">
        <ele>944.59997558594</ele>
        <time>2020-07-04T08:17:04Z</time>
      </trkpt>
      <trkpt lat="45.43356" lon="4.61756">
        <ele>941.59997558594</ele>
        <time>2020-07-04T08:17:09Z</time>
      </trkpt>
      <trkpt lat="45.43376" lon="4.61828">
        <ele>938.40002441406</ele>
        <time>2020-07-04T08:17:15Z</time>
      </trkpt>
      <trkpt lat="45.43385" lon="4.61847">
        <ele>937.20001220703</ele>
        <time>2020-07-04T08:17:17Z</time>
      </trkpt>
      <trkpt lat="45.43393" lon="4.61872">
        <ele>934.59997558594</ele>
        <time>2020-07-04T08:17:20Z</time>
      </trkpt>
      <trkpt lat="45.43404" lon="4.61903">
        <ele>931.59997558594</ele>
        <time>2020-07-04T08:17:24Z</time>
      </trkpt>
      <trkpt lat="45.43412" lon="4.61928">
        <ele>928.40002441406</ele>
        <time>2020-07-04T08:17:29Z</time>
      </trkpt>
      <trkpt lat="45.43416" lon="4.61944">
        <ele>926.59997558594</ele>
        <time>2020-07-04T08:17:32Z</time>
      </trkpt>
      <trkpt lat="45.43431" lon="4.61975">
        <ele>923.59997558594</ele>
        <time>2020-07-04T08:17:39Z</time>
      </trkpt>
      <trkpt lat="45.43442" lon="4.62">
        <ele>920.20001220703</ele>
        <time>2020-07-04T08:17:45Z</time>
      </trkpt>
      <trkpt lat="45.4346" lon="4.62046">
        <ele>917</ele>
        <time>2020-07-04T08:17:53Z</time>
      </trkpt>
      <trkpt lat="45.43465" lon="4.62058">
        <ele>915.79998779297</ele>
        <time>2020-07-04T08:17:55Z</time>
      </trkpt>
      <trkpt lat="45.43478" lon="4.62087">
        <ele>912.79998779297</ele>
        <time>2020-07-04T08:18:01Z</time>
      </trkpt>
      <trkpt lat="45.43482" lon="4.62097">
        <ele>911.79998779297</ele>
        <time>2020-07-04T08:18:03Z</time>
      </trkpt>
      <trkpt lat="45.43488" lon="4.62127">
        <ele>909.40002441406</ele>
        <time>2020-07-04T08:18:08Z</time>
      </trkpt>
      <trkpt lat="45.43488" lon="4.62133">
        <ele>908.79998779297</ele>
        <time>2020-07-04T08:18:09Z</time>
      </trkpt>
      <trkpt lat="45.43491" lon="4.62156">
        <ele>905.59997558594</ele>
        <time>2020-07-04T08:18:13Z</time>
      </trkpt>
      <trkpt lat="45.43496" lon="4.62178">
        <ele>902.79998779297</ele>
        <time>2020-07-04T08:18:17Z</time>
      </trkpt>
      <trkpt lat="45.43504" lon="4.62207">
        <ele>899.40002441406</ele>
        <time>2020-07-04T08:18:23Z</time>
      </trkpt>
      <trkpt lat="45.43508" lon="4.62249">
        <ele>896.40002441406</ele>
        <time>2020-07-04T08:18:31Z</time>
      </trkpt>
      <trkpt lat="45.4351" lon="4.62281">
        <ele>894.40002441406</ele>
        <time>2020-07-04T08:18:35Z</time>
      </trkpt>
      <trkpt lat="45.43519" lon="4.62327">
        <ele>891.40002441406</ele>
        <time>2020-07-04T08:18:40Z</time>
      </trkpt>
      <trkpt lat="45.43527" lon="4.62351">
        <ele>888.40002441406</ele>
        <time>2020-07-04T08:18:45Z</time>
      </trkpt>
      <trkpt lat="45.4353" lon="4.62361">
        <ele>887.59997558594</ele>
        <time>2020-07-04T08:18:47Z</time>
      </trkpt>
      <trkpt lat="45.43545" lon="4.62396">
        <ele>885.59997558594</ele>
        <time>2020-07-04T08:18:53Z</time>
      </trkpt>
      <trkpt lat="45.43555" lon="4.62414">
        <ele>884.20001220703</ele>
        <time>2020-07-04T08:18:56Z</time>
      </trkpt>
      <trkpt lat="45.4357" lon="4.62454">
        <ele>881.79998779297</ele>
        <time>2020-07-04T08:19:02Z</time>
      </trkpt>
      <trkpt lat="45.43586" lon="4.62481">
        <ele>879.79998779297</ele>
        <time>2020-07-04T08:19:07Z</time>
      </trkpt>
      <trkpt lat="45.43608" lon="4.62506">
        <ele>878.40002441406</ele>
        <time>2020-07-04T08:19:12Z</time>
      </trkpt>
      <trkpt lat="45.43649" lon="4.62542">
        <ele>875.40002441406</ele>
        <time>2020-07-04T08:19:19Z</time>
      </trkpt>
      <trkpt lat="45.43694" lon="4.62577">
        <ele>870.79998779297</ele>
        <time>2020-07-04T08:19:24Z</time>
      </trkpt>
      <trkpt lat="45.43705" lon="4.62587">
        <ele>870</ele>
        <time>2020-07-04T08:19:25Z</time>
      </trkpt>
      <trkpt lat="45.43733" lon="4.62623">
        <ele>867</ele>
        <time>2020-07-04T08:19:28Z</time>
      </trkpt>
      <trkpt lat="45.43782" lon="4.62698">
        <ele>865</ele>
        <time>2020-07-04T08:19:36Z</time>
      </trkpt>
      <trkpt lat="45.43804" lon="4.62731">
        <ele>865</ele>
        <time>2020-07-04T08:19:41Z</time>
      </trkpt>
      <trkpt lat="45.43828" lon="4.62762">
        <ele>865</ele>
        <time>2020-07-04T08:19:48Z</time>
      </trkpt>
      <trkpt lat="45.43888" lon="4.62834">
        <ele>863.20001220703</ele>
        <time>2020-07-04T08:20:01Z</time>
      </trkpt>
      <trkpt lat="45.43911" lon="4.62869">
        <ele>859</ele>
        <time>2020-07-04T08:20:05Z</time>
      </trkpt>
      <trkpt lat="45.43935" lon="4.62904">
        <ele>854.59997558594</ele>
        <time>2020-07-04T08:20:08Z</time>
      </trkpt>
      <trkpt lat="45.43953" lon="4.62933">
        <ele>851.59997558594</ele>
        <time>2020-07-04T08:20:10Z</time>
      </trkpt>
      <trkpt lat="45.43974" lon="4.62961">
        <ele>848.59997558594</ele>
        <time>2020-07-04T08:20:12Z</time>
      </trkpt>
      <trkpt lat="45.43997" lon="4.6299">
        <ele>844.79998779297</ele>
        <time>2020-07-04T08:20:14Z</time>
      </trkpt>
      <trkpt lat="45.44035" lon="4.63034">
        <ele>841</ele>
        <time>2020-07-04T08:20:17Z</time>
      </trkpt>
      <trkpt lat="45.44063" lon="4.63068">
        <ele>837.40002441406</ele>
        <time>2020-07-04T08:20:20Z</time>
      </trkpt>
      <trkpt lat="45.44079" lon="4.6309">
        <ele>835.59997558594</ele>
        <time>2020-07-04T08:20:22Z</time>
      </trkpt>
      <trkpt lat="45.44091" lon="4.63111">
        <ele>833.79998779297</ele>
        <time>2020-07-04T08:20:24Z</time>
      </trkpt>
      <trkpt lat="45.44104" lon="4.63141">
        <ele>832.79998779297</ele>
        <time>2020-07-04T08:20:27Z</time>
      </trkpt>
      <trkpt lat="45.44107" lon="4.63149">
        <ele>832.79998779297</ele>
        <time>2020-07-04T08:20:28Z</time>
      </trkpt>
      <trkpt lat="45.44123" lon="4.63196">
        <ele>832.79998779297</ele>
        <time>2020-07-04T08:20:35Z</time>
      </trkpt>
      <trkpt lat="45.44172" lon="4.63244">
        <ele>832.79998779297</ele>
        <time>2020-07-04T08:20:47Z</time>
      </trkpt>
      <trkpt lat="45.44184" lon="4.63247">
        <ele>832.79998779297</ele>
        <time>2020-07-04T08:20:49Z</time>
      </trkpt>
      <trkpt lat="45.44209" lon="4.63253">
        <ele>832.79998779297</ele>
        <time>2020-07-04T08:20:54Z</time>
      </trkpt>
      <trkpt lat="45.44245" lon="4.63244">
        <ele>833.59997558594</ele>
        <time>2020-07-04T08:21:03Z</time>
      </trkpt>
      <trkpt lat="45.44247" lon="4.63242">
        <ele>834.20001220703</ele>
        <time>2020-07-04T08:21:04Z</time>
      </trkpt>
      <trkpt lat="45.44282" lon="4.63231">
        <ele>837</ele>
        <time>2020-07-04T08:21:16Z</time>
      </trkpt>
      <trkpt lat="45.4431" lon="4.63241">
        <ele>837</ele>
        <time>2020-07-04T08:21:23Z</time>
      </trkpt>
      <trkpt lat="45.4437" lon="4.63236">
        <ele>837</ele>
        <time>2020-07-04T08:21:34Z</time>
      </trkpt>
      <trkpt lat="45.44428" lon="4.63225">
        <ele>833.59997558594</ele>
        <time>2020-07-04T08:21:41Z</time>
      </trkpt>
      <trkpt lat="45.44465" lon="4.6323">
        <ele>830.40002441406</ele>
        <time>2020-07-04T08:21:45Z</time>
      </trkpt>
      <trkpt lat="45.44481" lon="4.63232">
        <ele>827.40002441406</ele>
        <time>2020-07-04T08:21:48Z</time>
      </trkpt>
      <trkpt lat="45.44485" lon="4.63244">
        <ele>824.40002441406</ele>
        <time>2020-07-04T08:21:51Z</time>
      </trkpt>
      <trkpt lat="45.44485" lon="4.63255">
        <ele>823.40002441406</ele>
        <time>2020-07-04T08:21:53Z</time>
      </trkpt>
      <trkpt lat="45.44483" lon="4.63288">
        <ele>821.20001220703</ele>
        <time>2020-07-04T08:21:58Z</time>
      </trkpt>
      <trkpt lat="45.44492" lon="4.63319">
        <ele>820.20001220703</ele>
        <time>2020-07-04T08:22:02Z</time>
      </trkpt>
      <trkpt lat="45.44499" lon="4.63334">
        <ele>819.20001220703</ele>
        <time>2020-07-04T08:22:04Z</time>
      </trkpt>
      <trkpt lat="45.445" lon="4.63364">
        <ele>816</ele>
        <time>2020-07-04T08:22:09Z</time>
      </trkpt>
      <trkpt lat="45.44499" lon="4.63373">
        <ele>814.79998779297</ele>
        <time>2020-07-04T08:22:11Z</time>
      </trkpt>
      <trkpt lat="45.445" lon="4.63392">
        <ele>812.40002441406</ele>
        <time>2020-07-04T08:22:23Z</time>
      </trkpt>
      <trkpt lat="45.44502" lon="4.63392">
        <ele>812.40002441406</ele>
        <time>2020-07-04T08:23:08Z</time>
      </trkpt>
      <trkpt lat="45.44501" lon="4.63395">
        <ele>812.40002441406</ele>
        <time>2020-07-04T08:25:02Z</time>
      </trkpt>
      <trkpt lat="45.44506" lon="4.63442">
        <ele>810.20001220703</ele>
        <time>2020-07-04T08:25:11Z</time>
      </trkpt>
      <trkpt lat="45.44507" lon="4.63456">
        <ele>809.79998779297</ele>
        <time>2020-07-04T08:25:13Z</time>
      </trkpt>
      <trkpt lat="45.44508" lon="4.63476">
        <ele>808.40002441406</ele>
        <time>2020-07-04T08:25:16Z</time>
      </trkpt>
      <trkpt lat="45.44523" lon="4.6354">
        <ele>805.79998779297</ele>
        <time>2020-07-04T08:25:27Z</time>
      </trkpt>
      <trkpt lat="45.4453" lon="4.63562">
        <ele>805.40002441406</ele>
        <time>2020-07-04T08:25:30Z</time>
      </trkpt>
      <trkpt lat="45.44541" lon="4.63619">
        <ele>802.20001220703</ele>
        <time>2020-07-04T08:25:38Z</time>
      </trkpt>
      <trkpt lat="45.44542" lon="4.63624">
        <ele>801.79998779297</ele>
        <time>2020-07-04T08:25:39Z</time>
      </trkpt>
      <trkpt lat="45.44544" lon="4.63633">
        <ele>801.20001220703</ele>
        <time>2020-07-04T08:25:41Z</time>
      </trkpt>
      <trkpt lat="45.44547" lon="4.63686">
        <ele>799.40002441406</ele>
        <time>2020-07-04T08:25:49Z</time>
      </trkpt>
      <trkpt lat="45.44552" lon="4.63724">
        <ele>798</ele>
        <time>2020-07-04T08:25:53Z</time>
      </trkpt>
      <trkpt lat="45.4457" lon="4.63803">
        <ele>794.59997558594</ele>
        <time>2020-07-04T08:26:00Z</time>
      </trkpt>
      <trkpt lat="45.44582" lon="4.6388">
        <ele>791.59997558594</ele>
        <time>2020-07-04T08:26:07Z</time>
      </trkpt>
      <trkpt lat="45.44587" lon="4.63937">
        <ele>788</ele>
        <time>2020-07-04T08:26:13Z</time>
      </trkpt>
      <trkpt lat="45.4459" lon="4.63966">
        <ele>785.79998779297</ele>
        <time>2020-07-04T08:26:16Z</time>
      </trkpt>
      <trkpt lat="45.44593" lon="4.64006">
        <ele>782.40002441406</ele>
        <time>2020-07-04T08:26:21Z</time>
      </trkpt>
      <trkpt lat="45.44593" lon="4.64016">
        <ele>781.79998779297</ele>
        <time>2020-07-04T08:26:22Z</time>
      </trkpt>
      <trkpt lat="45.44592" lon="4.64055">
        <ele>778.20001220703</ele>
        <time>2020-07-04T08:26:27Z</time>
      </trkpt>
      <trkpt lat="45.44591" lon="4.64083">
        <ele>774.59997558594</ele>
        <time>2020-07-04T08:26:31Z</time>
      </trkpt>
      <trkpt lat="45.44592" lon="4.64113">
        <ele>771.20001220703</ele>
        <time>2020-07-04T08:26:35Z</time>
      </trkpt>
      <trkpt lat="45.44592" lon="4.64152">
        <ele>768.20001220703</ele>
        <time>2020-07-04T08:26:39Z</time>
      </trkpt>
      <trkpt lat="45.44592" lon="4.64187">
        <ele>765</ele>
        <time>2020-07-04T08:26:43Z</time>
      </trkpt>
      <trkpt lat="45.44591" lon="4.64217">
        <ele>761.40002441406</ele>
        <time>2020-07-04T08:26:47Z</time>
      </trkpt>
      <trkpt lat="45.44591" lon="4.64224">
        <ele>760.59997558594</ele>
        <time>2020-07-04T08:26:48Z</time>
      </trkpt>
      <trkpt lat="45.4459" lon="4.64249">
        <ele>757.40002441406</ele>
        <time>2020-07-04T08:26:51Z</time>
      </trkpt>
      <trkpt lat="45.44591" lon="4.64278">
        <ele>755.40002441406</ele>
        <time>2020-07-04T08:26:54Z</time>
      </trkpt>
      <trkpt lat="45.44588" lon="4.64349">
        <ele>752</ele>
        <time>2020-07-04T08:27:00Z</time>
      </trkpt>
      <trkpt lat="45.44586" lon="4.64414">
        <ele>749</ele>
        <time>2020-07-04T08:27:05Z</time>
      </trkpt>
      <trkpt lat="45.44584" lon="4.64479">
        <ele>745.59997558594</ele>
        <time>2020-07-04T08:27:10Z</time>
      </trkpt>
      <trkpt lat="45.44581" lon="4.64534">
        <ele>741.20001220703</ele>
        <time>2020-07-04T08:27:15Z</time>
      </trkpt>
      <trkpt lat="45.4458" lon="4.64576">
        <ele>738</ele>
        <time>2020-07-04T08:27:19Z</time>
      </trkpt>
      <trkpt lat="45.44579" lon="4.64618">
        <ele>735</ele>
        <time>2020-07-04T08:27:23Z</time>
      </trkpt>
      <trkpt lat="45.44584" lon="4.64664">
        <ele>731.79998779297</ele>
        <time>2020-07-04T08:27:29Z</time>
      </trkpt>
      <trkpt lat="45.44584" lon="4.64673">
        <ele>730.59997558594</ele>
        <time>2020-07-04T08:27:32Z</time>
      </trkpt>
      <trkpt lat="45.44574" lon="4.64662">
        <ele>730.20001220703</ele>
        <time>2020-07-04T08:27:39Z</time>
      </trkpt>
      <trkpt lat="45.44579" lon="4.64687">
        <ele>728</ele>
        <time>2020-07-04T08:27:44Z</time>
      </trkpt>
      <trkpt lat="45.44581" lon="4.64703">
        <ele>728</ele>
        <time>2020-07-04T08:27:46Z</time>
      </trkpt>
      <trkpt lat="45.44577" lon="4.64751">
        <ele>724.40002441406</ele>
        <time>2020-07-04T08:27:52Z</time>
      </trkpt>
      <trkpt lat="45.44569" lon="4.6477">
        <ele>722.59997558594</ele>
        <time>2020-07-04T08:27:55Z</time>
      </trkpt>
      <trkpt lat="45.44554" lon="4.64799">
        <ele>719.59997558594</ele>
        <time>2020-07-04T08:27:59Z</time>
      </trkpt>
      <trkpt lat="45.44551" lon="4.64807">
        <ele>719</ele>
        <time>2020-07-04T08:28:00Z</time>
      </trkpt>
      <trkpt lat="45.44543" lon="4.64833">
        <ele>716.79998779297</ele>
        <time>2020-07-04T08:28:03Z</time>
      </trkpt>
      <trkpt lat="45.44527" lon="4.64859">
        <ele>713.59997558594</ele>
        <time>2020-07-04T08:28:06Z</time>
      </trkpt>
      <trkpt lat="45.44522" lon="4.64868">
        <ele>712.79998779297</ele>
        <time>2020-07-04T08:28:07Z</time>
      </trkpt>
      <trkpt lat="45.44511" lon="4.64891">
        <ele>711</ele>
        <time>2020-07-04T08:28:09Z</time>
      </trkpt>
      <trkpt lat="45.44479" lon="4.6494">
        <ele>707.79998779297</ele>
        <time>2020-07-04T08:28:14Z</time>
      </trkpt>
      <trkpt lat="45.44424" lon="4.64994">
        <ele>704.59997558594</ele>
        <time>2020-07-04T08:28:22Z</time>
      </trkpt>
      <trkpt lat="45.44391" lon="4.65036">
        <ele>701.79998779297</ele>
        <time>2020-07-04T08:28:29Z</time>
      </trkpt>
      <trkpt lat="45.44382" lon="4.6506">
        <ele>700.79998779297</ele>
        <time>2020-07-04T08:28:32Z</time>
      </trkpt>
      <trkpt lat="45.44376" lon="4.65077">
        <ele>700.40002441406</ele>
        <time>2020-07-04T08:28:34Z</time>
      </trkpt>
      <trkpt lat="45.4435" lon="4.65124">
        <ele>698</ele>
        <time>2020-07-04T08:28:40Z</time>
      </trkpt>
      <trkpt lat="45.44328" lon="4.65161">
        <ele>695</ele>
        <time>2020-07-04T08:28:45Z</time>
      </trkpt>
      <trkpt lat="45.4431" lon="4.6519">
        <ele>691.79998779297</ele>
        <time>2020-07-04T08:28:49Z</time>
      </trkpt>
      <trkpt lat="45.44292" lon="4.65219">
        <ele>688.20001220703</ele>
        <time>2020-07-04T08:28:53Z</time>
      </trkpt>
      <trkpt lat="45.44288" lon="4.65226">
        <ele>686.20001220703</ele>
        <time>2020-07-04T08:28:54Z</time>
      </trkpt>
      <trkpt lat="45.44278" lon="4.65257">
        <ele>682.79998779297</ele>
        <time>2020-07-04T08:28:58Z</time>
      </trkpt>
      <trkpt lat="45.44275" lon="4.65265">
        <ele>682</ele>
        <time>2020-07-04T08:28:59Z</time>
      </trkpt>
      <trkpt lat="45.44259" lon="4.65297">
        <ele>678.79998779297</ele>
        <time>2020-07-04T08:29:03Z</time>
      </trkpt>
      <trkpt lat="45.44252" lon="4.65309">
        <ele>677.40002441406</ele>
        <time>2020-07-04T08:29:05Z</time>
      </trkpt>
      <trkpt lat="45.44239" lon="4.65343">
        <ele>673.79998779297</ele>
        <time>2020-07-04T08:29:10Z</time>
      </trkpt>
      <trkpt lat="45.4423" lon="4.65372">
        <ele>670.59997558594</ele>
        <time>2020-07-04T08:29:14Z</time>
      </trkpt>
      <trkpt lat="45.44225" lon="4.65386">
        <ele>669.20001220703</ele>
        <time>2020-07-04T08:29:16Z</time>
      </trkpt>
      <trkpt lat="45.44214" lon="4.65426">
        <ele>665.59997558594</ele>
        <time>2020-07-04T08:29:20Z</time>
      </trkpt>
      <trkpt lat="45.44206" lon="4.65467">
        <ele>662.79998779297</ele>
        <time>2020-07-04T08:29:24Z</time>
      </trkpt>
      <trkpt lat="45.44205" lon="4.65506">
        <ele>660.20001220703</ele>
        <time>2020-07-04T08:29:28Z</time>
      </trkpt>
      <trkpt lat="45.44204" lon="4.65529">
        <ele>658.20001220703</ele>
        <time>2020-07-04T08:29:31Z</time>
      </trkpt>
      <trkpt lat="45.44197" lon="4.65557">
        <ele>655.40002441406</ele>
        <time>2020-07-04T08:29:35Z</time>
      </trkpt>
      <trkpt lat="45.44195" lon="4.6557">
        <ele>654</ele>
        <time>2020-07-04T08:29:37Z</time>
      </trkpt>
      <trkpt lat="45.44194" lon="4.65598">
        <ele>650.40002441406</ele>
        <time>2020-07-04T08:29:42Z</time>
      </trkpt>
      <trkpt lat="45.44192" lon="4.65621">
        <ele>647.20001220703</ele>
        <time>2020-07-04T08:29:45Z</time>
      </trkpt>
      <trkpt lat="45.44191" lon="4.6563">
        <ele>646.40002441406</ele>
        <time>2020-07-04T08:29:46Z</time>
      </trkpt>
      <trkpt lat="45.44186" lon="4.65657">
        <ele>642.79998779297</ele>
        <time>2020-07-04T08:29:50Z</time>
      </trkpt>
      <trkpt lat="45.44185" lon="4.65677">
        <ele>639.40002441406</ele>
        <time>2020-07-04T08:29:54Z</time>
      </trkpt>
      <trkpt lat="45.44184" lon="4.65703">
        <ele>636</ele>
        <time>2020-07-04T08:29:58Z</time>
      </trkpt>
      <trkpt lat="45.44183" lon="4.65731">
        <ele>633</ele>
        <time>2020-07-04T08:30:02Z</time>
      </trkpt>
      <trkpt lat="45.44181" lon="4.65754">
        <ele>629.40002441406</ele>
        <time>2020-07-04T08:30:07Z</time>
      </trkpt>
      <trkpt lat="45.44179" lon="4.65773">
        <ele>626.59997558594</ele>
        <time>2020-07-04T08:30:11Z</time>
      </trkpt>
      <trkpt lat="45.44179" lon="4.6581">
        <ele>623.40002441406</ele>
        <time>2020-07-04T08:30:16Z</time>
      </trkpt>
      <trkpt lat="45.44184" lon="4.65861">
        <ele>620.20001220703</ele>
        <time>2020-07-04T08:30:21Z</time>
      </trkpt>
      <trkpt lat="45.44191" lon="4.65937">
        <ele>617.20001220703</ele>
        <time>2020-07-04T08:30:28Z</time>
      </trkpt>
      <trkpt lat="45.44191" lon="4.6598">
        <ele>614.40002441406</ele>
        <time>2020-07-04T08:30:35Z</time>
      </trkpt>
      <trkpt lat="45.44192" lon="4.66068">
        <ele>614</ele>
        <time>2020-07-04T08:30:49Z</time>
      </trkpt>
      <trkpt lat="45.44189" lon="4.66102">
        <ele>612.20001220703</ele>
        <time>2020-07-04T08:30:53Z</time>
      </trkpt>
      <trkpt lat="45.44162" lon="4.6618">
        <ele>609.59997558594</ele>
        <time>2020-07-04T08:31:03Z</time>
      </trkpt>
      <trkpt lat="45.44152" lon="4.66197">
        <ele>608.59997558594</ele>
        <time>2020-07-04T08:31:05Z</time>
      </trkpt>
      <trkpt lat="45.44114" lon="4.66217">
        <ele>607.59997558594</ele>
        <time>2020-07-04T08:31:11Z</time>
      </trkpt>
      <trkpt lat="45.44096" lon="4.66219">
        <ele>607.59997558594</ele>
        <time>2020-07-04T08:31:14Z</time>
      </trkpt>
      <trkpt lat="45.44085" lon="4.66222">
        <ele>607.59997558594</ele>
        <time>2020-07-04T08:31:16Z</time>
      </trkpt>
      <trkpt lat="45.44033" lon="4.66238">
        <ele>607.59997558594</ele>
        <time>2020-07-04T08:31:24Z</time>
      </trkpt>
      <trkpt lat="45.43988" lon="4.66297">
        <ele>606</ele>
        <time>2020-07-04T08:31:32Z</time>
      </trkpt>
      <trkpt lat="45.43976" lon="4.66317">
        <ele>605</ele>
        <time>2020-07-04T08:31:34Z</time>
      </trkpt>
      <trkpt lat="45.43963" lon="4.66349">
        <ele>603.40002441406</ele>
        <time>2020-07-04T08:31:37Z</time>
      </trkpt>
      <trkpt lat="45.43951" lon="4.66369">
        <ele>599.79998779297</ele>
        <time>2020-07-04T08:31:41Z</time>
      </trkpt>
      <trkpt lat="45.43945" lon="4.66382">
        <ele>596.79998779297</ele>
        <time>2020-07-04T08:31:45Z</time>
      </trkpt>
      <trkpt lat="45.43943" lon="4.66386">
        <ele>596</ele>
        <time>2020-07-04T08:31:46Z</time>
      </trkpt>
      <trkpt lat="45.43933" lon="4.66408">
        <ele>593.79998779297</ele>
        <time>2020-07-04T08:31:51Z</time>
      </trkpt>
      <trkpt lat="45.43925" lon="4.66431">
        <ele>591.40002441406</ele>
        <time>2020-07-04T08:31:55Z</time>
      </trkpt>
      <trkpt lat="45.43919" lon="4.66456">
        <ele>588.20001220703</ele>
        <time>2020-07-04T08:31:59Z</time>
      </trkpt>
      <trkpt lat="45.43907" lon="4.66482">
        <ele>584.79998779297</ele>
        <time>2020-07-04T08:32:03Z</time>
      </trkpt>
      <trkpt lat="45.439" lon="4.66498">
        <ele>583.59997558594</ele>
        <time>2020-07-04T08:32:05Z</time>
      </trkpt>
      <trkpt lat="45.43891" lon="4.66527">
        <ele>581.40002441406</ele>
        <time>2020-07-04T08:32:08Z</time>
      </trkpt>
      <trkpt lat="45.43884" lon="4.66558">
        <ele>578.40002441406</ele>
        <time>2020-07-04T08:32:11Z</time>
      </trkpt>
      <trkpt lat="45.43878" lon="4.66574">
        <ele>575</ele>
        <time>2020-07-04T08:32:13Z</time>
      </trkpt>
      <trkpt lat="45.43868" lon="4.66597">
        <ele>571.79998779297</ele>
        <time>2020-07-04T08:32:16Z</time>
      </trkpt>
      <trkpt lat="45.43864" lon="4.66605">
        <ele>570.79998779297</ele>
        <time>2020-07-04T08:32:17Z</time>
      </trkpt>
      <trkpt lat="45.43858" lon="4.66638">
        <ele>567.40002441406</ele>
        <time>2020-07-04T08:32:20Z</time>
      </trkpt>
      <trkpt lat="45.43854" lon="4.66689">
        <ele>563.79998779297</ele>
        <time>2020-07-04T08:32:24Z</time>
      </trkpt>
      <trkpt lat="45.43844" lon="4.66726">
        <ele>561.20001220703</ele>
        <time>2020-07-04T08:32:28Z</time>
      </trkpt>
      <trkpt lat="45.43841" lon="4.66746">
        <ele>560.40002441406</ele>
        <time>2020-07-04T08:32:30Z</time>
      </trkpt>
      <trkpt lat="45.43829" lon="4.66778">
        <ele>557.79998779297</ele>
        <time>2020-07-04T08:32:34Z</time>
      </trkpt>
      <trkpt lat="45.43825" lon="4.66786">
        <ele>557</ele>
        <time>2020-07-04T08:32:35Z</time>
      </trkpt>
      <trkpt lat="45.43804" lon="4.66804">
        <ele>554</ele>
        <time>2020-07-04T08:32:38Z</time>
      </trkpt>
      <trkpt lat="45.43797" lon="4.66806">
        <ele>553.20001220703</ele>
        <time>2020-07-04T08:32:39Z</time>
      </trkpt>
      <trkpt lat="45.43789" lon="4.66808">
        <ele>552.40002441406</ele>
        <time>2020-07-04T08:32:40Z</time>
      </trkpt>
      <trkpt lat="45.4377" lon="4.66823">
        <ele>549.79998779297</ele>
        <time>2020-07-04T08:32:46Z</time>
      </trkpt>
      <trkpt lat="45.43757" lon="4.66829">
        <ele>546.79998779297</ele>
        <time>2020-07-04T08:32:51Z</time>
      </trkpt>
      <trkpt lat="45.43758" lon="4.6683">
        <ele>543.40002441406</ele>
        <time>2020-07-04T08:32:56Z</time>
      </trkpt>
      <trkpt lat="45.4376" lon="4.6683">
        <ele>543.40002441406</ele>
        <time>2020-07-04T08:33:01Z</time>
      </trkpt>
      <trkpt lat="45.43772" lon="4.66821">
        <ele>545</ele>
        <time>2020-07-04T08:33:15Z</time>
      </trkpt>
      <trkpt lat="45.43778" lon="4.66811">
        <ele>545.40002441406</ele>
        <time>2020-07-04T08:33:27Z</time>
      </trkpt>
      <trkpt lat="45.43779" lon="4.66816">
        <ele>545.40002441406</ele>
        <time>2020-07-04T08:33:34Z</time>
      </trkpt>
      <trkpt lat="45.43766" lon="4.66859">
        <ele>545</ele>
        <time>2020-07-04T08:33:44Z</time>
      </trkpt>
      <trkpt lat="45.43763" lon="4.66866">
        <ele>544.40002441406</ele>
        <time>2020-07-04T08:33:45Z</time>
      </trkpt>
      <trkpt lat="45.43752" lon="4.66899">
        <ele>541.59997558594</ele>
        <time>2020-07-04T08:33:49Z</time>
      </trkpt>
      <trkpt lat="45.43748" lon="4.6693">
        <ele>538.20001220703</ele>
        <time>2020-07-04T08:33:53Z</time>
      </trkpt>
      <trkpt lat="45.43742" lon="4.66959">
        <ele>534.40002441406</ele>
        <time>2020-07-04T08:33:57Z</time>
      </trkpt>
      <trkpt lat="45.43739" lon="4.66977">
        <ele>532.40002441406</ele>
        <time>2020-07-04T08:33:59Z</time>
      </trkpt>
      <trkpt lat="45.43741" lon="4.67011">
        <ele>528.59997558594</ele>
        <time>2020-07-04T08:34:03Z</time>
      </trkpt>
      <trkpt lat="45.4374" lon="4.67048">
        <ele>525.20001220703</ele>
        <time>2020-07-04T08:34:07Z</time>
      </trkpt>
      <trkpt lat="45.43739" lon="4.67077">
        <ele>521.40002441406</ele>
        <time>2020-07-04T08:34:10Z</time>
      </trkpt>
      <trkpt lat="45.43739" lon="4.67094">
        <ele>519.59997558594</ele>
        <time>2020-07-04T08:34:12Z</time>
      </trkpt>
      <trkpt lat="45.43737" lon="4.67129">
        <ele>516.20001220703</ele>
        <time>2020-07-04T08:34:16Z</time>
      </trkpt>
      <trkpt lat="45.43736" lon="4.67149">
        <ele>513</ele>
        <time>2020-07-04T08:34:21Z</time>
      </trkpt>
      <trkpt lat="45.43733" lon="4.67167">
        <ele>512.20001220703</ele>
        <time>2020-07-04T08:34:24Z</time>
      </trkpt>
      <trkpt lat="45.43718" lon="4.67209">
        <ele>510</ele>
        <time>2020-07-04T08:34:32Z</time>
      </trkpt>
      <trkpt lat="45.4371" lon="4.6723">
        <ele>508.39999389648</ele>
        <time>2020-07-04T08:34:36Z</time>
      </trkpt>
      <trkpt lat="45.43699" lon="4.67276">
        <ele>506.79998779297</ele>
        <time>2020-07-04T08:34:43Z</time>
      </trkpt>
      <trkpt lat="45.43697" lon="4.67299">
        <ele>505.79998779297</ele>
        <time>2020-07-04T08:34:45Z</time>
      </trkpt>
      <trkpt lat="45.4369" lon="4.67365">
        <ele>502.20001220703</ele>
        <time>2020-07-04T08:34:50Z</time>
      </trkpt>
      <trkpt lat="45.43686" lon="4.67422">
        <ele>499.20001220703</ele>
        <time>2020-07-04T08:34:54Z</time>
      </trkpt>
      <trkpt lat="45.43685" lon="4.67504">
        <ele>495.60000610352</ele>
        <time>2020-07-04T08:35:01Z</time>
      </trkpt>
      <trkpt lat="45.43685" lon="4.67523">
        <ele>492.60000610352</ele>
        <time>2020-07-04T08:35:05Z</time>
      </trkpt>
      <trkpt lat="45.43684" lon="4.67526">
        <ele>492.20001220703</ele>
        <time>2020-07-04T08:35:06Z</time>
      </trkpt>
      <trkpt lat="45.43684" lon="4.67573">
        <ele>490</ele>
        <time>2020-07-04T08:35:11Z</time>
      </trkpt>
      <trkpt lat="45.43684" lon="4.67653">
        <ele>487</ele>
        <time>2020-07-04T08:35:18Z</time>
      </trkpt>
      <trkpt lat="45.43682" lon="4.67696">
        <ele>486</ele>
        <time>2020-07-04T08:35:22Z</time>
      </trkpt>
      <trkpt lat="45.43663" lon="4.67754">
        <ele>486</ele>
        <time>2020-07-04T08:35:29Z</time>
      </trkpt>
      <trkpt lat="45.43651" lon="4.67779">
        <ele>486</ele>
        <time>2020-07-04T08:35:33Z</time>
      </trkpt>
      <trkpt lat="45.43638" lon="4.67802">
        <ele>486</ele>
        <time>2020-07-04T08:35:38Z</time>
      </trkpt>
      <trkpt lat="45.43614" lon="4.67861">
        <ele>488.79998779297</ele>
        <time>2020-07-04T08:35:53Z</time>
      </trkpt>
      <trkpt lat="45.43602" lon="4.67918">
        <ele>491.39999389648</ele>
        <time>2020-07-04T08:36:09Z</time>
      </trkpt>
      <trkpt lat="45.43592" lon="4.67961">
        <ele>494.39999389648</ele>
        <time>2020-07-04T08:36:23Z</time>
      </trkpt>
      <trkpt lat="45.43553" lon="4.68035">
        <ele>496.60000610352</ele>
        <time>2020-07-04T08:36:44Z</time>
      </trkpt>
      <trkpt lat="45.43521" lon="4.68038">
        <ele>496.60000610352</ele>
        <time>2020-07-04T08:36:53Z</time>
      </trkpt>
      <trkpt lat="45.43516" lon="4.68038">
        <ele>496.60000610352</ele>
        <time>2020-07-04T08:36:54Z</time>
      </trkpt>
      <trkpt lat="45.43511" lon="4.68039">
        <ele>496.60000610352</ele>
        <time>2020-07-04T08:36:55Z</time>
      </trkpt>
      <trkpt lat="45.43445" lon="4.68054">
        <ele>493.39999389648</ele>
        <time>2020-07-04T08:37:05Z</time>
      </trkpt>
      <trkpt lat="45.43408" lon="4.68064">
        <ele>490</ele>
        <time>2020-07-04T08:37:09Z</time>
      </trkpt>
      <trkpt lat="45.43398" lon="4.68065">
        <ele>489</ele>
        <time>2020-07-04T08:37:10Z</time>
      </trkpt>
      <trkpt lat="45.4337" lon="4.68072">
        <ele>486.60000610352</ele>
        <time>2020-07-04T08:37:13Z</time>
      </trkpt>
      <trkpt lat="45.43335" lon="4.68066">
        <ele>485</ele>
        <time>2020-07-04T08:37:17Z</time>
      </trkpt>
      <trkpt lat="45.43315" lon="4.68053">
        <ele>484.20001220703</ele>
        <time>2020-07-04T08:37:20Z</time>
      </trkpt>
      <trkpt lat="45.43295" lon="4.68037">
        <ele>483</ele>
        <time>2020-07-04T08:37:23Z</time>
      </trkpt>
      <trkpt lat="45.43277" lon="4.68014">
        <ele>481.39999389648</ele>
        <time>2020-07-04T08:37:26Z</time>
      </trkpt>
      <trkpt lat="45.43256" lon="4.68002">
        <ele>478</ele>
        <time>2020-07-04T08:37:30Z</time>
      </trkpt>
      <trkpt lat="45.43253" lon="4.68003">
        <ele>477.20001220703</ele>
        <time>2020-07-04T08:37:31Z</time>
      </trkpt>
      <trkpt lat="45.43246" lon="4.68006">
        <ele>475.20001220703</ele>
        <time>2020-07-04T08:37:34Z</time>
      </trkpt>
      <trkpt lat="45.43242" lon="4.68014">
        <ele>473</ele>
        <time>2020-07-04T08:37:38Z</time>
      </trkpt>
      <trkpt lat="45.43234" lon="4.68008">
        <ele>471.39999389648</ele>
        <time>2020-07-04T08:37:44Z</time>
      </trkpt>
      <trkpt lat="45.43227" lon="4.68007">
        <ele>468.79998779297</ele>
        <time>2020-07-04T08:37:54Z</time>
      </trkpt>
      <trkpt lat="45.43237" lon="4.68012">
        <ele>468.79998779297</ele>
        <time>2020-07-04T08:38:17Z</time>
      </trkpt>
      <trkpt lat="45.43239" lon="4.68036">
        <ele>468.79998779297</ele>
        <time>2020-07-04T08:38:26Z</time>
      </trkpt>
      <trkpt lat="45.43251" lon="4.68106">
        <ele>470.79998779297</ele>
        <time>2020-07-04T08:38:41Z</time>
      </trkpt>
      <trkpt lat="45.43272" lon="4.68167">
        <ele>471.20001220703</ele>
        <time>2020-07-04T08:38:53Z</time>
      </trkpt>
      <trkpt lat="45.43296" lon="4.6823">
        <ele>472.79998779297</ele>
        <time>2020-07-04T08:39:06Z</time>
      </trkpt>
      <trkpt lat="45.43321" lon="4.68266">
        <ele>474.60000610352</ele>
        <time>2020-07-04T08:39:14Z</time>
      </trkpt>
      <trkpt lat="45.43357" lon="4.68316">
        <ele>475</ele>
        <time>2020-07-04T08:39:26Z</time>
      </trkpt>
      <trkpt lat="45.43387" lon="4.6835">
        <ele>476.60000610352</ele>
        <time>2020-07-04T08:39:35Z</time>
      </trkpt>
      <trkpt lat="45.43391" lon="4.68354">
        <ele>477</ele>
        <time>2020-07-04T08:39:36Z</time>
      </trkpt>
      <trkpt lat="45.43465" lon="4.68475">
        <ele>479.20001220703</ele>
        <time>2020-07-04T08:40:04Z</time>
      </trkpt>
      <trkpt lat="45.43512" lon="4.68588">
        <ele>481.79998779297</ele>
        <time>2020-07-04T08:40:27Z</time>
      </trkpt>
      <trkpt lat="45.43538" lon="4.68664">
        <ele>483.39999389648</ele>
        <time>2020-07-04T08:40:43Z</time>
      </trkpt>
      <trkpt lat="45.43569" lon="4.68721">
        <ele>485.79998779297</ele>
        <time>2020-07-04T08:41:01Z</time>
      </trkpt>
      <trkpt lat="45.43628" lon="4.68773">
        <ele>485.79998779297</ele>
        <time>2020-07-04T08:41:21Z</time>
      </trkpt>
      <trkpt lat="45.43637" lon="4.68798">
        <ele>486.20001220703</ele>
        <time>2020-07-04T08:41:26Z</time>
      </trkpt>
      <trkpt lat="45.43641" lon="4.68822">
        <ele>488</ele>
        <time>2020-07-04T08:41:30Z</time>
      </trkpt>
      <trkpt lat="45.43643" lon="4.68834">
        <ele>488</ele>
        <time>2020-07-04T08:41:32Z</time>
      </trkpt>
      <trkpt lat="45.43656" lon="4.69067">
        <ele>488</ele>
        <time>2020-07-04T08:42:02Z</time>
      </trkpt>
      <trkpt lat="45.437" lon="4.69248">
        <ele>488</ele>
        <time>2020-07-04T08:42:24Z</time>
      </trkpt>
      <trkpt lat="45.43714" lon="4.69301">
        <ele>488</ele>
        <time>2020-07-04T08:42:31Z</time>
      </trkpt>
      <trkpt lat="45.43745" lon="4.69412">
        <ele>488</ele>
        <time>2020-07-04T08:42:47Z</time>
      </trkpt>
      <trkpt lat="45.43747" lon="4.69417">
        <ele>488</ele>
        <time>2020-07-04T08:42:48Z</time>
      </trkpt>
      <trkpt lat="45.43762" lon="4.69448">
        <ele>488</ele>
        <time>2020-07-04T08:42:54Z</time>
      </trkpt>
      <trkpt lat="45.43797" lon="4.69546">
        <ele>490</ele>
        <time>2020-07-04T08:43:09Z</time>
      </trkpt>
      <trkpt lat="45.4381" lon="4.69588">
        <ele>488.39999389648</ele>
        <time>2020-07-04T08:43:20Z</time>
      </trkpt>
      <trkpt lat="45.43838" lon="4.69655">
        <ele>488</ele>
        <time>2020-07-04T08:43:33Z</time>
      </trkpt>
      <trkpt lat="45.43874" lon="4.6973">
        <ele>485</ele>
        <time>2020-07-04T08:43:41Z</time>
      </trkpt>
      <trkpt lat="45.43903" lon="4.69789">
        <ele>481.60000610352</ele>
        <time>2020-07-04T08:43:46Z</time>
      </trkpt>
      <trkpt lat="45.4393" lon="4.6986">
        <ele>478.20001220703</ele>
        <time>2020-07-04T08:43:51Z</time>
      </trkpt>
      <trkpt lat="45.43942" lon="4.69908">
        <ele>475.20001220703</ele>
        <time>2020-07-04T08:43:54Z</time>
      </trkpt>
      <trkpt lat="45.43956" lon="4.69957">
        <ele>472.20001220703</ele>
        <time>2020-07-04T08:43:57Z</time>
      </trkpt>
      <trkpt lat="45.43973" lon="4.70018">
        <ele>468.20001220703</ele>
        <time>2020-07-04T08:44:01Z</time>
      </trkpt>
      <trkpt lat="45.43985" lon="4.7006">
        <ele>466.79998779297</ele>
        <time>2020-07-04T08:44:04Z</time>
      </trkpt>
      <trkpt lat="45.44014" lon="4.70152">
        <ele>465.20001220703</ele>
        <time>2020-07-04T08:44:12Z</time>
      </trkpt>
      <trkpt lat="45.44017" lon="4.70197">
        <ele>464.79998779297</ele>
        <time>2020-07-04T08:44:16Z</time>
      </trkpt>
      <trkpt lat="45.44043" lon="4.70269">
        <ele>462.39999389648</ele>
        <time>2020-07-04T08:44:23Z</time>
      </trkpt>
      <trkpt lat="45.44089" lon="4.70399">
        <ele>460.20001220703</ele>
        <time>2020-07-04T08:44:37Z</time>
      </trkpt>
      <trkpt lat="45.44141" lon="4.70544">
        <ele>459.79998779297</ele>
        <time>2020-07-04T08:44:58Z</time>
      </trkpt>
      <trkpt lat="45.44157" lon="4.70597">
        <ele>458.20001220703</ele>
        <time>2020-07-04T08:45:11Z</time>
      </trkpt>
      <trkpt lat="45.44206" lon="4.70806">
        <ele>460.20001220703</ele>
        <time>2020-07-04T08:45:47Z</time>
      </trkpt>
      <trkpt lat="45.44225" lon="4.70883">
        <ele>462.39999389648</ele>
        <time>2020-07-04T08:45:59Z</time>
      </trkpt>
      <trkpt lat="45.4425" lon="4.7094">
        <ele>461.60000610352</ele>
        <time>2020-07-04T08:46:07Z</time>
      </trkpt>
      <trkpt lat="45.44264" lon="4.70975">
        <ele>460.39999389648</ele>
        <time>2020-07-04T08:46:12Z</time>
      </trkpt>
      <trkpt lat="45.44314" lon="4.71094">
        <ele>459</ele>
        <time>2020-07-04T08:46:26Z</time>
      </trkpt>
      <trkpt lat="45.44319" lon="4.71134">
        <ele>455.79998779297</ele>
        <time>2020-07-04T08:46:30Z</time>
      </trkpt>
      <trkpt lat="45.4432" lon="4.71166">
        <ele>452.60000610352</ele>
        <time>2020-07-04T08:46:33Z</time>
      </trkpt>
      <trkpt lat="45.44321" lon="4.71196">
        <ele>451</ele>
        <time>2020-07-04T08:46:36Z</time>
      </trkpt>
      <trkpt lat="45.44331" lon="4.71258">
        <ele>450.60000610352</ele>
        <time>2020-07-04T08:46:42Z</time>
      </trkpt>
      <trkpt lat="45.44357" lon="4.7136">
        <ele>447.60000610352</ele>
        <time>2020-07-04T08:46:52Z</time>
      </trkpt>
      <trkpt lat="45.4436" lon="4.71372">
        <ele>447.20001220703</ele>
        <time>2020-07-04T08:46:53Z</time>
      </trkpt>
      <trkpt lat="45.44362" lon="4.71414">
        <ele>444.20001220703</ele>
        <time>2020-07-04T08:46:56Z</time>
      </trkpt>
      <trkpt lat="45.44361" lon="4.71469">
        <ele>441.20001220703</ele>
        <time>2020-07-04T08:47:00Z</time>
      </trkpt>
      <trkpt lat="45.44354" lon="4.7153">
        <ele>438.20001220703</ele>
        <time>2020-07-04T08:47:05Z</time>
      </trkpt>
      <trkpt lat="45.44346" lon="4.716">
        <ele>435</ele>
        <time>2020-07-04T08:47:11Z</time>
      </trkpt>
      <trkpt lat="45.4434" lon="4.71677">
        <ele>431.60000610352</ele>
        <time>2020-07-04T08:47:17Z</time>
      </trkpt>
      <trkpt lat="45.44331" lon="4.71744">
        <ele>427.20001220703</ele>
        <time>2020-07-04T08:47:21Z</time>
      </trkpt>
      <trkpt lat="45.44321" lon="4.718">
        <ele>423.60000610352</ele>
        <time>2020-07-04T08:47:24Z</time>
      </trkpt>
      <trkpt lat="45.44312" lon="4.71858">
        <ele>419.60000610352</ele>
        <time>2020-07-04T08:47:27Z</time>
      </trkpt>
      <trkpt lat="45.44307" lon="4.71896">
        <ele>417</ele>
        <time>2020-07-04T08:47:29Z</time>
      </trkpt>
      <trkpt lat="45.44309" lon="4.71944">
        <ele>413.39999389648</ele>
        <time>2020-07-04T08:47:32Z</time>
      </trkpt>
      <trkpt lat="45.4432" lon="4.71983">
        <ele>410.20001220703</ele>
        <time>2020-07-04T08:47:35Z</time>
      </trkpt>
      <trkpt lat="45.44326" lon="4.71995">
        <ele>410.20001220703</ele>
        <time>2020-07-04T08:47:36Z</time>
      </trkpt>
      <trkpt lat="45.44339" lon="4.72016">
        <ele>409.39999389648</ele>
        <time>2020-07-04T08:47:38Z</time>
      </trkpt>
      <trkpt lat="45.44392" lon="4.7214">
        <ele>406.20001220703</ele>
        <time>2020-07-04T08:47:49Z</time>
      </trkpt>
      <trkpt lat="45.44403" lon="4.722">
        <ele>403.20001220703</ele>
        <time>2020-07-04T08:47:53Z</time>
      </trkpt>
      <trkpt lat="45.44417" lon="4.7226">
        <ele>399.79998779297</ele>
        <time>2020-07-04T08:47:57Z</time>
      </trkpt>
      <trkpt lat="45.44421" lon="4.72285">
        <ele>398</ele>
        <time>2020-07-04T08:47:59Z</time>
      </trkpt>
      <trkpt lat="45.44421" lon="4.72346">
        <ele>395.60000610352</ele>
        <time>2020-07-04T08:48:04Z</time>
      </trkpt>
      <trkpt lat="45.44421" lon="4.72369">
        <ele>394.79998779297</ele>
        <time>2020-07-04T08:48:06Z</time>
      </trkpt>
      <trkpt lat="45.44435" lon="4.7247">
        <ele>391.79998779297</ele>
        <time>2020-07-04T08:48:15Z</time>
      </trkpt>
      <trkpt lat="45.44437" lon="4.72549">
        <ele>388.79998779297</ele>
        <time>2020-07-04T08:48:21Z</time>
      </trkpt>
      <trkpt lat="45.44443" lon="4.72633">
        <ele>385.79998779297</ele>
        <time>2020-07-04T08:48:27Z</time>
      </trkpt>
      <trkpt lat="45.44453" lon="4.72715">
        <ele>382.79998779297</ele>
        <time>2020-07-04T08:48:33Z</time>
      </trkpt>
      <trkpt lat="45.44466" lon="4.72807">
        <ele>379.79998779297</ele>
        <time>2020-07-04T08:48:40Z</time>
      </trkpt>
      <trkpt lat="45.44448" lon="4.72892">
        <ele>377.39999389648</ele>
        <time>2020-07-04T08:48:47Z</time>
      </trkpt>
      <trkpt lat="45.44443" lon="4.72913">
        <ele>376.39999389648</ele>
        <time>2020-07-04T08:48:49Z</time>
      </trkpt>
      <trkpt lat="45.44458" lon="4.72941">
        <ele>376</ele>
        <time>2020-07-04T08:48:54Z</time>
      </trkpt>
      <trkpt lat="45.44463" lon="4.72943">
        <ele>376</ele>
        <time>2020-07-04T08:48:55Z</time>
      </trkpt>
      <trkpt lat="45.44498" lon="4.72955">
        <ele>375.60000610352</ele>
        <time>2020-07-04T08:49:02Z</time>
      </trkpt>
      <trkpt lat="45.44514" lon="4.73001">
        <ele>373.79998779297</ele>
        <time>2020-07-04T08:49:09Z</time>
      </trkpt>
      <trkpt lat="45.44518" lon="4.73017">
        <ele>373.79998779297</ele>
        <time>2020-07-04T08:49:11Z</time>
      </trkpt>
      <trkpt lat="45.44539" lon="4.73062">
        <ele>373.39999389648</ele>
        <time>2020-07-04T08:49:17Z</time>
      </trkpt>
      <trkpt lat="45.44586" lon="4.73144">
        <ele>370.39999389648</ele>
        <time>2020-07-04T08:49:28Z</time>
      </trkpt>
      <trkpt lat="45.44592" lon="4.73164">
        <ele>369.60000610352</ele>
        <time>2020-07-04T08:49:30Z</time>
      </trkpt>
      <trkpt lat="45.44618" lon="4.73224">
        <ele>367</ele>
        <time>2020-07-04T08:49:36Z</time>
      </trkpt>
      <trkpt lat="45.44644" lon="4.73266">
        <ele>364</ele>
        <time>2020-07-04T08:49:40Z</time>
      </trkpt>
      <trkpt lat="45.44666" lon="4.73297">
        <ele>361</ele>
        <time>2020-07-04T08:49:44Z</time>
      </trkpt>
      <trkpt lat="45.44672" lon="4.73305">
        <ele>360.20001220703</ele>
        <time>2020-07-04T08:49:45Z</time>
      </trkpt>
      <trkpt lat="45.44701" lon="4.73323">
        <ele>357</ele>
        <time>2020-07-04T08:49:49Z</time>
      </trkpt>
      <trkpt lat="45.4473" lon="4.7335">
        <ele>354.39999389648</ele>
        <time>2020-07-04T08:49:53Z</time>
      </trkpt>
      <trkpt lat="45.44757" lon="4.73346">
        <ele>352</ele>
        <time>2020-07-04T08:49:58Z</time>
      </trkpt>
      <trkpt lat="45.44761" lon="4.73342">
        <ele>351.60000610352</ele>
        <time>2020-07-04T08:49:59Z</time>
      </trkpt>
      <trkpt lat="45.44843" lon="4.73275">
        <ele>350.79998779297</ele>
        <time>2020-07-04T08:50:15Z</time>
      </trkpt>
      <trkpt lat="45.44861" lon="4.73286">
        <ele>348.79998779297</ele>
        <time>2020-07-04T08:50:23Z</time>
      </trkpt>
      <trkpt lat="45.44866" lon="4.73349">
        <ele>346.79998779297</ele>
        <time>2020-07-04T08:50:30Z</time>
      </trkpt>
      <trkpt lat="45.44888" lon="4.73471">
        <ele>346.79998779297</ele>
        <time>2020-07-04T08:50:44Z</time>
      </trkpt>
      <trkpt lat="45.44943" lon="4.73613">
        <ele>344.60000610352</ele>
        <time>2020-07-04T08:51:04Z</time>
      </trkpt>
      <trkpt lat="45.44957" lon="4.73643">
        <ele>344.60000610352</ele>
        <time>2020-07-04T08:51:09Z</time>
      </trkpt>
      <trkpt lat="45.4498" lon="4.7369">
        <ele>344.60000610352</ele>
        <time>2020-07-04T08:51:17Z</time>
      </trkpt>
      <trkpt lat="45.45025" lon="4.7376">
        <ele>347</ele>
        <time>2020-07-04T08:51:32Z</time>
      </trkpt>
      <trkpt lat="45.45038" lon="4.73821">
        <ele>347</ele>
        <time>2020-07-04T08:51:39Z</time>
      </trkpt>
      <trkpt lat="45.45039" lon="4.73897">
        <ele>344.20001220703</ele>
        <time>2020-07-04T08:51:46Z</time>
      </trkpt>
      <trkpt lat="45.45049" lon="4.73961">
        <ele>342.39999389648</ele>
        <time>2020-07-04T08:51:52Z</time>
      </trkpt>
      <trkpt lat="45.45056" lon="4.74084">
        <ele>339.39999389648</ele>
        <time>2020-07-04T08:52:03Z</time>
      </trkpt>
      <trkpt lat="45.45057" lon="4.74115">
        <ele>338.20001220703</ele>
        <time>2020-07-04T08:52:06Z</time>
      </trkpt>
      <trkpt lat="45.45074" lon="4.7416">
        <ele>337.60000610352</ele>
        <time>2020-07-04T08:52:12Z</time>
      </trkpt>
      <trkpt lat="45.45092" lon="4.74187">
        <ele>334.39999389648</ele>
        <time>2020-07-04T08:52:21Z</time>
      </trkpt>
      <trkpt lat="45.45112" lon="4.74217">
        <ele>331</ele>
        <time>2020-07-04T08:52:27Z</time>
      </trkpt>
      <trkpt lat="45.45121" lon="4.74227">
        <ele>329.39999389648</ele>
        <time>2020-07-04T08:52:29Z</time>
      </trkpt>
      <trkpt lat="45.45137" lon="4.74241">
        <ele>326.60000610352</ele>
        <time>2020-07-04T08:52:32Z</time>
      </trkpt>
      <trkpt lat="45.45141" lon="4.74256">
        <ele>323.39999389648</ele>
        <time>2020-07-04T08:52:35Z</time>
      </trkpt>
      <trkpt lat="45.4514" lon="4.74262">
        <ele>322.39999389648</ele>
        <time>2020-07-04T08:52:36Z</time>
      </trkpt>
      <trkpt lat="45.45136" lon="4.74296">
        <ele>319.60000610352</ele>
        <time>2020-07-04T08:52:40Z</time>
      </trkpt>
      <trkpt lat="45.45138" lon="4.74323">
        <ele>315.60000610352</ele>
        <time>2020-07-04T08:52:43Z</time>
      </trkpt>
      <trkpt lat="45.45132" lon="4.74349">
        <ele>311.79998779297</ele>
        <time>2020-07-04T08:52:47Z</time>
      </trkpt>
      <trkpt lat="45.45128" lon="4.74356">
        <ele>310.79998779297</ele>
        <time>2020-07-04T08:52:48Z</time>
      </trkpt>
      <trkpt lat="45.45124" lon="4.74363">
        <ele>310</ele>
        <time>2020-07-04T08:52:49Z</time>
      </trkpt>
      <trkpt lat="45.45116" lon="4.74396">
        <ele>308.20001220703</ele>
        <time>2020-07-04T08:52:53Z</time>
      </trkpt>
      <trkpt lat="45.45126" lon="4.74432">
        <ele>306.60000610352</ele>
        <time>2020-07-04T08:52:59Z</time>
      </trkpt>
      <trkpt lat="45.45141" lon="4.74468">
        <ele>305</ele>
        <time>2020-07-04T08:53:03Z</time>
      </trkpt>
      <trkpt lat="45.45178" lon="4.74507">
        <ele>302</ele>
        <time>2020-07-04T08:53:11Z</time>
      </trkpt>
      <trkpt lat="45.45179" lon="4.74524">
        <ele>301.60000610352</ele>
        <time>2020-07-04T08:53:15Z</time>
      </trkpt>
      <trkpt lat="45.45177" lon="4.7455">
        <ele>301.60000610352</ele>
        <time>2020-07-04T08:53:19Z</time>
      </trkpt>
      <trkpt lat="45.45171" lon="4.74587">
        <ele>300.20001220703</ele>
        <time>2020-07-04T08:53:24Z</time>
      </trkpt>
      <trkpt lat="45.45179" lon="4.74617">
        <ele>298.39999389648</ele>
        <time>2020-07-04T08:53:28Z</time>
      </trkpt>
      <trkpt lat="45.45182" lon="4.74623">
        <ele>298</ele>
        <time>2020-07-04T08:53:29Z</time>
      </trkpt>
      <trkpt lat="45.45186" lon="4.74645">
        <ele>295.39999389648</ele>
        <time>2020-07-04T08:53:33Z</time>
      </trkpt>
      <trkpt lat="45.45179" lon="4.74676">
        <ele>293</ele>
        <time>2020-07-04T08:53:37Z</time>
      </trkpt>
      <trkpt lat="45.45174" lon="4.74689">
        <ele>291.79998779297</ele>
        <time>2020-07-04T08:53:39Z</time>
      </trkpt>
      <trkpt lat="45.45169" lon="4.74733">
        <ele>289</ele>
        <time>2020-07-04T08:53:44Z</time>
      </trkpt>
      <trkpt lat="45.45177" lon="4.74787">
        <ele>285.60000610352</ele>
        <time>2020-07-04T08:53:49Z</time>
      </trkpt>
      <trkpt lat="45.45189" lon="4.74862">
        <ele>282.79998779297</ele>
        <time>2020-07-04T08:53:57Z</time>
      </trkpt>
      <trkpt lat="45.45189" lon="4.74899">
        <ele>282.79998779297</ele>
        <time>2020-07-04T08:54:05Z</time>
      </trkpt>
      <trkpt lat="45.45161" lon="4.74926">
        <ele>281.20001220703</ele>
        <time>2020-07-04T08:54:13Z</time>
      </trkpt>
      <trkpt lat="45.45157" lon="4.74927">
        <ele>280.39999389648</ele>
        <time>2020-07-04T08:54:14Z</time>
      </trkpt>
      <trkpt lat="45.45154" lon="4.74928">
        <ele>279.60000610352</ele>
        <time>2020-07-04T08:54:15Z</time>
      </trkpt>
      <trkpt lat="45.45152" lon="4.74937">
        <ele>276</ele>
        <time>2020-07-04T08:54:18Z</time>
      </trkpt>
      <trkpt lat="45.45154" lon="4.74944">
        <ele>274.60000610352</ele>
        <time>2020-07-04T08:54:21Z</time>
      </trkpt>
      <trkpt lat="45.45158" lon="4.74955">
        <ele>273.79998779297</ele>
        <time>2020-07-04T08:54:24Z</time>
      </trkpt>
      <trkpt lat="45.45169" lon="4.74971">
        <ele>272.39999389648</ele>
        <time>2020-07-04T08:54:27Z</time>
      </trkpt>
      <trkpt lat="45.4519" lon="4.7499">
        <ele>268.60000610352</ele>
        <time>2020-07-04T08:54:32Z</time>
      </trkpt>
      <trkpt lat="45.45196" lon="4.7502">
        <ele>265</ele>
        <time>2020-07-04T08:54:36Z</time>
      </trkpt>
      <trkpt lat="45.45199" lon="4.75047">
        <ele>262</ele>
        <time>2020-07-04T08:54:41Z</time>
      </trkpt>
      <trkpt lat="45.45198" lon="4.75062">
        <ele>260.39999389648</ele>
        <time>2020-07-04T08:54:43Z</time>
      </trkpt>
      <trkpt lat="45.45194" lon="4.75099">
        <ele>257.20001220703</ele>
        <time>2020-07-04T08:54:47Z</time>
      </trkpt>
      <trkpt lat="45.45191" lon="4.75129">
        <ele>254</ele>
        <time>2020-07-04T08:54:50Z</time>
      </trkpt>
      <trkpt lat="45.45184" lon="4.75151">
        <ele>250.39999389648</ele>
        <time>2020-07-04T08:54:53Z</time>
      </trkpt>
      <trkpt lat="45.45176" lon="4.7516">
        <ele>247.19999694824</ele>
        <time>2020-07-04T08:54:56Z</time>
      </trkpt>
      <trkpt lat="45.45164" lon="4.75162">
        <ele>244.19999694824</ele>
        <time>2020-07-04T08:54:59Z</time>
      </trkpt>
      <trkpt lat="45.45146" lon="4.75181">
        <ele>240.80000305176</ele>
        <time>2020-07-04T08:55:04Z</time>
      </trkpt>
      <trkpt lat="45.45147" lon="4.75194">
        <ele>237.39999389648</ele>
        <time>2020-07-04T08:55:07Z</time>
      </trkpt>
      <trkpt lat="45.4515" lon="4.75197">
        <ele>236.60000610352</ele>
        <time>2020-07-04T08:55:08Z</time>
      </trkpt>
      <trkpt lat="45.45157" lon="4.75202">
        <ele>235.19999694824</ele>
        <time>2020-07-04T08:55:10Z</time>
      </trkpt>
      <trkpt lat="45.4518" lon="4.75197">
        <ele>232</ele>
        <time>2020-07-04T08:55:16Z</time>
      </trkpt>
      <trkpt lat="45.45195" lon="4.7519">
        <ele>228.80000305176</ele>
        <time>2020-07-04T08:55:21Z</time>
      </trkpt>
      <trkpt lat="45.45204" lon="4.75185">
        <ele>225.19999694824</ele>
        <time>2020-07-04T08:55:26Z</time>
      </trkpt>
      <trkpt lat="45.45212" lon="4.75178">
        <ele>221.39999389648</ele>
        <time>2020-07-04T08:55:30Z</time>
      </trkpt>
      <trkpt lat="45.45216" lon="4.75173">
        <ele>218.39999389648</ele>
        <time>2020-07-04T08:55:32Z</time>
      </trkpt>
      <trkpt lat="45.45219" lon="4.75169">
        <ele>214.60000610352</ele>
        <time>2020-07-04T08:55:36Z</time>
      </trkpt>
      <trkpt lat="45.4522" lon="4.75164">
        <ele>211.39999389648</ele>
        <time>2020-07-04T08:56:03Z</time>
      </trkpt>
      <trkpt lat="45.45221" lon="4.75162">
        <ele>211</ele>
        <time>2020-07-04T08:56:04Z</time>
      </trkpt>
      <trkpt lat="45.45232" lon="4.75156">
        <ele>209</ele>
        <time>2020-07-04T08:56:09Z</time>
      </trkpt>
      <trkpt lat="45.45245" lon="4.75158">
        <ele>205.80000305176</ele>
        <time>2020-07-04T08:56:15Z</time>
      </trkpt>
      <trkpt lat="45.45258" lon="4.75167">
        <ele>202.19999694824</ele>
        <time>2020-07-04T08:56:21Z</time>
      </trkpt>
      <trkpt lat="45.45267" lon="4.75182">
        <ele>200</ele>
        <time>2020-07-04T08:56:26Z</time>
      </trkpt>
      <trkpt lat="45.45267" lon="4.75214">
        <ele>196.80000305176</ele>
        <time>2020-07-04T08:56:33Z</time>
      </trkpt>
      <trkpt lat="45.45274" lon="4.75235">
        <ele>193.60000610352</ele>
        <time>2020-07-04T08:56:40Z</time>
      </trkpt>
      <trkpt lat="45.45283" lon="4.75233">
        <ele>191.60000610352</ele>
        <time>2020-07-04T08:56:44Z</time>
      </trkpt>
      <trkpt lat="45.45299" lon="4.75223">
        <ele>188.39999389648</ele>
        <time>2020-07-04T08:56:49Z</time>
      </trkpt>
      <trkpt lat="45.45315" lon="4.75209">
        <ele>185.19999694824</ele>
        <time>2020-07-04T08:56:54Z</time>
      </trkpt>
      <trkpt lat="45.45325" lon="4.75201">
        <ele>183.60000610352</ele>
        <time>2020-07-04T08:56:57Z</time>
      </trkpt>
      <trkpt lat="45.45326" lon="4.7522">
        <ele>180.60000610352</ele>
        <time>2020-07-04T08:57:02Z</time>
      </trkpt>
      <trkpt lat="45.45326" lon="4.75226">
        <ele>180</ele>
        <time>2020-07-04T08:57:03Z</time>
      </trkpt>
      <trkpt lat="45.45327" lon="4.75233">
        <ele>179.39999389648</ele>
        <time>2020-07-04T08:57:04Z</time>
      </trkpt>
      <trkpt lat="45.45332" lon="4.75253">
        <ele>177.60000610352</ele>
        <time>2020-07-04T08:57:07Z</time>
      </trkpt>
      <trkpt lat="45.45341" lon="4.75277">
        <ele>173.39999389648</ele>
        <time>2020-07-04T08:57:11Z</time>
      </trkpt>
      <trkpt lat="45.45343" lon="4.75283">
        <ele>172.80000305176</ele>
        <time>2020-07-04T08:57:12Z</time>
      </trkpt>
      <trkpt lat="45.45349" lon="4.75304">
        <ele>170.39999389648</ele>
        <time>2020-07-04T08:57:15Z</time>
      </trkpt>
      <trkpt lat="45.45351" lon="4.75311">
        <ele>170.39999389648</ele>
        <time>2020-07-04T08:57:16Z</time>
      </trkpt>
      <trkpt lat="45.45359" lon="4.75329">
        <ele>169.19999694824</ele>
        <time>2020-07-04T08:57:20Z</time>
      </trkpt>
      <trkpt lat="45.4536" lon="4.75332">
        <ele>168.80000305176</ele>
        <time>2020-07-04T08:57:21Z</time>
      </trkpt>
      <trkpt lat="45.45357" lon="4.75333">
        <ele>168.39999389648</ele>
        <time>2020-07-04T08:57:23Z</time>
      </trkpt>
      <trkpt lat="45.45343" lon="4.75336">
        <ele>168.39999389648</ele>
        <time>2020-07-04T08:57:30Z</time>
      </trkpt>
      <trkpt lat="45.45301" lon="4.75332">
        <ele>169.19999694824</ele>
        <time>2020-07-04T08:57:41Z</time>
      </trkpt>
      <trkpt lat="45.45275" lon="4.75345">
        <ele>170.39999389648</ele>
        <time>2020-07-04T08:57:49Z</time>
      </trkpt>
      <trkpt lat="45.45254" lon="4.7535">
        <ele>170.39999389648</ele>
        <time>2020-07-04T08:57:54Z</time>
      </trkpt>
      <trkpt lat="45.45171" lon="4.75349">
        <ele>170.39999389648</ele>
        <time>2020-07-04T08:58:09Z</time>
      </trkpt>
      <trkpt lat="45.45117" lon="4.75355">
        <ele>168.60000610352</ele>
        <time>2020-07-04T08:58:18Z</time>
      </trkpt>
      <trkpt lat="45.451" lon="4.75355">
        <ele>168.19999694824</ele>
        <time>2020-07-04T08:58:25Z</time>
      </trkpt>
      <trkpt lat="45.45088" lon="4.75351">
        <ele>168.19999694824</ele>
        <time>2020-07-04T08:58:30Z</time>
      </trkpt>
      <trkpt lat="45.45049" lon="4.75343">
        <ele>168.19999694824</ele>
        <time>2020-07-04T08:58:43Z</time>
      </trkpt>
      <trkpt lat="45.45058" lon="4.75351">
        <ele>168.19999694824</ele>
        <time>2020-07-04T08:58:49Z</time>
      </trkpt>
      <trkpt lat="45.45096" lon="4.75362">
        <ele>168.19999694824</ele>
        <time>2020-07-04T08:59:01Z</time>
      </trkpt>
      <trkpt lat="45.45096" lon="4.75374">
        <ele>168.19999694824</ele>
        <time>2020-07-04T08:59:11Z</time>
      </trkpt>
      <trkpt lat="45.45094" lon="4.75374">
        <ele>168.19999694824</ele>
        <time>2020-07-04T08:59:18Z</time>
      </trkpt>
      <trkpt lat="45.4508" lon="4.75372">
        <ele>168.19999694824</ele>
        <time>2020-07-04T08:59:23Z</time>
      </trkpt>
      <trkpt lat="45.45005" lon="4.75358">
        <ele>168.19999694824</ele>
        <time>2020-07-04T08:59:45Z</time>
      </trkpt>
      <trkpt lat="45.44996" lon="4.75358">
        <ele>168.19999694824</ele>
        <time>2020-07-04T08:59:51Z</time>
      </trkpt>
      <trkpt lat="45.44986" lon="4.7537">
        <ele>168.19999694824</ele>
        <time>2020-07-04T09:00:04Z</time>
      </trkpt>
      <trkpt lat="45.44984" lon="4.75373">
        <ele>168.19999694824</ele>
        <time>2020-07-04T09:00:07Z</time>
      </trkpt>
      <trkpt lat="45.44973" lon="4.75374">
        <ele>168.19999694824</ele>
        <time>2020-07-04T09:00:12Z</time>
      </trkpt>
      <trkpt lat="45.44869" lon="4.75368">
        <ele>168.19999694824</ele>
        <time>2020-07-04T09:00:32Z</time>
      </trkpt>
      <trkpt lat="45.44725" lon="4.75397">
        <ele>166.19999694824</ele>
        <time>2020-07-04T09:00:55Z</time>
      </trkpt>
      <trkpt lat="45.44467" lon="4.75503">
        <ele>166.19999694824</ele>
        <time>2020-07-04T09:01:35Z</time>
      </trkpt>
      <trkpt lat="45.44213" lon="4.7561">
        <ele>166.19999694824</ele>
        <time>2020-07-04T09:02:12Z</time>
      </trkpt>
      <trkpt lat="45.43936" lon="4.75722">
        <ele>166.19999694824</ele>
        <time>2020-07-04T09:02:52Z</time>
      </trkpt>
      <trkpt lat="45.43722" lon="4.75764">
        <ele>166.19999694824</ele>
        <time>2020-07-04T09:03:22Z</time>
      </trkpt>
      <trkpt lat="45.43451" lon="4.75747">
        <ele>166.19999694824</ele>
        <time>2020-07-04T09:04:00Z</time>
      </trkpt>
      <trkpt lat="45.43293" lon="4.7566">
        <ele>166.19999694824</ele>
        <time>2020-07-04T09:04:23Z</time>
      </trkpt>
      <trkpt lat="45.43287" lon="4.75654">
        <ele>166.19999694824</ele>
        <time>2020-07-04T09:04:24Z</time>
      </trkpt>
      <trkpt lat="45.43202" lon="4.75551">
        <ele>164.19999694824</ele>
        <time>2020-07-04T09:04:39Z</time>
      </trkpt>
      <trkpt lat="45.43133" lon="4.75418">
        <ele>164.19999694824</ele>
        <time>2020-07-04T09:04:55Z</time>
      </trkpt>
      <trkpt lat="45.43003" lon="4.75191">
        <ele>164.19999694824</ele>
        <time>2020-07-04T09:05:23Z</time>
      </trkpt>
      <trkpt lat="45.42835" lon="4.74971">
        <ele>164.19999694824</ele>
        <time>2020-07-04T09:05:55Z</time>
      </trkpt>
      <trkpt lat="45.42551" lon="4.7463">
        <ele>164.19999694824</ele>
        <time>2020-07-04T09:06:46Z</time>
      </trkpt>
      <trkpt lat="45.42349" lon="4.74384">
        <ele>164.19999694824</ele>
        <time>2020-07-04T09:07:22Z</time>
      </trkpt>
      <trkpt lat="45.42204" lon="4.74226">
        <ele>164.19999694824</ele>
        <time>2020-07-04T09:07:45Z</time>
      </trkpt>
      <trkpt lat="45.42034" lon="4.74114">
        <ele>164.19999694824</ele>
        <time>2020-07-04T09:08:09Z</time>
      </trkpt>
      <trkpt lat="45.41798" lon="4.74032">
        <ele>164.19999694824</ele>
        <time>2020-07-04T09:08:41Z</time>
      </trkpt>
      <trkpt lat="45.41627" lon="4.74008">
        <ele>162.19999694824</ele>
        <time>2020-07-04T09:09:04Z</time>
      </trkpt>
      <trkpt lat="45.41613" lon="4.74006">
        <ele>162.19999694824</ele>
        <time>2020-07-04T09:09:06Z</time>
      </trkpt>
      <trkpt lat="45.4159" lon="4.7401">
        <ele>162.19999694824</ele>
        <time>2020-07-04T09:09:09Z</time>
      </trkpt>
      <trkpt lat="45.41502" lon="4.74014">
        <ele>162.19999694824</ele>
        <time>2020-07-04T09:09:21Z</time>
      </trkpt>
      <trkpt lat="45.41473" lon="4.73977">
        <ele>162.19999694824</ele>
        <time>2020-07-04T09:09:27Z</time>
      </trkpt>
      <trkpt lat="45.41473" lon="4.73946">
        <ele>162.19999694824</ele>
        <time>2020-07-04T09:09:30Z</time>
      </trkpt>
      <trkpt lat="45.41473" lon="4.73936">
        <ele>162.19999694824</ele>
        <time>2020-07-04T09:09:31Z</time>
      </trkpt>
      <trkpt lat="45.41436" lon="4.7375">
        <ele>162.19999694824</ele>
        <time>2020-07-04T09:09:51Z</time>
      </trkpt>
      <trkpt lat="45.41413" lon="4.73748">
        <ele>162.19999694824</ele>
        <time>2020-07-04T09:09:55Z</time>
      </trkpt>
      <trkpt lat="45.41403" lon="4.73748">
        <ele>162.19999694824</ele>
        <time>2020-07-04T09:09:57Z</time>
      </trkpt>
      <trkpt lat="45.41406" lon="4.73785">
        <ele>162.19999694824</ele>
        <time>2020-07-04T09:10:02Z</time>
      </trkpt>
      <trkpt lat="45.41416" lon="4.73842">
        <ele>162.19999694824</ele>
        <time>2020-07-04T09:10:09Z</time>
      </trkpt>
      <trkpt lat="45.41409" lon="4.74012">
        <ele>162.19999694824</ele>
        <time>2020-07-04T09:10:29Z</time>
      </trkpt>
      <trkpt lat="45.41368" lon="4.74037">
        <ele>162.19999694824</ele>
        <time>2020-07-04T09:10:36Z</time>
      </trkpt>
      <trkpt lat="45.41317" lon="4.74045">
        <ele>162.19999694824</ele>
        <time>2020-07-04T09:10:44Z</time>
      </trkpt>
      <trkpt lat="45.41097" lon="4.74084">
        <ele>161.80000305176</ele>
        <time>2020-07-04T09:11:17Z</time>
      </trkpt>
      <trkpt lat="45.40927" lon="4.74152">
        <ele>160.19999694824</ele>
        <time>2020-07-04T09:11:44Z</time>
      </trkpt>
      <trkpt lat="45.40691" lon="4.74312">
        <ele>160.19999694824</ele>
        <time>2020-07-04T09:12:24Z</time>
      </trkpt>
      <trkpt lat="45.40385" lon="4.74583">
        <ele>160.19999694824</ele>
        <time>2020-07-04T09:13:19Z</time>
      </trkpt>
      <trkpt lat="45.40146" lon="4.74817">
        <ele>160.19999694824</ele>
        <time>2020-07-04T09:14:02Z</time>
      </trkpt>
      <trkpt lat="45.39922" lon="4.75034">
        <ele>160.19999694824</ele>
        <time>2020-07-04T09:14:43Z</time>
      </trkpt>
      <trkpt lat="45.39768" lon="4.75174">
        <ele>160.19999694824</ele>
        <time>2020-07-04T09:15:11Z</time>
      </trkpt>
      <trkpt lat="45.39627" lon="4.7527">
        <ele>160.19999694824</ele>
        <time>2020-07-04T09:15:35Z</time>
      </trkpt>
      <trkpt lat="45.39364" lon="4.75413">
        <ele>160.19999694824</ele>
        <time>2020-07-04T09:16:17Z</time>
      </trkpt>
      <trkpt lat="45.39132" lon="4.75513">
        <ele>158</ele>
        <time>2020-07-04T09:16:51Z</time>
      </trkpt>
      <trkpt lat="45.38871" lon="4.75576">
        <ele>158</ele>
        <time>2020-07-04T09:17:28Z</time>
      </trkpt>
      <trkpt lat="45.38719" lon="4.75599">
        <ele>158</ele>
        <time>2020-07-04T09:17:48Z</time>
      </trkpt>
      <trkpt lat="45.38698" lon="4.75598">
        <ele>158</ele>
        <time>2020-07-04T09:17:51Z</time>
      </trkpt>
      <trkpt lat="45.38654" lon="4.75598">
        <ele>158</ele>
        <time>2020-07-04T09:17:57Z</time>
      </trkpt>
      <trkpt lat="45.38493" lon="4.75556">
        <ele>158</ele>
        <time>2020-07-04T09:18:21Z</time>
      </trkpt>
      <trkpt lat="45.38468" lon="4.75542">
        <ele>158</ele>
        <time>2020-07-04T09:18:27Z</time>
      </trkpt>
      <trkpt lat="45.38452" lon="4.75532">
        <ele>158</ele>
        <time>2020-07-04T09:18:31Z</time>
      </trkpt>
      <trkpt lat="45.38461" lon="4.75515">
        <ele>157.19999694824</ele>
        <time>2020-07-04T09:18:37Z</time>
      </trkpt>
      <trkpt lat="45.38471" lon="4.75519">
        <ele>156.39999389648</ele>
        <time>2020-07-04T09:18:39Z</time>
      </trkpt>
      <trkpt lat="45.38496" lon="4.75531">
        <ele>156</ele>
        <time>2020-07-04T09:18:44Z</time>
      </trkpt>
      <trkpt lat="45.38514" lon="4.75505">
        <ele>154.60000610352</ele>
        <time>2020-07-04T09:18:49Z</time>
      </trkpt>
      <trkpt lat="45.38524" lon="4.75484">
        <ele>153.60000610352</ele>
        <time>2020-07-04T09:18:55Z</time>
      </trkpt>
      <trkpt lat="45.38528" lon="4.75482">
        <ele>153.60000610352</ele>
        <time>2020-07-04T09:18:57Z</time>
      </trkpt>
      <trkpt lat="45.38535" lon="4.75487">
        <ele>153.60000610352</ele>
        <time>2020-07-04T09:19:10Z</time>
      </trkpt>
      <trkpt lat="45.38521" lon="4.75482">
        <ele>153.60000610352</ele>
        <time>2020-07-04T09:19:14Z</time>
      </trkpt>
      <trkpt lat="45.38505" lon="4.75476">
        <ele>153.60000610352</ele>
        <time>2020-07-04T09:19:20Z</time>
      </trkpt>
      <trkpt lat="45.38516" lon="4.75475">
        <ele>153.60000610352</ele>
        <time>2020-07-04T09:19:28Z</time>
      </trkpt>
      <trkpt lat="45.38508" lon="4.75427">
        <ele>153.60000610352</ele>
        <time>2020-07-04T09:19:40Z</time>
      </trkpt>
      <trkpt lat="45.38501" lon="4.75394">
        <ele>153.19999694824</ele>
        <time>2020-07-04T09:19:48Z</time>
      </trkpt>
      <trkpt lat="45.38502" lon="4.7539">
        <ele>152.80000305176</ele>
        <time>2020-07-04T09:19:49Z</time>
      </trkpt>
      <trkpt lat="45.38487" lon="4.75352">
        <ele>151.60000610352</ele>
        <time>2020-07-04T09:20:00Z</time>
      </trkpt>
      <trkpt lat="45.38458" lon="4.75353">
        <ele>151.60000610352</ele>
        <time>2020-07-04T09:20:09Z</time>
      </trkpt>
      <trkpt lat="45.3838" lon="4.75342">
        <ele>151.60000610352</ele>
        <time>2020-07-04T09:20:30Z</time>
      </trkpt>
      <trkpt lat="45.38376" lon="4.75341">
        <ele>151.60000610352</ele>
        <time>2020-07-04T09:20:31Z</time>
      </trkpt>
      <trkpt lat="45.38352" lon="4.75313">
        <ele>151.60000610352</ele>
        <time>2020-07-04T09:20:38Z</time>
      </trkpt>
      <trkpt lat="45.3834" lon="4.75284">
        <ele>151.60000610352</ele>
        <time>2020-07-04T09:20:43Z</time>
      </trkpt>
      <trkpt lat="45.3827" lon="4.75271">
        <ele>151.60000610352</ele>
        <time>2020-07-04T09:20:58Z</time>
      </trkpt>
      <trkpt lat="45.38224" lon="4.75322">
        <ele>151.60000610352</ele>
        <time>2020-07-04T09:21:08Z</time>
      </trkpt>
      <trkpt lat="45.38168" lon="4.7529">
        <ele>149.60000610352</ele>
        <time>2020-07-04T09:21:19Z</time>
      </trkpt>
      <trkpt lat="45.38166" lon="4.75282">
        <ele>149.60000610352</ele>
        <time>2020-07-04T09:21:20Z</time>
      </trkpt>
      <trkpt lat="45.38153" lon="4.75219">
        <ele>149.60000610352</ele>
        <time>2020-07-04T09:21:30Z</time>
      </trkpt>
      <trkpt lat="45.38128" lon="4.75219">
        <ele>149.60000610352</ele>
        <time>2020-07-04T09:21:37Z</time>
      </trkpt>
      <trkpt lat="45.38113" lon="4.75221">
        <ele>149.60000610352</ele>
        <time>2020-07-04T09:21:40Z</time>
      </trkpt>
      <trkpt lat="45.3807" lon="4.75213">
        <ele>149.60000610352</ele>
        <time>2020-07-04T09:21:48Z</time>
      </trkpt>
      <trkpt lat="45.38055" lon="4.75208">
        <ele>149.60000610352</ele>
        <time>2020-07-04T09:21:51Z</time>
      </trkpt>
      <trkpt lat="45.38031" lon="4.75191">
        <ele>149.60000610352</ele>
        <time>2020-07-04T09:21:57Z</time>
      </trkpt>
      <trkpt lat="45.38011" lon="4.75168">
        <ele>149.60000610352</ele>
        <time>2020-07-04T09:22:04Z</time>
      </trkpt>
      <trkpt lat="45.37997" lon="4.75163">
        <ele>149.60000610352</ele>
        <time>2020-07-04T09:22:07Z</time>
      </trkpt>
      <trkpt lat="45.37886" lon="4.75136">
        <ele>151.60000610352</ele>
        <time>2020-07-04T09:22:28Z</time>
      </trkpt>
      <trkpt lat="45.37687" lon="4.75083">
        <ele>151.60000610352</ele>
        <time>2020-07-04T09:23:01Z</time>
      </trkpt>
      <trkpt lat="45.37454" lon="4.75003">
        <ele>151.60000610352</ele>
        <time>2020-07-04T09:23:38Z</time>
      </trkpt>
      <trkpt lat="45.37375" lon="4.75008">
        <ele>151.60000610352</ele>
        <time>2020-07-04T09:23:51Z</time>
      </trkpt>
      <trkpt lat="45.37291" lon="4.75043">
        <ele>151.60000610352</ele>
        <time>2020-07-04T09:24:08Z</time>
      </trkpt>
      <trkpt lat="45.37287" lon="4.75046">
        <ele>151.60000610352</ele>
        <time>2020-07-04T09:24:09Z</time>
      </trkpt>
      <trkpt lat="45.37228" lon="4.7509">
        <ele>154.19999694824</ele>
        <time>2020-07-04T09:24:26Z</time>
      </trkpt>
      <trkpt lat="45.37174" lon="4.75122">
        <ele>157.39999389648</ele>
        <time>2020-07-04T09:24:43Z</time>
      </trkpt>
      <trkpt lat="45.37165" lon="4.75126">
        <ele>157.80000305176</ele>
        <time>2020-07-04T09:24:47Z</time>
      </trkpt>
      <trkpt lat="45.3712" lon="4.7516">
        <ele>157</ele>
        <time>2020-07-04T09:24:56Z</time>
      </trkpt>
      <trkpt lat="45.37098" lon="4.75173">
        <ele>155.19999694824</ele>
        <time>2020-07-04T09:25:00Z</time>
      </trkpt>
      <trkpt lat="45.3707" lon="4.75195">
        <ele>151.80000305176</ele>
        <time>2020-07-04T09:25:05Z</time>
      </trkpt>
      <trkpt lat="45.36998" lon="4.75225">
        <ele>151.19999694824</ele>
        <time>2020-07-04T09:25:22Z</time>
      </trkpt>
      <trkpt lat="45.36978" lon="4.75232">
        <ele>151.19999694824</ele>
        <time>2020-07-04T09:25:38Z</time>
      </trkpt>
      <trkpt lat="45.36966" lon="4.75235">
        <ele>151.19999694824</ele>
        <time>2020-07-04T09:26:59Z</time>
      </trkpt>
      <trkpt lat="45.36927" lon="4.75241">
        <ele>151.19999694824</ele>
        <time>2020-07-04T09:27:10Z</time>
      </trkpt>
      <trkpt lat="45.36843" lon="4.75266">
        <ele>151.19999694824</ele>
        <time>2020-07-04T09:27:30Z</time>
      </trkpt>
      <trkpt lat="45.36781" lon="4.75283">
        <ele>151.19999694824</ele>
        <time>2020-07-04T09:27:43Z</time>
      </trkpt>
      <trkpt lat="45.3674" lon="4.75289">
        <ele>151.19999694824</ele>
        <time>2020-07-04T09:27:51Z</time>
      </trkpt>
      <trkpt lat="45.36719" lon="4.753">
        <ele>151.19999694824</ele>
        <time>2020-07-04T09:27:55Z</time>
      </trkpt>
      <trkpt lat="45.367" lon="4.75303">
        <ele>151.19999694824</ele>
        <time>2020-07-04T09:27:59Z</time>
      </trkpt>
      <trkpt lat="45.3667" lon="4.75313">
        <ele>151.19999694824</ele>
        <time>2020-07-04T09:28:05Z</time>
      </trkpt>
      <trkpt lat="45.36666" lon="4.75316">
        <ele>151.19999694824</ele>
        <time>2020-07-04T09:28:06Z</time>
      </trkpt>
      <trkpt lat="45.3663" lon="4.75338">
        <ele>151.19999694824</ele>
        <time>2020-07-04T09:28:13Z</time>
      </trkpt>
      <trkpt lat="45.36603" lon="4.75358">
        <ele>151.19999694824</ele>
        <time>2020-07-04T09:28:19Z</time>
      </trkpt>
      <trkpt lat="45.36569" lon="4.75373">
        <ele>151.19999694824</ele>
        <time>2020-07-04T09:28:26Z</time>
      </trkpt>
      <trkpt lat="45.36464" lon="4.75437">
        <ele>151.19999694824</ele>
        <time>2020-07-04T09:28:48Z</time>
      </trkpt>
      <trkpt lat="45.36441" lon="4.75458">
        <ele>151.19999694824</ele>
        <time>2020-07-04T09:28:54Z</time>
      </trkpt>
      <trkpt lat="45.3641" lon="4.75486">
        <ele>151.19999694824</ele>
        <time>2020-07-04T09:29:05Z</time>
      </trkpt>
      <trkpt lat="45.36396" lon="4.75546">
        <ele>151.19999694824</ele>
        <time>2020-07-04T09:29:14Z</time>
      </trkpt>
      <trkpt lat="45.36384" lon="4.75566">
        <ele>151.19999694824</ele>
        <time>2020-07-04T09:29:17Z</time>
      </trkpt>
      <trkpt lat="45.36364" lon="4.75603">
        <ele>151.19999694824</ele>
        <time>2020-07-04T09:29:23Z</time>
      </trkpt>
      <trkpt lat="45.3634" lon="4.75639">
        <ele>151.19999694824</ele>
        <time>2020-07-04T09:29:29Z</time>
      </trkpt>
      <trkpt lat="45.36267" lon="4.75769">
        <ele>151.19999694824</ele>
        <time>2020-07-04T09:29:48Z</time>
      </trkpt>
      <trkpt lat="45.36181" lon="4.75887">
        <ele>151.19999694824</ele>
        <time>2020-07-04T09:30:07Z</time>
      </trkpt>
      <trkpt lat="45.36118" lon="4.75953">
        <ele>151.19999694824</ele>
        <time>2020-07-04T09:30:20Z</time>
      </trkpt>
      <trkpt lat="45.36071" lon="4.75997">
        <ele>151.19999694824</ele>
        <time>2020-07-04T09:30:30Z</time>
      </trkpt>
      <trkpt lat="45.36065" lon="4.76001">
        <ele>151.19999694824</ele>
        <time>2020-07-04T09:30:31Z</time>
      </trkpt>
      <trkpt lat="45.36005" lon="4.76039">
        <ele>151.19999694824</ele>
        <time>2020-07-04T09:30:42Z</time>
      </trkpt>
      <trkpt lat="45.3593" lon="4.76067">
        <ele>151.19999694824</ele>
        <time>2020-07-04T09:30:55Z</time>
      </trkpt>
      <trkpt lat="45.35721" lon="4.76166">
        <ele>151.19999694824</ele>
        <time>2020-07-04T09:31:31Z</time>
      </trkpt>
      <trkpt lat="45.35648" lon="4.76169">
        <ele>151.19999694824</ele>
        <time>2020-07-04T09:31:43Z</time>
      </trkpt>
      <trkpt lat="45.35599" lon="4.76131">
        <ele>151.19999694824</ele>
        <time>2020-07-04T09:31:52Z</time>
      </trkpt>
      <trkpt lat="45.35531" lon="4.76028">
        <ele>151.19999694824</ele>
        <time>2020-07-04T09:32:08Z</time>
      </trkpt>
      <trkpt lat="45.35506" lon="4.76016">
        <ele>151.19999694824</ele>
        <time>2020-07-04T09:32:14Z</time>
      </trkpt>
      <trkpt lat="45.35481" lon="4.76021">
        <ele>151.19999694824</ele>
        <time>2020-07-04T09:32:18Z</time>
      </trkpt>
      <trkpt lat="45.35451" lon="4.76026">
        <ele>151.19999694824</ele>
        <time>2020-07-04T09:32:23Z</time>
      </trkpt>
      <trkpt lat="45.35445" lon="4.76027">
        <ele>151.19999694824</ele>
        <time>2020-07-04T09:32:24Z</time>
      </trkpt>
      <trkpt lat="45.35422" lon="4.76032">
        <ele>151.19999694824</ele>
        <time>2020-07-04T09:32:28Z</time>
      </trkpt>
      <trkpt lat="45.35335" lon="4.76035">
        <ele>151.19999694824</ele>
        <time>2020-07-04T09:32:42Z</time>
      </trkpt>
      <trkpt lat="45.3523" lon="4.76017">
        <ele>151.19999694824</ele>
        <time>2020-07-04T09:32:59Z</time>
      </trkpt>
      <trkpt lat="45.35168" lon="4.75997">
        <ele>151.19999694824</ele>
        <time>2020-07-04T09:33:10Z</time>
      </trkpt>
      <trkpt lat="45.35139" lon="4.75984">
        <ele>149.60000610352</ele>
        <time>2020-07-04T09:33:15Z</time>
      </trkpt>
      <trkpt lat="45.3509" lon="4.7596">
        <ele>149.19999694824</ele>
        <time>2020-07-04T09:33:24Z</time>
      </trkpt>
      <trkpt lat="45.34957" lon="4.759">
        <ele>149.19999694824</ele>
        <time>2020-07-04T09:33:50Z</time>
      </trkpt>
      <trkpt lat="45.34932" lon="4.75899">
        <ele>149.19999694824</ele>
        <time>2020-07-04T09:33:55Z</time>
      </trkpt>
      <trkpt lat="45.34815" lon="4.75919">
        <ele>149.19999694824</ele>
        <time>2020-07-04T09:34:16Z</time>
      </trkpt>
      <trkpt lat="45.34691" lon="4.75959">
        <ele>149.19999694824</ele>
        <time>2020-07-04T09:34:40Z</time>
      </trkpt>
      <trkpt lat="45.3468" lon="4.75961">
        <ele>149.19999694824</ele>
        <time>2020-07-04T09:34:42Z</time>
      </trkpt>
      <trkpt lat="45.34597" lon="4.75963">
        <ele>149.19999694824</ele>
        <time>2020-07-04T09:34:57Z</time>
      </trkpt>
      <trkpt lat="45.34569" lon="4.7596">
        <ele>149.19999694824</ele>
        <time>2020-07-04T09:35:02Z</time>
      </trkpt>
      <trkpt lat="45.34537" lon="4.75967">
        <ele>149.19999694824</ele>
        <time>2020-07-04T09:35:08Z</time>
      </trkpt>
      <trkpt lat="45.345" lon="4.75975">
        <ele>149.19999694824</ele>
        <time>2020-07-04T09:35:16Z</time>
      </trkpt>
      <trkpt lat="45.3444" lon="4.75918">
        <ele>149.19999694824</ele>
        <time>2020-07-04T09:35:36Z</time>
      </trkpt>
      <trkpt lat="45.34431" lon="4.75806">
        <ele>149.19999694824</ele>
        <time>2020-07-04T09:36:02Z</time>
      </trkpt>
      <trkpt lat="45.34438" lon="4.75802">
        <ele>149.19999694824</ele>
        <time>2020-07-04T09:36:14Z</time>
      </trkpt>
      <trkpt lat="45.3444" lon="4.75801">
        <ele>149.19999694824</ele>
        <time>2020-07-04T09:36:53Z</time>
      </trkpt>
      <trkpt lat="45.3444" lon="4.75801">
        <ele>149.19999694824</ele>
        <time>2020-07-04T09:37:08Z</time>
      </trkpt>
      <trkpt lat="45.34421" lon="4.75814">
        <ele>149.19999694824</ele>
        <time>2020-07-04T09:37:17Z</time>
      </trkpt>
      <trkpt lat="45.3442" lon="4.75876">
        <ele>149.19999694824</ele>
        <time>2020-07-04T09:37:29Z</time>
      </trkpt>
      <trkpt lat="45.3443" lon="4.75901">
        <ele>149.19999694824</ele>
        <time>2020-07-04T09:37:33Z</time>
      </trkpt>
      <trkpt lat="45.34442" lon="4.75929">
        <ele>149.19999694824</ele>
        <time>2020-07-04T09:37:38Z</time>
      </trkpt>
      <trkpt lat="45.34436" lon="4.75953">
        <ele>148.19999694824</ele>
        <time>2020-07-04T09:37:42Z</time>
      </trkpt>
      <trkpt lat="45.34412" lon="4.75978">
        <ele>145.60000610352</ele>
        <time>2020-07-04T09:37:49Z</time>
      </trkpt>
      <trkpt lat="45.34407" lon="4.75985">
        <ele>144.80000305176</ele>
        <time>2020-07-04T09:37:51Z</time>
      </trkpt>
      <trkpt lat="45.344" lon="4.75987">
        <ele>144.80000305176</ele>
        <time>2020-07-04T09:37:53Z</time>
      </trkpt>
      <trkpt lat="45.34373" lon="4.75987">
        <ele>144.80000305176</ele>
        <time>2020-07-04T09:37:59Z</time>
      </trkpt>
      <trkpt lat="45.34341" lon="4.75982">
        <ele>144.80000305176</ele>
        <time>2020-07-04T09:38:05Z</time>
      </trkpt>
      <trkpt lat="45.34294" lon="4.75972">
        <ele>144.80000305176</ele>
        <time>2020-07-04T09:38:15Z</time>
      </trkpt>
      <trkpt lat="45.34211" lon="4.75967">
        <ele>144.80000305176</ele>
        <time>2020-07-04T09:38:35Z</time>
      </trkpt>
      <trkpt lat="45.34153" lon="4.75973">
        <ele>144.80000305176</ele>
        <time>2020-07-04T09:38:50Z</time>
      </trkpt>
      <trkpt lat="45.34109" lon="4.75957">
        <ele>144.80000305176</ele>
        <time>2020-07-04T09:39:01Z</time>
      </trkpt>
      <trkpt lat="45.34005" lon="4.75955">
        <ele>144.80000305176</ele>
        <time>2020-07-04T09:39:26Z</time>
      </trkpt>
      <trkpt lat="45.33917" lon="4.75968">
        <ele>144.80000305176</ele>
        <time>2020-07-04T09:39:51Z</time>
      </trkpt>
      <trkpt lat="45.33775" lon="4.75932">
        <ele>144.80000305176</ele>
        <time>2020-07-04T09:40:28Z</time>
      </trkpt>
      <trkpt lat="45.33743" lon="4.75925">
        <ele>144.80000305176</ele>
        <time>2020-07-04T09:40:36Z</time>
      </trkpt>
      <trkpt lat="45.33736" lon="4.7592">
        <ele>144.80000305176</ele>
        <time>2020-07-04T09:40:38Z</time>
      </trkpt>
      <trkpt lat="45.33699" lon="4.7588">
        <ele>144.80000305176</ele>
        <time>2020-07-04T09:40:50Z</time>
      </trkpt>
      <trkpt lat="45.33683" lon="4.75874">
        <ele>144.80000305176</ele>
        <time>2020-07-04T09:40:55Z</time>
      </trkpt>
      <trkpt lat="45.33632" lon="4.75847">
        <ele>144.80000305176</ele>
        <time>2020-07-04T09:41:10Z</time>
      </trkpt>
      <trkpt lat="45.33566" lon="4.75824">
        <ele>144.80000305176</ele>
        <time>2020-07-04T09:41:26Z</time>
      </trkpt>
      <trkpt lat="45.33549" lon="4.75819">
        <ele>144.80000305176</ele>
        <time>2020-07-04T09:41:30Z</time>
      </trkpt>
      <trkpt lat="45.33537" lon="4.75814">
        <ele>144.80000305176</ele>
        <time>2020-07-04T09:41:33Z</time>
      </trkpt>
      <trkpt lat="45.33527" lon="4.75777">
        <ele>144.80000305176</ele>
        <time>2020-07-04T09:41:41Z</time>
      </trkpt>
      <trkpt lat="45.33524" lon="4.75752">
        <ele>146.60000610352</ele>
        <time>2020-07-04T09:41:49Z</time>
      </trkpt>
      <trkpt lat="45.33517" lon="4.75744">
        <ele>147</ele>
        <time>2020-07-04T09:41:53Z</time>
      </trkpt>
      <trkpt lat="45.33479" lon="4.75743">
        <ele>147</ele>
        <time>2020-07-04T09:42:04Z</time>
      </trkpt>
      <trkpt lat="45.33309" lon="4.75742">
        <ele>149</ele>
        <time>2020-07-04T09:42:42Z</time>
      </trkpt>
      <trkpt lat="45.33081" lon="4.75734">
        <ele>149</ele>
        <time>2020-07-04T09:43:21Z</time>
      </trkpt>
      <trkpt lat="45.3285" lon="4.75715">
        <ele>149</ele>
        <time>2020-07-04T09:44:00Z</time>
      </trkpt>
      <trkpt lat="45.32808" lon="4.75712">
        <ele>149</ele>
        <time>2020-07-04T09:44:07Z</time>
      </trkpt>
      <trkpt lat="45.3274" lon="4.75732">
        <ele>149</ele>
        <time>2020-07-04T09:44:20Z</time>
      </trkpt>
      <trkpt lat="45.32617" lon="4.75812">
        <ele>149</ele>
        <time>2020-07-04T09:44:44Z</time>
      </trkpt>
      <trkpt lat="45.32528" lon="4.75896">
        <ele>149</ele>
        <time>2020-07-04T09:45:00Z</time>
      </trkpt>
      <trkpt lat="45.32443" lon="4.75951">
        <ele>148.60000610352</ele>
        <time>2020-07-04T09:45:14Z</time>
      </trkpt>
      <trkpt lat="45.32286" lon="4.76034">
        <ele>147</ele>
        <time>2020-07-04T09:45:38Z</time>
      </trkpt>
      <trkpt lat="45.32182" lon="4.76093">
        <ele>145</ele>
        <time>2020-07-04T09:45:53Z</time>
      </trkpt>
      <trkpt lat="45.3212" lon="4.76127">
        <ele>145</ele>
        <time>2020-07-04T09:46:02Z</time>
      </trkpt>
      <trkpt lat="45.32046" lon="4.76256">
        <ele>145</ele>
        <time>2020-07-04T09:46:19Z</time>
      </trkpt>
      <trkpt lat="45.32031" lon="4.76302">
        <ele>145</ele>
        <time>2020-07-04T09:46:25Z</time>
      </trkpt>
      <trkpt lat="45.3201" lon="4.76341">
        <ele>145</ele>
        <time>2020-07-04T09:46:32Z</time>
      </trkpt>
      <trkpt lat="45.31987" lon="4.76374">
        <ele>145</ele>
        <time>2020-07-04T09:46:49Z</time>
      </trkpt>
      <trkpt lat="45.31986" lon="4.76374">
        <ele>145</ele>
        <time>2020-07-04T09:48:57Z</time>
      </trkpt>
      <trkpt lat="45.31974" lon="4.76382">
        <ele>145</ele>
        <time>2020-07-04T09:49:59Z</time>
      </trkpt>
      <trkpt lat="45.31915" lon="4.7644">
        <ele>145</ele>
        <time>2020-07-04T09:50:20Z</time>
      </trkpt>
      <trkpt lat="45.31908" lon="4.76447">
        <ele>145</ele>
        <time>2020-07-04T09:50:22Z</time>
      </trkpt>
      <trkpt lat="45.31898" lon="4.76459">
        <ele>145</ele>
        <time>2020-07-04T09:50:25Z</time>
      </trkpt>
      <trkpt lat="45.31831" lon="4.76533">
        <ele>145</ele>
        <time>2020-07-04T09:50:44Z</time>
      </trkpt>
      <trkpt lat="45.31814" lon="4.76512">
        <ele>145</ele>
        <time>2020-07-04T09:50:49Z</time>
      </trkpt>
      <trkpt lat="45.31776" lon="4.76454">
        <ele>147</ele>
        <time>2020-07-04T09:51:06Z</time>
      </trkpt>
      <trkpt lat="45.31754" lon="4.76412">
        <ele>148.60000610352</ele>
        <time>2020-07-04T09:51:19Z</time>
      </trkpt>
      <trkpt lat="45.31751" lon="4.76408">
        <ele>149.19999694824</ele>
        <time>2020-07-04T09:51:21Z</time>
      </trkpt>
      <trkpt lat="45.31733" lon="4.76382">
        <ele>151.19999694824</ele>
        <time>2020-07-04T09:51:41Z</time>
      </trkpt>
      <trkpt lat="45.31731" lon="4.76388">
        <ele>151.19999694824</ele>
        <time>2020-07-04T09:52:09Z</time>
      </trkpt>
      <trkpt lat="45.31725" lon="4.76404">
        <ele>151.19999694824</ele>
        <time>2020-07-04T09:52:16Z</time>
      </trkpt>
      <trkpt lat="45.31696" lon="4.76445">
        <ele>153.39999389648</ele>
        <time>2020-07-04T09:52:32Z</time>
      </trkpt>
      <trkpt lat="45.31682" lon="4.76449">
        <ele>154.19999694824</ele>
        <time>2020-07-04T09:52:44Z</time>
      </trkpt>
      <trkpt lat="45.31683" lon="4.76439">
        <ele>155.39999389648</ele>
        <time>2020-07-04T09:52:47Z</time>
      </trkpt>
      <trkpt lat="45.31707" lon="4.76382">
        <ele>158.39999389648</ele>
        <time>2020-07-04T09:53:06Z</time>
      </trkpt>
      <trkpt lat="45.31725" lon="4.76343">
        <ele>161.39999389648</ele>
        <time>2020-07-04T09:53:20Z</time>
      </trkpt>
      <trkpt lat="45.31735" lon="4.76306">
        <ele>164.39999389648</ele>
        <time>2020-07-04T09:53:35Z</time>
      </trkpt>
      <trkpt lat="45.31742" lon="4.76278">
        <ele>167.60000610352</ele>
        <time>2020-07-04T09:53:46Z</time>
      </trkpt>
      <trkpt lat="45.31752" lon="4.76237">
        <ele>170.60000610352</ele>
        <time>2020-07-04T09:54:05Z</time>
      </trkpt>
      <trkpt lat="45.31759" lon="4.76201">
        <ele>173.60000610352</ele>
        <time>2020-07-04T09:54:21Z</time>
      </trkpt>
      <trkpt lat="45.31762" lon="4.76178">
        <ele>176.60000610352</ele>
        <time>2020-07-04T09:54:31Z</time>
      </trkpt>
      <trkpt lat="45.31759" lon="4.7615">
        <ele>179.60000610352</ele>
        <time>2020-07-04T09:54:43Z</time>
      </trkpt>
      <trkpt lat="45.31747" lon="4.76128">
        <ele>181.19999694824</ele>
        <time>2020-07-04T09:54:54Z</time>
      </trkpt>
      <trkpt lat="45.31746" lon="4.76123">
        <ele>182.39999389648</ele>
        <time>2020-07-04T09:54:56Z</time>
      </trkpt>
      <trkpt lat="45.31724" lon="4.76082">
        <ele>185</ele>
        <time>2020-07-04T09:55:15Z</time>
      </trkpt>
      <trkpt lat="45.31717" lon="4.7607">
        <ele>187.19999694824</ele>
        <time>2020-07-04T09:55:22Z</time>
      </trkpt>
      <trkpt lat="45.31709" lon="4.76083">
        <ele>189</ele>
        <time>2020-07-04T09:55:30Z</time>
      </trkpt>
      <trkpt lat="45.31712" lon="4.76124">
        <ele>192.19999694824</ele>
        <time>2020-07-04T09:55:49Z</time>
      </trkpt>
      <trkpt lat="45.31716" lon="4.76139">
        <ele>193.39999389648</ele>
        <time>2020-07-04T09:55:55Z</time>
      </trkpt>
      <trkpt lat="45.31725" lon="4.76154">
        <ele>195.19999694824</ele>
        <time>2020-07-04T09:56:02Z</time>
      </trkpt>
      <trkpt lat="45.31726" lon="4.76156">
        <ele>195.80000305176</ele>
        <time>2020-07-04T09:56:03Z</time>
      </trkpt>
      <trkpt lat="45.31718" lon="4.76192">
        <ele>198.19999694824</ele>
        <time>2020-07-04T09:56:19Z</time>
      </trkpt>
      <trkpt lat="45.31701" lon="4.76209">
        <ele>201.19999694824</ele>
        <time>2020-07-04T09:56:31Z</time>
      </trkpt>
      <trkpt lat="45.31657" lon="4.76251">
        <ele>204</ele>
        <time>2020-07-04T09:56:58Z</time>
      </trkpt>
      <trkpt lat="45.31613" lon="4.76251">
        <ele>206</ele>
        <time>2020-07-04T09:57:21Z</time>
      </trkpt>
      <trkpt lat="45.31586" lon="4.76237">
        <ele>208.19999694824</ele>
        <time>2020-07-04T09:57:35Z</time>
      </trkpt>
      <trkpt lat="45.31574" lon="4.76241">
        <ele>210.19999694824</ele>
        <time>2020-07-04T09:57:41Z</time>
      </trkpt>
      <trkpt lat="45.3156" lon="4.76264">
        <ele>210.19999694824</ele>
        <time>2020-07-04T09:57:51Z</time>
      </trkpt>
      <trkpt lat="45.31543" lon="4.76297">
        <ele>213.19999694824</ele>
        <time>2020-07-04T09:58:06Z</time>
      </trkpt>
      <trkpt lat="45.3153" lon="4.76312">
        <ele>214.39999389648</ele>
        <time>2020-07-04T09:58:14Z</time>
      </trkpt>
      <trkpt lat="45.31543" lon="4.76359">
        <ele>216.39999389648</ele>
        <time>2020-07-04T09:58:31Z</time>
      </trkpt>
      <trkpt lat="45.31555" lon="4.7641">
        <ele>218.39999389648</ele>
        <time>2020-07-04T09:58:49Z</time>
      </trkpt>
      <trkpt lat="45.31533" lon="4.76426">
        <ele>220.60000610352</ele>
        <time>2020-07-04T09:59:01Z</time>
      </trkpt>
      <trkpt lat="45.31501" lon="4.76461">
        <ele>223.80000305176</ele>
        <time>2020-07-04T09:59:19Z</time>
      </trkpt>
      <trkpt lat="45.315" lon="4.76466">
        <ele>224.60000610352</ele>
        <time>2020-07-04T09:59:21Z</time>
      </trkpt>
      <trkpt lat="45.31506" lon="4.76495">
        <ele>226.39999389648</ele>
        <time>2020-07-04T09:59:33Z</time>
      </trkpt>
      <trkpt lat="45.31515" lon="4.76517">
        <ele>226.80000305176</ele>
        <time>2020-07-04T09:59:42Z</time>
      </trkpt>
      <trkpt lat="45.3151" lon="4.76551">
        <ele>229</ele>
        <time>2020-07-04T09:59:55Z</time>
      </trkpt>
      <trkpt lat="45.31489" lon="4.76594">
        <ele>231.39999389648</ele>
        <time>2020-07-04T10:00:12Z</time>
      </trkpt>
      <trkpt lat="45.31476" lon="4.76633">
        <ele>234.39999389648</ele>
        <time>2020-07-04T10:00:27Z</time>
      </trkpt>
      <trkpt lat="45.3146" lon="4.76675">
        <ele>237.19999694824</ele>
        <time>2020-07-04T10:00:43Z</time>
      </trkpt>
      <trkpt lat="45.31435" lon="4.767">
        <ele>239.19999694824</ele>
        <time>2020-07-04T10:00:57Z</time>
      </trkpt>
      <trkpt lat="45.31413" lon="4.76671">
        <ele>240.60000610352</ele>
        <time>2020-07-04T10:01:12Z</time>
      </trkpt>
      <trkpt lat="45.31423" lon="4.76639">
        <ele>242.19999694824</ele>
        <time>2020-07-04T10:01:24Z</time>
      </trkpt>
      <trkpt lat="45.31442" lon="4.76607">
        <ele>245.19999694824</ele>
        <time>2020-07-04T10:01:38Z</time>
      </trkpt>
      <trkpt lat="45.31452" lon="4.76535">
        <ele>247.80000305176</ele>
        <time>2020-07-04T10:02:05Z</time>
      </trkpt>
      <trkpt lat="45.31441" lon="4.7649">
        <ele>250.80000305176</ele>
        <time>2020-07-04T10:02:22Z</time>
      </trkpt>
      <trkpt lat="45.31434" lon="4.76478">
        <ele>252</ele>
        <time>2020-07-04T10:02:28Z</time>
      </trkpt>
      <trkpt lat="45.31434" lon="4.76455">
        <ele>253.19999694824</ele>
        <time>2020-07-04T10:02:38Z</time>
      </trkpt>
      <trkpt lat="45.31442" lon="4.76434">
        <ele>255</ele>
        <time>2020-07-04T10:02:48Z</time>
      </trkpt>
      <trkpt lat="45.31455" lon="4.76408">
        <ele>256.60000610352</ele>
        <time>2020-07-04T10:03:00Z</time>
      </trkpt>
      <trkpt lat="45.31445" lon="4.76377">
        <ele>259.20001220703</ele>
        <time>2020-07-04T10:03:12Z</time>
      </trkpt>
      <trkpt lat="45.31427" lon="4.76366">
        <ele>260.79998779297</ele>
        <time>2020-07-04T10:03:22Z</time>
      </trkpt>
      <trkpt lat="45.31408" lon="4.76352">
        <ele>262.79998779297</ele>
        <time>2020-07-04T10:03:34Z</time>
      </trkpt>
      <trkpt lat="45.31394" lon="4.76317">
        <ele>265.39999389648</ele>
        <time>2020-07-04T10:03:49Z</time>
      </trkpt>
      <trkpt lat="45.31393" lon="4.76285">
        <ele>268</ele>
        <time>2020-07-04T10:04:02Z</time>
      </trkpt>
      <trkpt lat="45.31413" lon="4.76241">
        <ele>271.20001220703</ele>
        <time>2020-07-04T10:04:21Z</time>
      </trkpt>
      <trkpt lat="45.31425" lon="4.76198">
        <ele>274.20001220703</ele>
        <time>2020-07-04T10:04:38Z</time>
      </trkpt>
      <trkpt lat="45.31429" lon="4.76145">
        <ele>277.39999389648</ele>
        <time>2020-07-04T10:04:59Z</time>
      </trkpt>
      <trkpt lat="45.31421" lon="4.7611">
        <ele>280.39999389648</ele>
        <time>2020-07-04T10:05:13Z</time>
      </trkpt>
      <trkpt lat="45.314" lon="4.76061">
        <ele>283.60000610352</ele>
        <time>2020-07-04T10:05:36Z</time>
      </trkpt>
      <trkpt lat="45.3139" lon="4.76021">
        <ele>286.79998779297</ele>
        <time>2020-07-04T10:05:51Z</time>
      </trkpt>
      <trkpt lat="45.3136" lon="4.75978">
        <ele>289.60000610352</ele>
        <time>2020-07-04T10:06:13Z</time>
      </trkpt>
      <trkpt lat="45.31347" lon="4.75939">
        <ele>292.60000610352</ele>
        <time>2020-07-04T10:06:29Z</time>
      </trkpt>
      <trkpt lat="45.3133" lon="4.75889">
        <ele>296</ele>
        <time>2020-07-04T10:06:50Z</time>
      </trkpt>
      <trkpt lat="45.31323" lon="4.75854">
        <ele>299.20001220703</ele>
        <time>2020-07-04T10:07:03Z</time>
      </trkpt>
      <trkpt lat="45.31316" lon="4.75795">
        <ele>302.20001220703</ele>
        <time>2020-07-04T10:07:25Z</time>
      </trkpt>
      <trkpt lat="45.3131" lon="4.75726">
        <ele>303.79998779297</ele>
        <time>2020-07-04T10:07:49Z</time>
      </trkpt>
      <trkpt lat="45.31284" lon="4.75652">
        <ele>305.79998779297</ele>
        <time>2020-07-04T10:08:12Z</time>
      </trkpt>
      <trkpt lat="45.31273" lon="4.75609">
        <ele>309</ele>
        <time>2020-07-04T10:08:26Z</time>
      </trkpt>
      <trkpt lat="45.31268" lon="4.75584">
        <ele>312.20001220703</ele>
        <time>2020-07-04T10:08:36Z</time>
      </trkpt>
      <trkpt lat="45.31257" lon="4.75539">
        <ele>315.39999389648</ele>
        <time>2020-07-04T10:08:53Z</time>
      </trkpt>
      <trkpt lat="45.31251" lon="4.7551">
        <ele>318.39999389648</ele>
        <time>2020-07-04T10:09:06Z</time>
      </trkpt>
      <trkpt lat="45.31234" lon="4.7546">
        <ele>321.39999389648</ele>
        <time>2020-07-04T10:09:31Z</time>
      </trkpt>
      <trkpt lat="45.31228" lon="4.7544">
        <ele>324.39999389648</ele>
        <time>2020-07-04T10:09:41Z</time>
      </trkpt>
      <trkpt lat="45.31214" lon="4.75397">
        <ele>327.39999389648</ele>
        <time>2020-07-04T10:10:00Z</time>
      </trkpt>
      <trkpt lat="45.31191" lon="4.75313">
        <ele>329.20001220703</ele>
        <time>2020-07-04T10:10:23Z</time>
      </trkpt>
      <trkpt lat="45.31147" lon="4.75196">
        <ele>331.20001220703</ele>
        <time>2020-07-04T10:10:48Z</time>
      </trkpt>
      <trkpt lat="45.31114" lon="4.75113">
        <ele>333.60000610352</ele>
        <time>2020-07-04T10:11:10Z</time>
      </trkpt>
      <trkpt lat="45.31103" lon="4.75037">
        <ele>335.39999389648</ele>
        <time>2020-07-04T10:11:26Z</time>
      </trkpt>
      <trkpt lat="45.31103" lon="4.75032">
        <ele>335.39999389648</ele>
        <time>2020-07-04T10:11:27Z</time>
      </trkpt>
      <trkpt lat="45.3111" lon="4.74971">
        <ele>335.39999389648</ele>
        <time>2020-07-04T10:11:37Z</time>
      </trkpt>
      <trkpt lat="45.31123" lon="4.74856">
        <ele>335.39999389648</ele>
        <time>2020-07-04T10:11:53Z</time>
      </trkpt>
      <trkpt lat="45.3113" lon="4.74767">
        <ele>335.39999389648</ele>
        <time>2020-07-04T10:12:06Z</time>
      </trkpt>
      <trkpt lat="45.31124" lon="4.74746">
        <ele>335.39999389648</ele>
        <time>2020-07-04T10:12:12Z</time>
      </trkpt>
      <trkpt lat="45.31089" lon="4.74632">
        <ele>337.39999389648</ele>
        <time>2020-07-04T10:12:40Z</time>
      </trkpt>
      <trkpt lat="45.31074" lon="4.74539">
        <ele>339.60000610352</ele>
        <time>2020-07-04T10:12:59Z</time>
      </trkpt>
      <trkpt lat="45.31042" lon="4.74437">
        <ele>341.79998779297</ele>
        <time>2020-07-04T10:13:24Z</time>
      </trkpt>
      <trkpt lat="45.31029" lon="4.74403">
        <ele>341.79998779297</ele>
        <time>2020-07-04T10:13:30Z</time>
      </trkpt>
      <trkpt lat="45.31022" lon="4.74377">
        <ele>341.79998779297</ele>
        <time>2020-07-04T10:13:34Z</time>
      </trkpt>
      <trkpt lat="45.30973" lon="4.74235">
        <ele>341.79998779297</ele>
        <time>2020-07-04T10:13:59Z</time>
      </trkpt>
      <trkpt lat="45.30939" lon="4.74156">
        <ele>341.79998779297</ele>
        <time>2020-07-04T10:14:16Z</time>
      </trkpt>
      <trkpt lat="45.30922" lon="4.74148">
        <ele>343</ele>
        <time>2020-07-04T10:14:21Z</time>
      </trkpt>
      <trkpt lat="45.30885" lon="4.74109">
        <ele>343.79998779297</ele>
        <time>2020-07-04T10:14:36Z</time>
      </trkpt>
      <trkpt lat="45.30868" lon="4.74109">
        <ele>345.39999389648</ele>
        <time>2020-07-04T10:14:45Z</time>
      </trkpt>
      <trkpt lat="45.30866" lon="4.74109">
        <ele>345.79998779297</ele>
        <time>2020-07-04T10:14:46Z</time>
      </trkpt>
      <trkpt lat="45.30833" lon="4.74116">
        <ele>345.79998779297</ele>
        <time>2020-07-04T10:14:56Z</time>
      </trkpt>
      <trkpt lat="45.3081" lon="4.74106">
        <ele>345.79998779297</ele>
        <time>2020-07-04T10:15:01Z</time>
      </trkpt>
      <trkpt lat="45.30766" lon="4.74077">
        <ele>347.79998779297</ele>
        <time>2020-07-04T10:15:17Z</time>
      </trkpt>
      <trkpt lat="45.30727" lon="4.7406">
        <ele>350.79998779297</ele>
        <time>2020-07-04T10:15:33Z</time>
      </trkpt>
      <trkpt lat="45.30694" lon="4.74041">
        <ele>354</ele>
        <time>2020-07-04T10:15:47Z</time>
      </trkpt>
      <trkpt lat="45.30615" lon="4.73983">
        <ele>354</ele>
        <time>2020-07-04T10:16:11Z</time>
      </trkpt>
      <trkpt lat="45.30551" lon="4.73939">
        <ele>356.79998779297</ele>
        <time>2020-07-04T10:16:35Z</time>
      </trkpt>
      <trkpt lat="45.30533" lon="4.73926">
        <ele>359.79998779297</ele>
        <time>2020-07-04T10:16:44Z</time>
      </trkpt>
      <trkpt lat="45.30512" lon="4.73913">
        <ele>362.79998779297</ele>
        <time>2020-07-04T10:16:57Z</time>
      </trkpt>
      <trkpt lat="45.30481" lon="4.73876">
        <ele>364.39999389648</ele>
        <time>2020-07-04T10:17:14Z</time>
      </trkpt>
      <trkpt lat="45.30433" lon="4.7383">
        <ele>364.39999389648</ele>
        <time>2020-07-04T10:17:26Z</time>
      </trkpt>
      <trkpt lat="45.30403" lon="4.73804">
        <ele>364.39999389648</ele>
        <time>2020-07-04T10:17:39Z</time>
      </trkpt>
      <trkpt lat="45.30374" lon="4.73759">
        <ele>367.79998779297</ele>
        <time>2020-07-04T10:17:55Z</time>
      </trkpt>
      <trkpt lat="45.30349" lon="4.73704">
        <ele>368.60000610352</ele>
        <time>2020-07-04T10:18:04Z</time>
      </trkpt>
      <trkpt lat="45.3032" lon="4.73668">
        <ele>365.39999389648</ele>
        <time>2020-07-04T10:18:08Z</time>
      </trkpt>
      <trkpt lat="45.3029" lon="4.73635">
        <ele>363.20001220703</ele>
        <time>2020-07-04T10:18:12Z</time>
      </trkpt>
      <trkpt lat="45.3024" lon="4.73601">
        <ele>363.20001220703</ele>
        <time>2020-07-04T10:18:22Z</time>
      </trkpt>
      <trkpt lat="45.30198" lon="4.7358">
        <ele>365.79998779297</ele>
        <time>2020-07-04T10:18:35Z</time>
      </trkpt>
      <trkpt lat="45.3014" lon="4.73567">
        <ele>368.79998779297</ele>
        <time>2020-07-04T10:18:54Z</time>
      </trkpt>
      <trkpt lat="45.30084" lon="4.73561">
        <ele>369.60000610352</ele>
        <time>2020-07-04T10:19:07Z</time>
      </trkpt>
      <trkpt lat="45.3002" lon="4.73569">
        <ele>369.60000610352</ele>
        <time>2020-07-04T10:19:19Z</time>
      </trkpt>
      <trkpt lat="45.29936" lon="4.73602">
        <ele>369.60000610352</ele>
        <time>2020-07-04T10:19:39Z</time>
      </trkpt>
      <trkpt lat="45.29906" lon="4.73676">
        <ele>369.60000610352</ele>
        <time>2020-07-04T10:19:54Z</time>
      </trkpt>
      <trkpt lat="45.29876" lon="4.73758">
        <ele>371.79998779297</ele>
        <time>2020-07-04T10:20:14Z</time>
      </trkpt>
      <trkpt lat="45.29861" lon="4.7381">
        <ele>371.79998779297</ele>
        <time>2020-07-04T10:20:26Z</time>
      </trkpt>
      <trkpt lat="45.29835" lon="4.73795">
        <ele>371.79998779297</ele>
        <time>2020-07-04T10:20:35Z</time>
      </trkpt>
      <trkpt lat="45.29822" lon="4.73789">
        <ele>371.79998779297</ele>
        <time>2020-07-04T10:20:38Z</time>
      </trkpt>
      <trkpt lat="45.29712" lon="4.73774">
        <ele>371.79998779297</ele>
        <time>2020-07-04T10:21:08Z</time>
      </trkpt>
      <trkpt lat="45.29622" lon="4.73762">
        <ele>373.79998779297</ele>
        <time>2020-07-04T10:21:36Z</time>
      </trkpt>
      <trkpt lat="45.29588" lon="4.73745">
        <ele>376.39999389648</ele>
        <time>2020-07-04T10:21:53Z</time>
      </trkpt>
      <trkpt lat="45.29545" lon="4.73723">
        <ele>378</ele>
        <time>2020-07-04T10:22:12Z</time>
      </trkpt>
      <trkpt lat="45.29495" lon="4.73691">
        <ele>380</ele>
        <time>2020-07-04T10:22:28Z</time>
      </trkpt>
      <trkpt lat="45.2949" lon="4.73689">
        <ele>380</ele>
        <time>2020-07-04T10:22:29Z</time>
      </trkpt>
      <trkpt lat="45.29456" lon="4.73673">
        <ele>380</ele>
        <time>2020-07-04T10:22:38Z</time>
      </trkpt>
      <trkpt lat="45.29331" lon="4.73616">
        <ele>381.60000610352</ele>
        <time>2020-07-04T10:23:08Z</time>
      </trkpt>
      <trkpt lat="45.29326" lon="4.73614">
        <ele>382</ele>
        <time>2020-07-04T10:23:09Z</time>
      </trkpt>
      <trkpt lat="45.29153" lon="4.7353">
        <ele>382</ele>
        <time>2020-07-04T10:23:45Z</time>
      </trkpt>
      <trkpt lat="45.29115" lon="4.7354">
        <ele>381.60000610352</ele>
        <time>2020-07-04T10:23:51Z</time>
      </trkpt>
      <trkpt lat="45.29097" lon="4.73528">
        <ele>379.79998779297</ele>
        <time>2020-07-04T10:23:58Z</time>
      </trkpt>
      <trkpt lat="45.29082" lon="4.73491">
        <ele>378.39999389648</ele>
        <time>2020-07-04T10:24:04Z</time>
      </trkpt>
      <trkpt lat="45.29085" lon="4.73485">
        <ele>378</ele>
        <time>2020-07-04T10:24:05Z</time>
      </trkpt>
      <trkpt lat="45.29098" lon="4.73452">
        <ele>377.60000610352</ele>
        <time>2020-07-04T10:24:11Z</time>
      </trkpt>
      <trkpt lat="45.29096" lon="4.7343">
        <ele>377.60000610352</ele>
        <time>2020-07-04T10:24:20Z</time>
      </trkpt>
      <trkpt lat="45.29109" lon="4.73427">
        <ele>377.60000610352</ele>
        <time>2020-07-04T10:24:27Z</time>
      </trkpt>
      <trkpt lat="45.29141" lon="4.73404">
        <ele>379.60000610352</ele>
        <time>2020-07-04T10:24:40Z</time>
      </trkpt>
      <trkpt lat="45.2916" lon="4.73403">
        <ele>381.79998779297</ele>
        <time>2020-07-04T10:24:49Z</time>
      </trkpt>
      <trkpt lat="45.29186" lon="4.73436">
        <ele>381.79998779297</ele>
        <time>2020-07-04T10:25:01Z</time>
      </trkpt>
      <trkpt lat="45.29202" lon="4.73426">
        <ele>381.79998779297</ele>
        <time>2020-07-04T10:25:08Z</time>
      </trkpt>
      <trkpt lat="45.29239" lon="4.73388">
        <ele>384.39999389648</ele>
        <time>2020-07-04T10:25:29Z</time>
      </trkpt>
      <trkpt lat="45.29241" lon="4.7339">
        <ele>386</ele>
        <time>2020-07-04T10:25:41Z</time>
      </trkpt>
      <trkpt lat="45.29241" lon="4.73391">
        <ele>386</ele>
        <time>2020-07-04T10:25:50Z</time>
      </trkpt>
      <trkpt lat="45.29251" lon="4.73421">
        <ele>386</ele>
        <time>2020-07-04T10:26:02Z</time>
      </trkpt>
      <trkpt lat="45.29252" lon="4.73427">
        <ele>386</ele>
        <time>2020-07-04T10:26:04Z</time>
      </trkpt>
      <trkpt lat="45.29258" lon="4.73429">
        <ele>386</ele>
        <time>2020-07-04T10:26:15Z</time>
      </trkpt>
      <trkpt lat="45.29257" lon="4.7343">
        <ele>386</ele>
        <time>2020-07-04T10:26:35Z</time>
      </trkpt>
    </trkseg>
  </trk>
</gpx>